[[{"header":{"parameterUnit":"m.s-1","parameterCategory":1,"la1":30.6,"la2":29.2853,"lo1":-89.7004,"lo2":-87.6739,"dy":0.0162,"dx":0.0183,"nx":112,"ny":82,"refTime":"2023-08-10T06:00:00:Z","depth":0,"parameterNumber":2,"parameterNumberName":"U-component_of_WINDS"},"data":[0.0,0.0,0.0,0.0,0.0,0.0,0.0,0.0,0.0,0.0,0.0,0.0,0.0,0.0,0.0,0.0,0.0,0.0,0.0,0.0,0.0,0.0,0.0,0.0,0.0,0.0,0.0,0.0,0.0,0.0,0.0,0.0,0.0,0.0,0.0,0.0,0.0,0.0,0.0,0.0,0.0,0.0,0.0,0.0,0.0,0.0,0.0,0.0,0.0,0.0,0.0,0.0,0.0,0.0,0.0,0.0,0.0,0.0,0.0,0.0,0.0,0.0,0.0,0.0,0.0,0.0,0.0,0.0,0.0,0.0,0.0,0.0,0.0,0.0,0.0,0.0,0.0,0.0,0.0,0.0,0.0,0.0,0.0,0.0,0.0,0.0,0.0,0.0,0.0,0.0,-1.5432,-1.6558,-1.8045,-1.8948,-1.8948,-1.9212,-1.8887,-1.752,0.0,0.0,0.0,0.0,0.0,0.0,0.0,0.0,0.0,0.0,0.0,0.0,0.0,0.0,0.0,0.0,0.0,0.0,0.0,0.0,0.0,0.0,0.0,0.0,0.0,0.0,0.0,0.0,0.0,0.0,0.0,0.0,0.0,0.0,0.0,0.0,0.0,0.0,0.0,0.0,0.0,0.0,0.0,0.0,0.0,0.0,0.0,0.0,0.0,0.0,0.0,0.0,0.0,0.0,0.0,0.0,0.0,0.0,0.0,0.0,0.0,0.0,0.0,0.0,0.0,0.0,0.0,0.0,0.0,0.0,0.0,0.0,0.0,0.0,0.0,0.0,0.0,0.0,0.0,0.0,0.0,0.0,0.0,0.0,0.0,0.0,0.0,0.0,0.0,0.0,0.0,0.0,0.0,0.0,0.0,0.0,0.0,0.0,0.0,0.0,0.0,0.0,0.0,0.0,-1.5241,-1.5912,-1.623,-1.6379,-1.6379,-1.6421,-1.634,-1.6109,0.0,0.0,0.0,0.0,0.0,0.0,0.0,0.0,0.0,0.0,0.0,0.0,0.0,0.0,0.0,0.0,0.0,0.0,0.0,0.0,0.0,0.0,0.0,0.0,0.0,0.0,0.0,0.0,0.0,0.0,0.0,0.0,0.0,0.0,0.0,0.0,0.0,0.0,0.0,0.0,0.0,0.0,0.0,0.0,0.0,0.0,0.0,0.0,0.0,0.0,0.0,0.0,0.0,0.0,0.0,0.0,0.0,0.0,0.0,0.0,0.0,0.0,0.0,0.0,0.0,0.0,0.0,0.0,0.0,0.0,0.0,0.0,0.0,0.0,0.0,0.0,0.0,0.0,0.0,0.0,0.0,0.0,0.0,0.0,0.0,0.0,0.0,0.0,0.0,0.0,0.0,0.0,0.0,0.0,0.0,0.0,0.0,0.0,0.0,0.0,0.0,0.0,0.0,-1.511,-1.5357,-1.5785,-1.5832,-1.5832,-1.5832,-1.5832,-1.5832,-1.5832,-1.6517,0.0,0.0,0.0,0.0,0.0,0.0,0.0,0.0,0.0,0.0,0.0,0.0,0.0,0.0,0.0,0.0,0.0,0.0,0.0,0.0,0.0,0.0,0.0,0.0,0.0,0.0,0.0,0.0,0.0,0.0,0.0,0.0,0.0,0.0,0.0,0.0,0.0,0.0,0.0,0.0,0.0,0.0,0.0,0.0,0.0,0.0,0.0,0.0,0.0,0.0,0.0,0.0,0.0,0.0,0.0,0.0,0.0,0.0,0.0,0.0,0.0,0.0,0.0,0.0,0.0,0.0,0.0,0.0,0.0,0.0,0.0,0.0,0.0,0.0,0.0,0.0,0.0,0.0,0.0,0.0,0.0,0.0,0.0,0.0,0.0,0.0,0.0,0.0,0.0,0.0,0.0,0.0,0.0,0.0,0.0,0.0,0.0,0.0,0.0,0.0,0.0,0.0,-1.5458,-1.5678,-1.6177,-1.6292,-1.6386,-1.6655,-1.6591,-1.639,-1.6292,-1.6129,0.0,0.0,0.0,0.0,0.0,0.0,0.0,0.0,0.0,0.0,0.0,0.0,0.0,0.0,0.0,0.0,0.0,0.0,0.0,0.0,0.0,0.0,0.0,0.0,0.0,0.0,0.0,0.0,0.0,0.0,0.0,0.0,0.0,0.0,0.0,0.0,0.0,0.0,0.0,0.0,0.0,0.0,0.0,0.0,0.0,0.0,0.0,0.0,0.0,0.0,0.0,0.0,0.0,0.0,0.0,0.0,0.0,0.0,0.0,0.0,0.0,0.0,0.0,0.0,0.0,0.0,0.0,0.0,0.0,0.0,0.0,0.0,0.0,0.0,0.0,0.0,0.0,0.0,0.0,0.0,0.0,0.0,0.0,0.0,0.0,0.0,0.0,0.0,0.0,0.0,0.0,0.0,0.0,0.0,0.0,0.0,0.0,0.0,0.0,0.0,0.0,0.0,-1.5631,-1.6271,-1.7404,-1.7598,-1.8048,-1.9131,-1.8823,-1.8332,-1.7576,-1.7194,0.0,0.0,0.0,0.0,0.0,0.0,0.0,0.0,0.0,0.0,0.0,0.0,0.0,0.0,0.0,0.0,0.0,0.0,0.0,0.0,0.0,0.0,0.0,0.0,0.0,0.0,0.0,0.0,0.0,0.0,0.0,0.0,0.0,0.0,0.0,0.0,0.0,0.0,0.0,0.0,0.0,0.0,0.0,0.0,0.0,0.0,0.0,0.0,0.0,0.0,0.0,0.0,0.0,0.0,0.0,0.0,0.0,0.0,0.0,0.0,0.0,0.0,0.0,0.0,0.0,0.0,0.0,0.0,0.0,0.0,0.0,0.0,0.0,0.0,0.0,0.0,0.0,0.0,0.0,0.0,0.0,0.0,0.0,0.0,0.0,0.0,0.0,0.0,0.0,0.0,0.0,0.0,0.0,0.0,0.0,0.0,0.0,0.0,0.0,0.0,0.0,0.0,-1.6836,-1.7498,-1.868,-1.8864,-1.9047,-1.9497,-1.9373,-1.9076,-1.8856,0.0,0.0,0.0,0.0,0.0,0.0,0.0,0.0,0.0,0.0,0.0,0.0,0.0,0.0,0.0,0.0,0.0,0.0,0.0,0.0,0.0,0.0,0.0,0.0,0.0,0.0,0.0,0.0,0.0,0.0,0.0,0.0,0.0,0.0,0.0,0.0,0.0,0.0,0.0,0.0,0.0,0.0,0.0,0.0,0.0,0.0,0.0,0.0,0.0,0.0,0.0,0.0,0.0,0.0,0.0,0.0,0.0,0.0,0.0,0.0,0.0,0.0,0.0,0.0,0.0,0.0,0.0,0.0,0.0,0.0,0.0,0.0,0.0,0.0,0.0,0.0,0.0,0.0,0.0,0.0,0.0,0.0,0.0,0.0,0.0,0.0,0.0,0.0,0.0,0.0,0.0,0.0,0.0,0.0,0.0,0.0,0.0,0.0,0.0,0.0,0.0,0.0,-1.7765,-1.8171,-1.8819,-2.012,-2.0201,-2.0266,-2.0849,-2.0639,-2.0364,-2.0116,0.0,0.0,0.0,0.0,0.0,0.0,0.0,0.0,0.0,0.0,0.0,0.0,0.0,0.0,0.0,0.0,0.0,0.0,0.0,0.0,0.0,0.0,0.0,0.0,0.0,0.0,0.0,0.0,0.0,0.0,0.0,0.0,0.0,0.0,0.0,0.0,0.0,0.0,0.0,0.0,0.0,0.0,0.0,0.0,0.0,0.0,0.0,0.0,0.0,0.0,0.0,0.0,0.0,0.0,0.0,0.0,0.0,0.0,0.0,0.0,0.0,0.0,0.0,0.0,0.0,0.0,0.0,0.0,0.0,0.0,0.0,0.0,0.0,0.0,0.0,0.0,0.0,0.0,0.0,0.0,0.0,0.0,0.0,0.0,0.0,0.0,0.0,0.0,0.0,0.0,0.0,0.0,0.0,0.0,0.0,0.0,0.0,0.0,0.0,0.0,0.0,0.0,-1.9405,-1.9497,-2.0195,-2.1897,-2.1654,-2.202,-2.366,-2.3008,-2.216,0.0,0.0,0.0,0.0,0.0,0.0,0.0,0.0,0.0,0.0,0.0,0.0,0.0,0.0,0.0,0.0,0.0,0.0,0.0,0.0,0.0,0.0,0.0,0.0,0.0,0.0,0.0,0.0,0.0,0.0,0.0,0.0,0.0,0.0,0.0,0.0,0.0,0.0,0.0,0.0,0.0,0.0,0.0,0.0,0.0,0.0,0.0,0.0,0.0,0.0,0.0,0.0,0.0,0.0,0.0,0.0,0.0,0.0,0.0,0.0,0.0,0.0,0.0,0.0,0.0,0.0,0.0,0.0,0.0,0.0,0.0,0.0,0.0,0.0,0.0,0.0,0.0,0.0,0.0,0.0,0.0,0.0,0.0,0.0,0.0,0.0,0.0,0.0,0.0,0.0,0.0,0.0,0.0,0.0,0.0,0.0,0.0,0.0,0.0,0.0,0.0,0.0,0.0,-2.1068,-2.1287,-2.1897,-2.3518,-2.3543,-2.3582,-2.3799,-2.3555,-2.3153,-2.2599,0.0,0.0,0.0,0.0,0.0,0.0,0.0,0.0,0.0,0.0,0.0,0.0,0.0,0.0,0.0,0.0,0.0,0.0,0.0,0.0,0.0,0.0,0.0,0.0,0.0,0.0,0.0,0.0,0.0,0.0,0.0,0.0,0.0,0.0,0.0,0.0,0.0,0.0,0.0,0.0,0.0,0.0,0.0,0.0,0.0,0.0,0.0,0.0,0.0,0.0,0.0,0.0,0.0,0.0,0.0,0.0,0.0,0.0,0.0,0.0,0.0,0.0,0.0,0.0,0.0,0.0,0.0,0.0,0.0,0.0,0.0,0.0,0.0,0.0,0.0,0.0,0.0,0.0,0.0,0.0,0.0,0.0,0.0,0.0,0.0,0.0,0.0,0.0,0.0,0.0,0.0,0.0,0.0,0.0,0.0,0.0,0.0,0.0,0.0,0.0,0.0,0.0,-2.1787,-2.2401,-2.3174,-2.4516,-2.4521,-2.4316,-2.4062,-2.3424,-2.2858,-2.2432,0.0,0.0,0.0,0.0,0.0,0.0,0.0,0.0,0.0,0.0,0.0,0.0,0.0,0.0,0.0,0.0,0.0,0.0,0.0,0.0,0.0,0.0,0.0,0.0,0.0,0.0,0.0,0.0,0.0,0.0,0.0,0.0,0.0,0.0,0.0,0.0,0.0,0.0,0.0,0.0,0.0,0.0,0.0,0.0,0.0,0.0,0.0,0.0,0.0,0.0,0.0,0.0,0.0,0.0,0.0,0.0,0.0,0.0,0.0,0.0,0.0,0.0,0.0,0.0,0.0,0.0,0.0,0.0,0.0,0.0,0.0,0.0,0.0,0.0,0.0,0.0,0.0,0.0,0.0,0.0,0.0,0.0,0.0,0.0,0.0,0.0,0.0,0.0,0.0,0.0,0.0,0.0,0.0,0.0,0.0,0.0,0.0,0.0,0.0,0.0,0.0,0.0,-2.1832,-2.3104,-2.418,-2.5039,-2.4672,-2.4316,-2.4239,-2.2751,-2.1688,-2.1141,0.0,0.0,0.0,0.0,0.0,0.0,0.0,0.0,0.0,0.0,0.0,0.0,0.0,0.0,0.0,0.0,0.0,0.0,0.0,0.0,0.0,0.0,0.0,0.0,0.0,0.0,0.0,0.0,0.0,0.0,0.0,0.0,0.0,0.0,0.0,0.0,0.0,0.0,0.0,0.0,0.0,0.0,0.0,0.0,0.0,0.0,0.0,0.0,0.0,0.0,0.0,0.0,0.0,0.0,0.0,0.0,0.0,0.0,0.0,0.0,-2.3525,-2.3171,0.0,0.0,0.0,0.0,0.0,0.0,0.0,0.0,0.0,0.0,0.0,0.0,0.0,0.0,0.0,0.0,0.0,0.0,0.0,0.0,0.0,0.0,0.0,0.0,0.0,0.0,0.0,0.0,0.0,0.0,0.0,0.0,0.0,0.0,0.0,0.0,0.0,0.0,0.0,0.0,-2.2387,-2.353,-2.4619,-2.5498,-2.45,-2.3584,-2.3036,-2.1656,-2.0653,-1.9894,-1.8772,0.0,0.0,0.0,0.0,0.0,0.0,0.0,0.0,0.0,0.0,0.0,0.0,0.0,0.0,0.0,0.0,0.0,0.0,0.0,0.0,0.0,0.0,0.0,0.0,0.0,0.0,0.0,0.0,0.0,0.0,0.0,0.0,0.0,0.0,0.0,0.0,0.0,0.0,0.0,0.0,0.0,0.0,0.0,0.0,0.0,0.0,0.0,0.0,0.0,0.0,0.0,0.0,0.0,0.0,0.0,0.0,0.0,0.0,0.0,-2.5322,-2.4785,0.0,0.0,0.0,0.0,0.0,0.0,0.0,0.0,0.0,0.0,0.0,0.0,0.0,0.0,0.0,0.0,0.0,0.0,0.0,0.0,0.0,0.0,0.0,0.0,0.0,0.0,0.0,0.0,0.0,0.0,0.0,0.0,0.0,0.0,0.0,0.0,0.0,0.0,0.0,0.0,-2.0823,-2.1944,-2.2976,-2.3881,-2.3191,-2.2533,-2.1855,-2.0483,-1.9486,-1.8863,-1.6986,0.0,0.0,0.0,0.0,0.0,0.0,0.0,0.0,0.0,0.0,0.0,0.0,0.0,0.0,0.0,0.0,0.0,0.0,0.0,0.0,0.0,0.0,0.0,0.0,0.0,0.0,0.0,0.0,0.0,0.0,0.0,0.0,0.0,0.0,0.0,0.0,0.0,0.0,0.0,0.0,0.0,0.0,0.0,0.0,0.0,0.0,0.0,0.0,0.0,0.0,0.0,0.0,0.0,-2.7383,-2.7347,-2.7026,-2.7026,-2.6817,-2.6579,-2.6314,-2.5895,-2.5417,-2.4773,0.0,0.0,0.0,0.0,0.0,0.0,0.0,0.0,0.0,0.0,0.0,0.0,0.0,0.0,0.0,0.0,0.0,0.0,0.0,0.0,0.0,0.0,-1.7081,-1.7328,-1.8345,-1.8993,-1.82,0.0,0.0,0.0,0.0,0.0,0.0,0.0,0.0,0.0,0.0,0.0,-1.9029,-2.013,-2.1131,-2.201,-2.1726,-2.1265,-2.0743,-1.9277,-1.8182,-1.7512,-1.5216,-1.4316,0.0,0.0,0.0,0.0,0.0,0.0,0.0,0.0,0.0,0.0,0.0,0.0,0.0,0.0,0.0,0.0,0.0,0.0,0.0,0.0,0.0,0.0,0.0,0.0,0.0,0.0,0.0,0.0,0.0,0.0,0.0,0.0,-1.2893,-1.5577,0.0,0.0,0.0,0.0,0.0,0.0,0.0,0.0,0.0,0.0,0.0,0.0,0.0,-2.5237,-2.6633,-2.7418,-2.795,-2.8135,-2.8877,-2.8544,-2.7051,-2.7051,-2.6346,-2.4984,-2.536,0.0,-2.458,-2.2946,0.0,0.0,0.0,0.0,0.0,0.0,0.0,0.0,0.0,0.0,0.0,0.0,0.0,0.0,0.0,0.0,0.0,0.0,0.0,0.0,0.0,0.0,-1.8263,-1.8303,-1.8252,-1.8164,-1.8049,-1.9412,-2.0627,-2.0639,-1.9458,-1.8535,0.0,0.0,0.0,0.0,0.0,0.0,-1.9097,-2.0451,-2.1591,-2.2059,-2.1024,-2.0119,-1.9497,-1.8209,-1.6632,-1.4875,-1.4421,-1.3716,-1.2441,-1.2211,0.0,0.0,0.0,0.0,0.0,0.0,0.0,0.0,0.0,0.0,0.0,0.0,0.0,0.0,0.0,0.0,0.0,0.0,0.0,0.0,0.0,0.0,0.0,0.0,0.0,0.0,0.0,0.0,0.0,-1.2134,-1.3358,-1.575,-1.6313,-1.6386,0.0,0.0,0.0,0.0,0.0,0.0,0.0,0.0,0.0,-2.6882,-2.7435,-2.8119,-2.9189,-2.9795,-2.9632,-2.8791,-2.9156,-2.8355,-2.6465,-2.6465,-2.6109,-2.5394,-2.4601,-2.4245,-2.394,-2.3414,-2.2536,-2.1503,0.0,0.0,0.0,0.0,-1.8036,-1.8081,-1.7384,-1.7147,-1.704,-1.6211,0.0,0.0,0.0,0.0,0.0,0.0,0.0,-1.5302,-1.5355,-1.5784,-1.6096,-1.6232,-1.6292,-1.6212,-1.6212,-1.6676,-1.744,-1.8779,-1.8676,-1.8156,-1.7582,-1.6236,0.0,0.0,0.0,-1.6887,-1.8387,-1.829,-1.8303,-1.8787,-1.7346,-1.6211,-1.5866,-1.5074,-1.4202,-1.3371,-1.2417,-1.1845,-1.1853,-1.1165,-1.1165,0.0,0.0,0.0,0.0,0.0,0.0,0.0,0.0,0.0,0.0,0.0,0.0,0.0,0.0,0.0,0.0,0.0,0.0,0.0,0.0,0.0,0.0,0.0,0.0,0.0,0.0,0.0,0.0,-1.2913,-1.3804,-1.5835,-1.6847,-1.7292,0.0,0.0,0.0,0.0,0.0,0.0,-2.5596,-2.6347,-2.7668,-2.9551,-3.001,-3.0306,-3.0581,-3.0888,-3.0176,-2.8553,-2.8438,-2.7372,-2.5512,-2.5415,-2.513,-2.464,-2.3442,-2.2959,-2.3018,-2.3055,-2.2458,-2.1206,-1.9921,-1.8928,-1.8146,-1.7811,-1.779,-1.767,-1.6862,-1.6507,-1.6375,-1.5104,-1.4565,-1.4451,-1.4063,0.0,0.0,0.0,0.0,-1.3575,-1.3947,-1.4167,-1.4449,-1.4729,-1.4841,-1.4781,-1.4726,-1.4455,-1.4751,-1.6387,-1.6929,-1.6886,-1.6125,-1.4926,0.0,-1.538,-1.498,-1.5141,-1.6727,-1.5849,-1.5212,-1.5692,-1.4355,-1.3325,-1.327,-1.2961,-1.2615,-1.2093,-1.0891,-1.0393,-1.0877,-0.9998,-0.9899,-1.0872,0.0,0.0,0.0,0.0,0.0,0.0,0.0,0.0,0.0,0.0,0.0,0.0,0.0,0.0,0.0,0.0,0.0,0.0,0.0,0.0,0.0,0.0,0.0,0.0,0.0,0.0,0.0,0.0,0.0,-1.6452,-1.8183,0.0,0.0,0.0,0.0,-2.3064,-2.4366,-2.5642,-2.6958,-2.8544,-3.0059,-3.1348,-3.1807,-3.1283,-2.9536,-2.9563,-2.8692,-2.7066,-2.6694,-2.5641,-2.4141,-2.3833,-2.2834,-2.1355,-2.1229,-2.1229,-2.1182,-2.0577,-2.0483,-2.0514,-1.7958,-1.7085,-1.7034,-1.5137,-1.4595,-1.4776,-1.4801,-1.4684,-1.4749,-1.5277,-1.5272,-1.4933,-1.4582,-1.4365,0.0,0.0,-1.4341,-1.4553,-1.4898,-1.4968,-1.4973,-1.5231,-1.5074,-1.4741,-1.4665,-1.4599,-1.4508,-1.4361,-1.3876,-1.3659,-1.3826,0.0,-1.3412,-1.3417,-1.3598,-1.3753,-1.3896,-1.3901,-1.402,-1.404,-1.3831,-1.3602,-1.3285,-1.3244,-1.2525,-1.0893,-1.0737,-0.9953,-0.8247,-0.8137,-0.8137,-0.8237,-0.8237,0.0,0.0,0.0,0.0,0.0,0.0,0.0,0.0,0.0,0.0,0.0,0.0,0.0,0.0,0.0,0.0,0.0,0.0,0.0,0.0,0.0,0.0,0.0,0.0,0.0,0.0,0.0,0.0,-1.7925,-2.0019,0.0,-2.1273,-2.3492,-2.5229,-2.6167,-2.7921,-2.9355,-3.0351,-3.0165,-3.0334,-3.1039,-3.0175,-2.9343,-2.8682,-2.8682,-2.766,-2.5758,-2.5401,-2.4247,-2.2417,-2.2111,-2.1727,-2.0982,-1.9935,-1.9419,-1.9273,-1.7926,-1.8162,-1.9114,-1.7058,-1.6249,-1.6313,-1.5599,-1.5368,-1.5311,-1.4171,-1.3788,-1.3537,-1.266,-1.2167,-1.2016,-1.1831,-1.1689,-1.1594,-1.1815,-1.1846,-1.1874,-1.2157,-1.2232,-1.2228,-1.2358,-1.2218,-1.2075,-1.2016,-1.1829,-1.165,-1.1461,-1.2804,-1.3878,-1.37,-1.2726,-1.226,-1.3145,-1.2777,-1.2841,-1.3884,-1.3107,-1.2575,-1.2575,-1.1388,-1.0586,-1.0409,-1.0285,-0.991,-0.9179,-0.9056,-0.8643,-0.8045,-0.8038,-0.8038,-0.8038,-0.8038,-0.8038,0.0,0.0,0.0,0.0,0.0,0.0,0.0,0.0,0.0,0.0,0.0,0.0,0.0,0.0,0.0,0.0,0.0,0.0,0.0,0.0,0.0,0.0,0.0,0.0,0.0,-1.5899,-1.7504,-1.8818,-2.1012,-2.2345,-2.2379,-2.4801,-2.671,-2.7449,-2.8792,-2.9878,-3.0553,-2.9798,-2.9471,-2.9856,-2.8821,-2.7908,-2.7238,-2.7238,-2.6331,-2.4405,-2.3978,-2.2758,-2.0876,-2.0374,-1.9935,-1.9285,-1.8116,-1.7602,-1.7468,-1.5784,-1.5654,-1.6689,-1.5524,-1.5009,-1.5009,-1.4358,-1.4101,-1.397,-1.2804,-1.2413,-1.2266,-1.0988,-1.0507,-1.0429,-1.0429,-1.0358,-1.0317,-1.0514,-1.05,-1.0473,-1.067,-1.0721,-1.0707,-1.0656,-1.0527,-1.0405,-1.0354,-1.0188,-1.0032,-0.9981,-1.1479,-1.2682,-1.2436,-1.1504,-1.1085,-1.1999,-1.1537,-1.1544,-1.2591,-1.1699,-1.0982,-1.0982,-0.9785,-0.8876,-0.8723,-0.8665,-0.853,-0.8286,-0.8218,-0.8143,-0.8041,-0.8038,-0.8038,-0.8038,-0.8038,-0.8038,-0.8038,0.0,0.0,0.0,0.0,0.0,0.0,0.0,0.0,0.0,0.0,0.0,0.0,0.0,0.0,0.0,0.0,0.0,0.0,0.0,0.0,0.0,0.0,0.0,-1.6288,-1.7449,-1.8613,-1.9024,-2.1056,-2.2642,-2.3182,-2.4336,-2.5589,-2.6918,-2.6894,-2.7169,-2.7498,-2.7514,-2.7678,-2.8155,-2.804,-2.7238,-2.5383,-2.5383,-2.4588,-2.2853,-2.2265,-2.1034,-1.9391,-1.8741,-1.7468,-1.5913,-1.5789,-1.5784,-1.5654,-1.397,-1.3193,-1.3193,-1.3193,-1.3193,-1.3062,-1.1372,-1.0721,-1.0721,-1.0721,-1.0717,-1.0714,-1.0714,-1.0711,-1.0707,-1.0707,-1.0704,-1.07,-1.0711,-1.0707,-1.0704,-1.0717,-1.0714,-1.067,-1.0524,-1.0385,-1.0239,-1.009,-1.0053,-1.0005,-0.9856,-0.9825,-0.9822,-0.9822,-0.9822,-0.9822,-0.9822,-0.9822,0.0,-0.9815,-0.9561,-0.9381,-0.9381,-0.9117,-0.8876,-0.8723,-0.8842,-0.8733,-0.8292,-0.8391,-0.834,-0.8052,-0.8038,-0.8038,-0.8038,-0.8038,-0.8038,-0.8038,0.0,0.0,0.0,0.0,0.0,0.0,0.0,0.0,0.0,0.0,0.0,0.0,0.0,0.0,0.0,0.0,0.0,0.0,0.0,0.0,0.0,-1.6042,-1.7859,-1.7714,-1.9391,-2.0939,-2.173,-2.3715,-2.5154,-2.5435,-2.6954,-2.7971,-2.8155,-2.813,-2.8056,-2.8031,-2.6698,-2.608,-2.6172,-2.4993,-2.406,-2.3659,-2.3659,-2.3393,-2.2853,-2.1028,-1.982,-1.9391,-1.7429,-1.6302,-1.5784,-1.4619,-1.397,-1.384,-1.2153,-1.1372,-1.1372,-1.1372,-1.1372,-1.1372,-1.085,-1.0721,-1.0721,-1.0721,-1.0649,-1.0555,-1.0555,-1.0483,-1.0402,-1.0402,-1.0324,-1.028,-1.0493,-1.0399,-1.0307,-1.0636,-1.0561,-1.0415,-1.0477,-1.0385,-1.0266,-1.0226,-1.0131,-1.0036,-0.9995,-0.9897,-0.9822,-0.9822,-0.9822,-0.9822,-0.9822,-0.9822,-0.9785,-0.968,-0.95,-0.9381,-0.9381,-0.9117,-0.8876,-0.8723,-0.8648,-0.8462,-0.8126,-0.814,-0.8123,-0.8041,-0.8038,-0.8038,-0.8038,-0.8038,-0.8038,0.0,0.0,0.0,0.0,0.0,0.0,0.0,0.0,0.0,0.0,0.0,0.0,0.0,0.0,0.0,0.0,0.0,0.0,0.0,0.0,0.0,0.0,-1.7619,-1.9751,-2.0227,-2.1267,-2.2104,-2.2612,-2.3997,-2.4954,-2.4996,-2.5936,-2.6565,-2.6231,-2.6201,-2.6117,-2.5927,-2.4986,-2.4452,-2.4452,-2.2689,-2.1741,-2.1741,-2.0894,-2.0473,-2.0467,-1.9078,-1.7884,-1.7104,-1.5555,-1.4444,-1.3713,-1.2672,-1.2153,-1.2153,-1.1111,-1.0721,0.0,0.0,0.0,0.0,0.0,-1.0534,-1.0534,-1.0534,-1.0517,-1.048,-1.0422,-1.0388,-1.0358,-1.0297,-1.0219,-1.0181,-1.0354,-1.028,-1.0209,-1.047,-1.0409,-1.03,-1.0385,-1.029,-1.0185,-1.0185,-1.0114,-1.0029,-0.9968,-0.9934,0.0,-0.9832,-0.9822,-0.9822,-0.9822,-0.9822,-0.9771,-0.9629,-0.9476,-0.9357,-0.9293,-0.9076,-0.8852,-0.8632,-0.8591,0.0,0.0,0.0,-0.8106,-0.8041,-0.8038,0.0,0.0,0.0,-0.8038,-0.8038,0.0,0.0,0.0,-0.8038,-0.8726,0.0,0.0,0.0,0.0,0.0,0.0,0.0,0.0,0.0,0.0,0.0,0.0,0.0,0.0,0.0,0.0,-1.8605,-2.1391,-2.2186,-2.1939,-2.1939,-2.2559,-2.3046,-2.3267,-2.2993,-2.3213,-2.3247,-2.2939,-2.2769,-2.2598,-2.2532,-2.2415,0.0,0.0,0.0,-1.9773,-1.9773,-1.8094,-1.7253,-1.7248,-1.6738,-1.5697,-1.4015,-1.3423,-1.2319,-1.0721,-1.0721,-1.0721,-1.0721,-1.0721,-1.0711,-1.068,-1.0544,-1.049,-1.0473,-1.0334,-1.028,-1.028,-1.028,0.0,0.0,-1.0297,-1.0327,-1.0392,-1.0266,-1.0229,-1.0232,-1.0249,-1.0243,-1.0236,-1.0273,-1.0253,-1.0232,-1.0249,-1.0137,-1.0022,-1.0022,-1.0022,-0.9988,-0.9869,-0.9941,-0.9985,-0.9866,-0.9832,-0.9822,-0.9822,-0.9822,-0.9771,-0.9629,-0.9476,-0.9327,-0.9195,0.0,0.0,-0.8533,-0.8618,-0.8499,-0.8065,-0.817,-0.8184,-0.8045,-0.8038,-0.8038,-0.8038,-0.8038,-0.8038,-0.8038,-0.8038,-0.8038,-0.8038,-0.8038,-0.8726,0.0,0.0,0.0,0.0,0.0,0.0,0.0,0.0,0.0,0.0,0.0,0.0,0.0,0.0,0.0,-1.39,-1.6072,-1.7844,-1.8186,-1.8191,-1.9575,-2.3159,-2.3614,-2.3661,-2.3601,-2.3647,-2.3561,-2.326,-2.1798,-2.0744,-2.0446,-1.9099,-1.8282,-1.8089,-1.7854,-1.7814,-1.7814,-1.7393,-1.7253,-1.7248,-1.5491,0.0,-1.3878,-1.2221,-1.1128,-1.0721,-1.0721,-1.0721,-1.0721,-1.0721,-1.0649,-1.0531,-1.0504,-1.049,-1.0473,-1.0334,-1.028,-1.028,-1.028,-1.0215,-1.0131,-1.0103,-1.0029,-0.9947,-0.9917,-0.991,0.0,-1.0059,-1.0005,-0.9968,-1.0215,-1.0097,-0.9941,-1.0063,-0.9978,-0.9866,-0.9866,-0.9866,-0.9893,-0.9985,-0.993,-0.9893,-0.9988,-0.9903,-0.9822,-0.9822,-0.9822,-0.9771,-0.9629,-0.9476,-0.9371,-0.934,-0.91,-0.8866,-0.8682,-0.8581,-0.8387,-0.8062,-0.8069,-0.8072,-0.8041,-0.8038,-0.8038,-0.8038,-0.8038,-0.8038,-0.8038,-0.8038,-0.8038,-0.8038,-0.8038,-0.8726,0.0,0.0,0.0,0.0,0.0,0.0,0.0,0.0,0.0,0.0,0.0,-0.972,-0.9886,0.0,-1.3217,-1.3776,-1.5461,-1.6882,-1.7369,-1.7324,-1.8038,-2.0274,-2.045,-2.045,-2.045,-2.045,-2.0397,-2.0268,-1.9403,-1.8724,-1.8484,-1.7607,-1.7202,-1.7086,-1.621,-1.5839,-1.5839,-1.4862,-1.4441,-1.4436,-1.3271,-1.2685,-1.2521,-1.1417,-1.0863,-1.0721,-1.0721,-1.0721,-1.0721,-1.0721,-1.0629,-1.0483,-1.0415,-1.0337,-1.0253,-1.0103,-1.0049,-1.0049,-1.0049,-1.0049,-1.0036,-0.9961,-0.9934,-0.992,-0.9842,-0.9822,-0.9836,-0.9914,-0.988,-0.9856,-1.0008,-0.9937,-0.9839,-0.9917,-0.9876,-0.9822,-0.9822,-0.9822,-0.9842,-0.992,-0.9873,-0.9846,-0.992,-0.9873,-0.9822,-0.9822,-0.9822,-0.9771,-0.9629,-0.9476,-0.9351,-0.9276,-0.9069,-0.8876,-0.8723,-0.8506,-0.8313,-0.8163,-0.8082,-0.8038,-0.8038,-0.8038,-0.8038,-0.8038,-0.8038,-0.8038,-0.8038,-0.8038,-0.8038,-0.8038,-0.8038,-0.8333,0.0,0.0,0.0,0.0,0.0,0.0,0.0,-0.7913,-0.8558,-0.9441,-0.9804,-1.0208,-1.0504,-1.1792,-1.2925,-1.3506,-1.4871,-1.5985,-1.6473,-1.6235,-1.6141,-1.6183,-1.6715,-1.7253,-1.7253,-1.7253,-1.7253,-1.7253,-1.6826,-1.6671,-1.6627,-1.6244,-1.6093,-1.6008,-1.4677,-1.3835,-1.3762,-1.2262,-1.1558,-1.1531,-1.1406,-1.1267,-1.1118,-1.1002,-1.0863,-1.0721,-1.0721,-1.0704,-1.0677,-1.0677,-1.0585,-1.0436,-1.0293,-1.0158,-1.0029,-0.9876,-0.9822,-0.9822,-0.9822,-0.99,-0.9985,-0.9863,-0.9903,-0.9981,-0.9859,-0.9822,-0.9822,-0.9822,-0.9822,-0.9822,-0.9822,-0.9822,-0.9822,-0.9822,-0.9822,-0.9822,-0.9822,-0.9822,-0.9829,-0.9859,-0.9842,-0.9829,-0.9859,-0.9839,-0.9822,-0.9822,-0.9822,-0.9781,-0.9666,-0.9493,-0.9334,-0.9211,-0.9042,-0.8866,-0.8682,-0.8448,-0.8286,-0.8231,-0.8136,-0.8072,-0.8041,-0.8038,-0.8038,-0.8038,-0.8038,-0.8038,-0.8038,-0.8038,-0.8038,-0.8038,-0.8038,-0.8038,0.3134,0.1382,-0.0542,-0.0804,-0.2767,-0.4829,0.0,-0.5081,-0.5257,-0.7215,-0.9552,-1.1012,-1.0914,-1.1248,-1.1587,-1.1657,-1.1924,-1.2169,-1.2205,-1.2194,-1.2233,-1.2365,-1.5243,-1.7253,-1.7253,-1.7253,-1.7253,-1.7253,-1.5703,-1.4638,-1.4605,-1.3086,-1.2052,-1.1905,-1.1896,-1.1768,-1.1628,-1.1489,-1.1348,-1.1212,-1.1196,-1.1111,-1.0972,-1.0955,-1.0863,-1.0721,-1.0721,-1.0643,-1.0517,-1.0517,-1.0432,-1.029,-1.0134,-1.0066,-1.0029,-0.9876,-0.9822,-0.9822,-0.9822,-0.9832,-0.9842,-0.9825,-0.9832,-0.9842,-0.9825,-0.9822,-0.9822,-0.9822,-0.9822,-0.9822,-0.9822,-0.9822,-0.9822,-0.9822,-0.9822,-0.9822,-0.9822,-0.9822,-0.9863,-0.9995,-0.9914,-0.9866,-0.9998,-0.991,-0.9822,-0.9822,-0.9822,-0.9815,-0.9798,-0.9554,-0.9374,-0.9357,-0.9106,-0.8821,-0.8533,-0.8476,-0.8347,-0.8082,-0.8177,-0.8184,-0.8045,-0.8038,-0.8038,-0.8038,-0.8038,-0.8038,-0.8038,-0.8038,-0.8038,-0.8038,-0.8038,-0.8038,0.6714,0.3377,-0.0,-0.0,-0.0841,-0.1726,-0.222,-0.197,-0.2499,-0.5566,-0.9065,-1.1478,-1.1226,-1.1379,-1.1525,-1.1525,-1.1575,-1.1619,-1.1619,-1.1619,-1.1609,-1.1579,-1.2925,-1.394,-1.4006,-1.3937,-1.3876,-1.3876,-1.317,-1.2716,-1.2645,-1.2005,-1.1518,-1.1304,-1.1419,-1.1382,-1.1165,-1.1226,-1.1226,-1.1162,-1.108,-1.1006,-1.0945,-1.0856,-1.0778,-1.0714,-1.0626,-1.0602,-1.0612,-1.0439,-1.0334,-1.0263,-1.011,-0.9995,-0.991,-0.9842,-0.9822,-0.9822,-0.9822,-0.9822,-0.9822,-0.9822,-0.9822,-0.9822,-0.9822,-0.9822,-0.9822,-0.9822,-0.9822,-0.9822,-0.9822,-0.9822,-0.9822,-0.9822,-0.9822,-0.9822,-0.9822,-0.9822,-0.9839,-0.9903,-0.9866,-0.9842,-0.9907,-0.9863,-0.9822,-0.9822,-0.9822,-0.9822,-0.9822,-0.9642,-0.9445,-0.9266,-0.9062,-0.8852,-0.8632,-0.8615,-0.8523,-0.8309,-0.8357,-0.8364,-0.8299,-0.8218,-0.8174,-0.8174,-0.8085,-0.8038,-0.8038,-0.8038,-0.8038,-0.8038,-0.8038,-0.8038,0.8536,0.5454,0.1879,0.0361,-0.1493,-0.2955,-0.301,-0.2249,-0.2545,-0.6162,-0.9419,-1.1426,-1.1294,-1.146,-1.1592,-1.1508,-1.1528,-1.1555,-1.1555,-1.1518,-1.1467,-1.1399,-1.1355,-1.143,-1.1684,-1.1616,-1.1572,-1.1616,-1.1619,-1.1619,-1.1619,-1.1579,-1.1487,-1.1335,-1.1328,-1.1236,-1.1043,-1.1084,-1.1084,-1.104,-1.0934,-1.0884,-1.088,-1.0772,-1.0697,-1.0653,-1.0538,-1.051,-1.0517,-1.0304,-1.0192,-1.0144,-1.0029,-0.992,-0.9822,-0.9822,-0.9822,-0.9822,-0.9822,-0.9822,-0.9822,-0.9822,-0.9822,-0.9822,-0.9822,-0.9822,-0.9822,-0.9822,-0.9822,-0.9822,-0.9822,-0.9822,-0.9822,-0.9822,-0.9822,-0.9822,-0.9822,-0.9822,-0.9822,-0.9822,-0.9822,-0.9822,-0.9822,-0.9822,-0.9822,-0.9822,-0.9822,-0.9822,-0.9822,-0.9696,-0.9493,-0.9188,-0.9059,-0.892,-0.8726,-0.871,-0.8645,-0.8499,-0.8486,-0.8486,-0.8492,-0.8387,-0.8313,-0.8272,-0.816,-0.8082,-0.8038,-0.8038,-0.8038,-0.8038,-0.8038,-0.8038,0.8491,0.8118,0.6541,0.1342,-0.5234,-1.0409,-1.0425,-0.7688,-0.6317,-1.0046,-1.1037,-1.1188,-1.1019,-1.1321,-1.1521,-1.1223,-1.1301,-1.1399,-1.1399,-1.127,-1.1229,-1.1372,-1.126,-1.1229,-1.1389,-1.1399,-1.146,-1.1609,-1.1619,-1.1619,-1.1619,-1.148,-1.1328,-1.1175,-1.1168,-1.1029,-1.0738,-1.088,-1.088,-1.0734,-1.0727,-1.0727,-1.0727,-1.0721,-1.0639,-1.05,-1.0493,-1.0331,-1.007,-1.0059,-0.9968,-0.9836,-0.9829,-0.9825,-0.9822,-0.9822,-0.9822,-0.9822,-0.9822,-0.9822,-0.9822,-0.9822,-0.9822,-0.9822,-0.9822,-0.9822,-0.9822,-0.9822,-0.9822,-0.9822,-0.9822,-0.9822,-0.9822,-0.9822,-0.9822,-0.9822,-0.9822,-0.9822,-0.9822,-0.9822,-0.9822,-0.9822,-0.9822,-0.9822,-0.9822,-0.9822,-0.9822,-0.9822,-0.9822,-0.9696,-0.9493,-0.9188,-0.915,-0.9028,-0.8737,-0.871,-0.8545,-0.8305,-0.8387,-0.8492,-0.8622,-0.8492,-0.8411,-0.8275,-0.8265,-0.8187,-0.8038,-0.8038,-0.8038,-0.8038,-0.8038,-0.8038,0.3441,0.2227,0.1736,0.0242,-0.3782,-0.7834,-1.0154,-0.9786,-0.9333,-1.0512,-1.0806,-1.0667,-1.0819,-1.0921,-1.1023,-1.1023,-1.1145,-1.124,-1.124,-1.1196,-1.1145,-1.1104,-1.1053,-1.104,-1.109,-1.1182,-1.126,-1.1311,-1.1314,-1.1314,-1.1314,-1.1267,-1.1172,-1.1026,-1.1019,-1.0924,-1.0721,-1.0772,-1.0772,-1.0717,-1.0616,-1.0568,-1.0565,-1.047,-1.0399,-1.0344,-1.0243,-1.0198,-1.0185,-0.9981,-0.9927,-0.9964,-0.9863,-0.9822,-0.9822,-0.9822,-0.9822,-0.9822,-0.9822,-0.9822,-0.9822,-0.9822,-0.9822,-0.9822,-0.9822,-0.9822,-0.9822,-0.9822,-0.9822,-0.9822,-0.9822,-0.9822,-0.9822,-0.9822,-0.9822,-0.9822,-0.9822,-0.9822,-0.9822,-0.9822,-0.9822,-0.9822,-0.9822,-0.9822,-0.9822,-0.9822,-0.9822,-0.9822,-0.9822,-0.9696,-0.953,-0.9327,-0.9215,-0.9032,-0.8737,-0.8804,-0.8696,-0.8565,-0.8645,-0.8811,-0.8818,-0.8824,-0.8738,-0.8564,-0.837,-0.8292,-0.8333,-0.8136,-0.8092,-0.8191,-0.8089,-0.8038,0.054,-0.2244,-0.3962,-0.376,-0.5397,-0.7747,-0.9996,-1.0575,-1.0685,-1.0755,-1.0565,-1.0504,-1.0575,-1.0605,-1.0636,-1.0629,-1.0751,-1.087,-1.0931,-1.0887,-1.0856,-1.0877,-1.087,-1.0867,-1.0867,-1.0951,-1.105,-1.1155,-1.1162,-1.1162,-1.1162,-1.1114,-1.1043,-1.0951,-1.0897,-1.0819,-1.0721,-1.0721,-1.0694,-1.0636,-1.0538,-1.0466,-1.0412,-1.0324,-1.0249,-1.0192,-1.0093,-1.0073,-1.01,-0.9903,-0.9849,-0.9883,-0.9785,-0.971,-0.9663,-0.9663,-0.9663,-0.9673,-0.9727,-0.9778,-0.9812,-0.9761,-0.9781,-0.9822,-0.9822,-0.9822,-0.9822,-0.9822,-0.9822,-0.9822,-0.9822,-0.9822,-0.9822,-0.9822,-0.9822,-0.9822,-0.9822,-0.9822,-0.9822,-0.9822,-0.9822,-0.9822,-0.9822,-0.9822,-0.9822,-0.9822,-0.9822,-0.9822,-0.9822,-0.9696,-0.9551,-0.9398,-0.9245,-0.9055,-0.8811,-0.8832,-0.8849,-0.8716,-0.8749,-0.8799,-0.886,-0.8872,-0.8784,-0.8713,-0.8523,-0.8421,-0.8408,-0.8214,-0.8143,-0.8184,-0.8085,-0.8038,-0.0767,-0.514,-0.9756,-0.9819,-0.9965,-1.0196,-1.035,-1.0497,-1.0521,-1.0656,-1.0558,-1.0405,-1.0273,-1.0365,-1.0371,-1.0097,-1.0195,-1.0236,-1.0397,-1.0141,-1.0148,-1.0588,-1.0731,-1.0714,-1.0721,-1.0721,-1.0839,-1.1118,-1.1138,-1.1138,-1.1138,-1.1012,-1.0938,-1.0938,-1.0789,-1.0707,-1.0707,-1.07,-1.0626,-1.048,-1.0473,-1.0395,-1.0256,-1.0256,-1.0168,-1.0015,-1.0022,-0.9941,-0.9798,-0.9798,-0.972,-0.9598,-0.9598,-0.951,-0.9381,-0.9381,-0.9381,-0.9401,-0.954,-0.9686,-0.9788,-0.9652,-0.9703,-0.9822,-0.9822,-0.9822,-0.9822,-0.9822,-0.9822,-0.9819,-0.9812,-0.9815,-0.9819,-0.9812,-0.9815,-0.9822,-0.9822,-0.9822,-0.9822,-0.9822,-0.9815,-0.9812,-0.9812,-0.9802,-0.9802,-0.9808,-0.9812,-0.9812,-0.9812,-0.9693,-0.9547,-0.9388,-0.9239,-0.9093,-0.895,-0.8804,-0.8794,-0.8853,-0.8815,-0.8798,-0.8856,-0.8954,-0.8872,-0.8723,-0.8713,-0.8574,-0.8292,-0.8378,-0.8295,-0.8052,-0.8041,-0.8038,-0.6851,-0.8063,-0.9442,-0.9612,-0.9815,-0.9861,-1.0015,-1.0259,-1.031,-1.0236,-1.0015,-0.9829,-0.9937,-0.9804,-0.979,-0.9837,-0.9893,-0.9874,-0.9915,-0.8052,-0.7631,-1.0362,-1.069,-1.0653,-1.0738,-1.0744,-1.0768,-1.0829,-1.0833,-1.0833,-1.0833,-1.0799,-1.0778,-1.0778,-1.0629,-1.0551,-1.0551,-1.0446,-1.0375,-1.0334,-1.0219,-1.0083,-0.9937,-0.9937,-0.9795,-0.9557,-0.9673,-0.9635,-0.9493,-0.9493,-0.9473,-0.9439,-0.9439,-0.9415,-0.9381,-0.9381,-0.9381,-0.9371,-0.9296,-0.9442,-0.9656,-0.9622,-0.9703,-0.9822,-0.9822,-0.9822,-0.9822,-0.9822,-0.9822,-0.9795,-0.969,-0.9741,-0.9795,-0.969,-0.9744,-0.9822,-0.9822,-0.9822,-0.9822,-0.9822,-0.9737,-0.9663,-0.9663,-0.9568,-0.9534,-0.9646,-0.9663,-0.9663,-0.9663,-0.9632,-0.9507,-0.9239,-0.9174,-0.9093,-0.895,-0.8903,-0.8906,-0.886,-0.8819,-0.8816,-0.886,-0.8856,-0.8937,-0.8879,-0.8767,-0.8672,-0.8598,-0.9389,-0.9244,-0.8208,-0.908,-0.892,-0.9006,-0.9171,-0.9228,-0.9345,-0.9513,-0.9768,-0.9866,-0.9958,-1.0119,-1.0152,-0.9891,-0.9686,-0.9817,-0.8488,-0.736,-0.7504,-0.7551,-0.8078,-0.9261,-0.6906,-0.5194,-0.5975,-0.7367,-0.8394,-0.8368,-0.9729,-1.07,-1.0755,-1.0734,-1.069,-1.0622,-1.0619,-1.0592,-1.0527,-1.0443,-1.0399,-1.0399,-1.0321,-1.0246,-1.0178,-1.0022,-0.9903,-0.9819,-0.9686,-0.9574,-0.9483,-0.95,-0.9459,-0.9381,-0.9381,-0.934,-0.9283,-0.9283,-0.9242,-0.9188,-0.9188,-0.9188,-0.9174,-0.9089,-0.9211,-0.9418,-0.949,-0.9608,-0.9741,-0.9802,-0.9822,-0.9822,-0.9822,-0.9822,-0.9788,-0.9646,-0.9713,-0.9785,-0.9642,-0.9717,-0.9822,-0.9822,-0.9822,-0.9802,-0.9741,-0.9663,-0.9588,-0.952,-0.9439,-0.9412,-0.9496,-0.9568,-0.9585,-0.9517,-0.951,-0.9418,-0.9178,-0.9096,-0.9025,-0.8947,-0.894,-0.8944,-0.8846,-0.8846,-0.8846,-0.8846,-0.8846,-0.8954,-0.894,-0.9501,-0.9738,-0.9663,-1.0733,-1.0548,-0.9271,-0.9793,-0.9316,-0.8903,-0.9035,-0.9174,-0.9109,-0.9007,-0.8863,-0.9126,-0.9129,-0.9238,-0.9554,-0.947,-0.9412,-0.9606,-0.6934,-0.4538,-0.4024,-0.4057,-0.5102,-0.7345,-0.547,-0.2918,-0.0261,-0.2714,-0.4639,-0.4704,-0.828,-1.0474,-1.0054,-1.0019,-1.008,-1.0504,-1.048,-1.0402,-1.0253,-1.0249,-1.0239,-1.0219,-1.0202,-1.0124,-0.9988,-0.9836,-0.9751,-0.9724,-0.949,-0.9432,-0.9513,-0.9401,-0.934,-0.9323,-0.9323,-0.9245,-0.9123,-0.9123,-0.9049,-0.894,-0.894,-0.894,-0.894,-0.894,-0.9022,-0.915,-0.9303,-0.9456,-0.9602,-0.9727,-0.9764,-0.9764,-0.9764,-0.9764,-0.973,-0.9588,-0.9669,-0.9758,-0.9612,-0.9703,-0.9822,-0.9822,-0.9822,-0.9778,-0.9639,-0.9595,-0.953,-0.9378,-0.9351,-0.9351,-0.9351,-0.95,-0.9554,-0.9401,-0.9381,-0.9323,-0.9167,-0.9025,-0.894,-0.894,-0.894,-0.894,-0.894,-0.894,-0.894,-0.894,-0.892,-0.9027,-0.9154,-1.0433,-1.1095,-1.1137,-1.2289,-1.2074,-1.0668,-1.0573,-0.9702,-0.8816,-0.8886,-0.8953,-0.8983,-0.7159,-0.5426,-0.566,-0.5777,-0.5733,-0.5797,-0.6357,-0.7235,-0.8487,-0.6935,-0.4493,-0.1282,-0.0842,-0.0995,-0.1414,-0.1147,-0.0635,-0.0,-0.0511,-0.0891,-0.0901,-0.6864,-0.9494,-0.6479,-0.6341,-0.7537,-1.0263,-1.028,-1.0136,-1.0097,-1.009,-1.0029,-0.9903,-0.9785,-0.9713,-0.9683,-0.953,-0.9391,-0.9269,-0.9347,-0.9262,-0.9059,-0.915,0.0,-0.9015,-0.9015,-0.8998,-0.8977,-0.8977,-0.896,-0.894,-0.894,-0.894,-0.894,-0.894,-0.8954,-0.8998,-0.9144,-0.9296,-0.9425,-0.9449,-0.9456,-0.9456,-0.9456,-0.9456,-0.9422,-0.9269,-0.9439,-0.9608,-0.9456,-0.9625,-0.9822,-0.9822,-0.9822,-0.9778,-0.9639,-0.9507,-0.9371,-0.9218,-0.9195,-0.9195,-0.9195,-0.9432,-0.9554,-0.9401,-0.9381,-0.9323,-0.9167,-0.9025,-0.894,-0.894,-0.894,-0.894,-0.894,-0.894,-0.894,-0.894,-0.8818,-0.9345,-1.0672,-1.0845,-1.1491,-1.2605,-1.3632,-1.3404,-1.2074,-1.2824,-1.1935,-0.7054,-0.6646,-0.694,-0.8517,-0.7832,-0.6061,-0.3031,-0.2348,-0.31,-0.5894,-0.6855,-0.7508,-0.8351,-0.7624,-0.6277,-0.4516,-0.1859,-0.0,-0.0,-0.0,-0.0,-0.0,-0.0,-0.138,-0.4709,-0.819,-0.8854,-0.5392,-0.51,-0.6112,-0.8342,-0.9375,-0.9891,-0.9934,-0.993,-0.9893,-0.9822,-0.968,-0.9608,-0.9605,-0.9374,-0.9266,-0.9269,-0.9188,-0.9113,-0.9049,-0.9045,-0.9001,-0.894,-0.894,-0.894,-0.894,-0.894,-0.894,-0.894,-0.894,-0.894,-0.894,-0.894,-0.894,-0.895,-0.9018,-0.914,-0.9276,-0.9357,-0.9381,-0.9381,-0.9381,-0.9381,-0.9364,-0.9293,-0.9439,-0.9571,-0.9418,-0.9551,-0.971,-0.971,-0.9768,-0.9778,-0.9639,-0.9551,-0.9452,-0.93,-0.9273,-0.9273,-0.9273,-0.9398,-0.9493,-0.95,-0.9432,-0.9354,-0.9279,-0.914,-0.9049,-0.9049,-0.8981,-0.894,-0.894,-0.894,-0.894,-0.894,-0.9625,-1.026,-1.1105,-1.2514,-1.3524,-1.4267,-1.5396,-1.5203,-1.3851,-1.339,-1.2179,-0.5497,-0.4623,-0.5015,-0.7334,-0.792,-0.6701,-0.1972,-0.087,-0.2045,-0.6248,-0.7583,-0.8117,-0.8385,-0.8167,-0.8021,-0.8053,-0.4438,-0.1264,-0.0121,-0.0,-0.0485,-0.1878,-0.2114,-0.3845,-0.8312,-0.9346,-0.8737,-0.6108,-0.5916,-0.6372,-0.7368,-0.8894,-0.9822,-0.9822,-0.9791,-0.9774,-0.9774,-0.9602,-0.951,-0.9507,-0.9235,-0.9171,-0.9279,-0.9045,-0.8998,-0.91,-0.8988,-0.894,-0.894,-0.894,-0.894,-0.894,-0.894,-0.894,-0.894,-0.894,-0.894,-0.894,-0.894,-0.894,-0.894,-0.894,-0.9015,-0.913,-0.9249,-0.9286,-0.9286,-0.9286,-0.931,-0.9334,-0.9334,-0.9469,-0.9581,-0.9459,-0.9544,-0.9646,-0.9615,-0.9696,-0.9744,-0.9632,-0.9585,-0.951,-0.9357,-0.9361,-0.9361,-0.9296,-0.934,-0.9425,-0.9544,-0.9486,-0.9442,-0.9473,-0.9283,-0.9154,-0.9154,-0.9022,-0.894,-0.894,-0.894,-0.894,-0.894,-1.0311,-1.1172,-1.1538,-1.4078,-1.5583,-1.5849,-1.6756,-1.6517,-1.5151,-1.3632,-1.2186,-0.5917,-0.5142,-0.4592,-0.4821,-0.4933,-0.4666,-0.386,-0.3616,-0.379,-0.4264,-0.6441,-0.8252,-0.8123,-0.8218,-0.826,-0.8082,-0.7584,-0.558,-0.0701,-0.0,-0.2264,-0.8167,-0.8943,-0.7926,-0.555,-0.8044,-0.9685,-0.9319,-0.94,-0.9377,-0.95,-0.9717,-0.9822,-0.9822,-0.9696,-0.9629,-0.9629,-0.934,-0.9195,-0.9195,-0.9035,-0.8964,-0.8977,-0.895,-0.8947,-0.8957,-0.8944,-0.894,0.0,-0.894,-0.894,-0.894,-0.894,-0.894,-0.894,-0.894,-0.894,-0.894,-0.894,-0.894,-0.894,-0.894,-0.8947,-0.896,-0.8974,-0.8981,-0.8981,-0.8981,-0.9072,-0.9174,-0.9174,-0.9391,-0.9605,-0.9591,-0.9696,-0.9768,-0.9639,-0.9618,-0.9625,-0.9612,-0.9496,-0.9354,-0.9201,-0.9289,-0.9289,-0.9022,-0.9208,-0.9388,-0.9401,-0.951,-0.9639,-0.9768,-0.9405,-0.9154,-0.9154,-0.9022,-0.894,-0.894,-0.894,-0.894,-0.894,-1.0193,-1.1567,-1.3048,-1.4456,-1.594,-1.7364,-1.7288,-1.6413,-1.5029,-1.4566,-1.2905,-0.7739,-0.7455,-0.7153,-0.7198,-0.7014,-0.6915,-0.6746,-0.6545,-0.6445,-0.6377,-0.7296,-0.8136,-0.7965,-0.8096,-0.8049,-0.8008,0.0,0.0,-0.5234,-0.3702,-0.3779,-0.6529,-0.8542,-0.931,-0.7994,-0.8998,-1.0232,-1.1179,-1.2009,-1.246,-1.2702,-1.1642,-1.099,-1.099,-1.1749,-1.2168,-1.2399,-1.2021,-1.1885,-1.1994,-1.1687,-1.1599,-1.1815,-1.159,-1.1232,-1.0654,-1.0331,-0.975,0.0,-0.8974,-0.894,-0.894,-0.894,-0.894,-0.894,-0.894,-0.894,-0.894,-0.894,-0.894,-0.894,-0.894,-0.894,-0.894,-0.894,-0.894,-0.8957,-0.9045,-0.911,-0.9195,-0.9381,-0.9517,-0.9608,-0.9608,-0.9652,-0.9652,-0.9503,-0.9612,-0.971,-0.9625,-0.9629,-0.9598,-0.9452,-0.9479,-0.9449,-0.9235,-0.9228,-0.931,-0.9496,-0.9493,-0.9561,-0.9795,-0.9585,-0.9429,-0.9429,-0.9208,-0.9066,-0.9066,-0.8988,-0.894,-0.894,-1.1142,-1.2636,-1.3264,-1.5535,-1.6504,-1.628,-1.6175,-1.5376,-1.3986,-1.2936,-1.1833,-0.9518,-0.9195,-0.8944,-0.8963,-0.8826,-0.8553,-0.8468,-0.8307,-0.8051,-0.7995,-0.7962,-0.7959,-0.8041,-0.8038,-0.8038,0.0,0.0,-0.8001,-0.8181,-0.674,-0.5791,-0.6003,-0.8704,-1.0476,-1.0481,-1.0895,-1.1635,-1.2813,-1.3736,-1.4305,-1.4594,-1.3683,-1.3016,-1.2609,-1.3452,-1.3984,-1.425,-1.3886,-1.3775,-1.3922,-1.3542,-1.3586,-1.379,-1.3505,-1.2961,-1.2438,-1.1926,-1.099,0.0,-0.9654,-0.9265,-0.894,-0.894,-0.894,-0.894,-0.894,-0.894,-0.894,-0.894,-0.894,-0.894,-0.894,-0.894,-0.894,-0.894,-0.894,-0.896,-0.9062,-0.9154,-0.9283,-0.954,-0.9642,-0.9659,-0.9618,-0.9642,-0.9632,-0.9483,-0.9612,-0.9741,-0.9683,-0.9683,-0.9659,-0.9557,-0.9503,-0.9422,-0.9273,-0.9157,-0.9198,-0.9503,-0.9449,-0.9493,-0.9788,-0.973,-0.9635,-0.9551,-0.9266,-0.9089,-0.9089,-0.8994,-0.894,-0.894,-1.1324,-1.262,-1.262,-1.5097,-1.5849,-1.477,-1.477,-1.4019,-1.2615,-1.1538,-1.0891,-1.0833,-1.0028,-0.9154,-0.915,-0.9045,-0.8859,-0.8554,-0.8374,-0.8228,-0.8072,-0.8038,-0.8038,-0.8038,-0.8038,-0.8038,-0.8038,0.0,0.0,-0.8043,-0.8321,-0.863,-0.8807,-1.0807,-1.2013,-1.2038,-1.3523,-1.4604,-1.4604,-1.4599,-1.4599,-1.4604,-1.5787,-1.5881,-1.4589,-1.4494,-1.4376,-1.4381,-1.4147,-1.4143,-1.4143,-1.3806,-1.3816,-1.4128,-1.3576,-1.3617,-1.4009,-1.3457,-1.2626,0.0,-1.1181,-1.0241,-0.894,-0.894,-0.894,-0.894,-0.894,-0.894,-0.894,-0.894,-0.894,-0.894,-0.894,-0.894,-0.894,-0.894,-0.894,-0.894,-0.894,-0.9154,-0.9415,-0.9568,-0.9713,-0.9785,-0.9642,-0.9717,-0.9781,-0.9639,-0.9608,-0.9652,-0.9791,-0.9585,-0.9384,-0.9384,-0.9259,-0.911,-0.8964,-0.8944,-0.9049,-0.9347,-0.9384,-0.9493,-0.9788,-0.9819,-0.97,-0.9408,-0.9113,-0.894,-0.894,-0.894,-0.894,-0.894,-1.0351,-1.1105,-1.1105,-1.262,-1.3372,-1.3372,-1.3372,-1.2512,-1.1105,-1.1105,-1.0351,-1.1921,-1.0974,-1.0071,-1.0071,-0.9213,-0.8459,-0.836,-0.8221,-0.8099,-0.8052,-0.8038,-0.8233,-0.9217,-0.941,-0.9604,-1.0485,-1.0681,0.0,-1.1111,-1.144,-1.1769,-1.2303,-1.3254,-1.4177,-1.5226,-1.582,-1.6709,-1.772,-1.7609,-1.7615,-1.7923,-1.8026,-1.7443,-1.6003,-1.6804,-1.7334,-1.752,-1.7247,-1.7204,-1.7384,-1.6925,-1.6944,-1.7365,-1.6826,-1.5754,-1.4249,-1.3795,-1.2206,-0.9923,-0.9654,-0.9375,-0.894,-0.894,-0.894,-0.894,-0.894,-0.894,-0.894,-0.894,-0.894,-0.894,-0.894,-0.894,-0.894,-0.894,-0.894,-0.8957,-0.9059,-0.9303,-0.9547,-0.9598,-0.9713,-0.9812,-0.9764,-0.9713,-0.9663,-0.9618,-0.9608,-0.9625,-0.9666,-0.9602,-0.9503,-0.9398,-0.9256,-0.9103,-0.896,-0.894,-0.9008,-0.9201,-0.9317,-0.9456,-0.9656,-0.9676,-0.9639,-0.9544,-0.9357,-0.9195,-0.9093,-0.8991,-0.894,-0.894,-1.0351,-1.1105,-1.1105,-1.2512,-1.2837,-1.1755,-1.1755,-1.1,-0.9588,-0.9588,-0.9375,0.0,-1.2151,-1.1276,-1.1276,-1.0518,-0.9859,-0.979,0.0,-0.9509,-0.9509,-0.9509,-0.9702,-1.0583,-1.0681,-1.0998,-1.1963,-1.2071,-1.2223,-1.2766,-1.3092,-1.3961,-1.5886,-1.7012,-1.8144,-1.9395,-1.9316,-1.9395,-2.0064,-1.9598,-1.9285,-1.9366,-1.9192,-1.862,-1.7669,-1.8444,-1.8911,-1.9092,-1.8911,-1.8851,-1.8918,-1.8444,-1.8464,-1.8905,-1.8317,-1.7006,-1.5275,-1.4793,-1.2864,0.0,-0.9898,-0.9407,-0.9015,-0.896,-0.894,-0.894,-0.894,-0.894,-0.894,-0.894,-0.894,-0.894,-0.894,-0.894,-0.894,-0.894,-0.8977,-0.9025,-0.9062,-0.933,-0.9595,-0.9537,-0.9673,-0.9822,-0.9822,-0.9754,-0.969,-0.969,-0.9646,-0.9608,-0.9608,-0.9517,-0.9408,-0.931,-0.9171,-0.9042,-0.8954,-0.894,-0.9011,-0.9211,-0.932,-0.9459,-0.9666,-0.969,-0.9646,-0.9534,-0.9384,-0.9232,-0.9083,-0.8988,-0.894,-0.894,-0.9865,-1.0303,-1.0241,-1.1283,-1.1283,-1.0241,-1.0241,-0.9809,-0.894,-0.894,-0.894,0.0,-1.3545,-1.266,-1.266,-1.2506,-1.2297,-1.2194,0.0,0.0,0.0,0.0,-1.195,-1.2063,-1.2058,-1.2222,-1.2662,-1.2689,-1.2845,-1.353,-1.4028,-1.5569,-1.9112,-2.1183,-2.2749,-2.3694,-2.2945,-2.2266,-2.1631,-2.0405,-1.9653,-1.9379,-1.9366,-1.9366,-1.9366,-1.9366,-1.9366,-1.9366,-1.9366,-1.9219,-1.8918,-1.8532,-1.8546,-1.8671,-1.802,-1.7252,-1.6281,-1.5817,-1.4065,-1.1621,-1.1147,-1.0227,-0.9137,-0.8994,-0.894,-0.894,-0.894,-0.894,-0.894,-0.894,-0.894,-0.894,-0.894,-0.894,-0.894,-0.894,-0.9032,-0.9113,-0.8988,-0.9256,-0.9551,-0.9429,-0.9602,-0.9808,-0.9819,-0.9815,-0.9805,-0.9805,-0.9703,-0.9605,-0.9595,-0.9364,-0.9164,-0.9154,-0.9032,-0.894,-0.894,-0.894,-0.9042,-0.9327,-0.9374,-0.949,-0.9774,-0.9805,-0.969,-0.9405,-0.9252,-0.9103,-0.8947,-0.894,-0.894,-0.894,-0.9076,-0.9089,-0.8957,-0.9086,-0.9083,-0.894,-0.894,-0.894,-0.894,-0.894,-0.894,-1.5505,0.0,-1.3554,-1.3554,-1.2827,-1.1988,0.0,0.0,0.0,0.0,0.0,0.0,0.0,0.0,-1.3928,-1.5401,-1.5512,-1.5644,-1.6507,-1.748,-1.8416,-1.9305,-2.0048,-2.0815,-2.1696,-2.0809,-2.0526,-2.1487,-2.0326,-1.9439,-1.9372,-1.9366,-1.9366,-1.9366,-1.9366,-1.9366,-1.9366,-1.9366,-1.9219,-1.8918,-1.7565,-1.699,-1.7044,-1.5646,-1.4297,-1.2978,-1.2771,-1.1654,-0.9756,-0.9561,-0.9353,-0.9137,-0.8994,-0.894,-0.894,-0.894,-0.894,-0.894,-0.894,-0.894,-0.894,-0.894,-0.894,-0.894,-0.894,-0.896,-0.9005,-0.9083,-0.9178,-0.9306,-0.9503,-0.9608,-0.9686,-0.9795,-0.9737,-0.9659,-0.9659,-0.9632,-0.9574,-0.9456,-0.9374,-0.9289,-0.9171,-0.9032,-0.894,-0.894,-0.894,-0.9001,-0.9184,-0.931,-0.9452,-0.9639,-0.9659,-0.9585,-0.9398,-0.9347,-0.9218,-0.8954,-0.894,-0.894,-0.894,-0.9076,-0.9137,-0.9103,-0.9133,-0.9083,-0.894,-0.894,-0.894,-0.894,-0.894,-0.894,-1.5832,-1.5337,-1.4752,-1.4752,-1.4268,-1.3692,-1.3692,0.0,0.0,0.0,0.0,0.0,0.0,-1.4958,-1.5382,-1.6527,-1.68,-1.7188,-1.807,-1.9403,-2.0373,-2.0656,-2.1525,-2.2175,-2.2589,-2.1632,-2.1133,-2.1608,-2.0389,-1.9506,-1.9372,-1.9366,-1.9004,-1.8286,-1.8286,-1.8648,-1.9366,-1.9366,-1.8859,-1.7748,-1.693,-1.6115,-1.5412,-1.4598,-1.3332,-1.1786,-1.1868,-1.0882,-0.9252,-0.9174,-0.9188,-0.9242,-0.9096,-0.8998,-0.894,-0.894,-0.894,-0.894,-0.894,-0.894,-0.894,-0.894,-0.894,-0.894,-0.894,-0.8984,-0.9052,-0.913,-0.93,-0.9466,-0.9496,-0.9557,-0.9629,-0.9707,-0.9612,-0.9523,-0.9595,-0.9554,-0.9479,-0.9398,-0.9381,-0.9354,-0.9273,-0.9195,-0.9144,-0.9144,-0.9144,-0.9195,-0.9344,-0.9374,-0.9466,-0.9683,-0.9585,-0.9469,-0.9388,-0.9317,-0.9181,-0.8954,-0.894,-0.894,-0.894,-0.9076,-0.9154,-0.9154,-0.9089,-0.9018,-0.894,-0.894,-0.894,-0.894,-0.894,-0.894,-1.5832,-1.5832,-1.5832,-1.5832,-1.5832,-1.5832,-1.5832,0.0,0.0,0.0,0.0,0.0,0.0,-1.6132,-1.64,-1.678,-1.7375,-1.8103,-1.8998,-2.0338,-2.1398,-2.178,-2.3106,-2.3869,-2.365,-2.282,-2.1979,-2.1296,-2.0268,-1.9626,-1.9379,-1.9127,-1.8402,-1.7085,-1.6692,-1.7289,-1.8648,-1.8648,-1.7793,-1.6115,-1.5918,-1.5082,-1.3737,-1.3543,-1.2739,-1.1405,-1.155,0.0,-0.9344,-0.9323,-0.9327,-0.9334,-0.9178,-0.9045,-0.894,-0.894,-0.894,-0.894,-0.894,-0.894,-0.894,-0.894,-0.894,-0.894,-0.894,-0.9039,-0.9157,-0.9181,-0.9459,-0.97,-0.9476,-0.9513,-0.9608,-0.9608,-0.951,-0.9445,-0.9551,-0.9473,-0.9374,-0.9351,-0.9364,-0.9381,-0.9381,-0.9381,-0.9381,-0.9381,-0.9381,-0.9435,-0.9591,-0.9496,-0.951,-0.9764,-0.9544,-0.9381,-0.9381,-0.9222,-0.9079,-0.8977,-0.895,-0.895,-0.8971,-0.9089,-0.9154,-0.9154,-0.9032,-0.896,-0.894,-0.894,-0.894,-0.894,-0.894,-0.894,-1.5832,-1.5832,-1.5832,-1.5832,-1.5832,-1.5832,-1.5832,0.0,0.0,0.0,0.0,0.0,0.0,-1.6406,-1.6533,-1.7321,-1.8163,-1.9025,-1.9907,-2.026,-2.0319,-2.0162,-2.0371,-2.0282,-1.977,-1.989,-1.9802,-1.9707,-1.9522,-1.9412,-1.9372,-1.8163,-1.7208,-1.6968,-1.5582,-1.4993,-1.5311,-1.5316,-1.5077,-1.4487,-1.3391,-1.2473,-1.1927,-1.0824,-1.0029,-0.9639,0.0,-0.9432,-0.9178,-0.9055,-0.9079,-0.9174,-0.9028,-0.8957,-0.894,-0.894,-0.894,-0.894,-0.894,-0.894,-0.894,-0.894,-0.894,-0.894,-0.894,-0.9039,-0.9178,-0.931,-0.9395,-0.9466,-0.9554,-0.9591,-0.9608,-0.9608,-0.9591,-0.9544,-0.9439,-0.9398,-0.9344,-0.9211,-0.9293,-0.9381,-0.9381,-0.9381,-0.9381,-0.9381,-0.9381,-0.9435,-0.9591,-0.9588,-0.9591,-0.9639,-0.9486,-0.9381,-0.9381,-0.913,-0.9015,-0.9113,-0.9008,-0.8994,-0.9117,-0.914,-0.9154,-0.9154,-0.913,-0.9059,-0.894,-0.894,-0.894,-0.894,-0.894,-0.894,-1.5832,-1.5832,-1.5832,-1.5832,-1.5832,-1.5832,-1.5832,-1.5832,0.0,0.0,0.0,0.0,0.0,-1.6994,-1.7569,-1.8611,-1.8998,-1.9359,-1.992,-1.9726,-1.9533,-1.9559,-1.9426,-1.9285,-1.9172,-1.9285,-1.9299,-1.9138,-1.9125,-1.8702,-1.7837,-1.7032,-1.5991,-1.424,-1.3436,-1.2678,-1.1954,-1.1954,-1.2311,-1.3145,-1.2421,-1.1508,-1.0424,-0.9838,-0.9364,-0.9161,0.0,-0.9306,-0.9161,-0.9259,-0.9242,-0.9147,-0.9079,-0.9008,-0.894,-0.894,-0.894,-0.894,-0.894,-0.894,-0.894,-0.894,-0.894,-0.894,-0.894,-0.9039,-0.9167,-0.9239,-0.9378,-0.952,-0.9591,-0.9547,-0.9486,-0.9486,-0.9364,-0.9249,-0.9256,-0.9259,-0.9239,-0.9167,-0.9344,-0.9503,-0.9503,-0.9568,-0.9618,-0.9618,-0.9618,-0.9615,-0.9608,-0.9537,-0.9517,-0.9602,-0.9398,-0.9323,-0.949,-0.9228,-0.9049,-0.9039,-0.8974,-0.8967,-0.9035,-0.9035,-0.9035,-0.9035,-0.9035,-0.9005,-0.894,-0.894,-0.894,-0.894,-0.894,-0.894,-1.5832,-1.554,-1.5343,-1.5343,0.0,-1.5356,-1.5428,-1.5147,-1.4967,0.0,0.0,0.0,0.0,-1.7272,-1.8384,-1.9426,-1.9466,-1.9492,-1.9853,-1.9459,-1.9212,-1.9439,-1.9205,-1.9118,-1.9345,-1.901,-1.8764,-1.8356,-1.8103,-1.7282,-1.5862,-1.5579,-1.4338,-1.1901,-1.1525,-1.0805,-0.9608,-0.954,-1.0195,-1.1615,-1.1553,-1.0753,-0.9551,-0.9398,-0.9245,-0.9117,-0.9351,-0.932,-0.912,-0.9357,-0.9313,-0.9103,-0.9103,-0.9035,-0.894,-0.894,-0.894,-0.894,-0.894,-0.894,-0.894,-0.894,-0.896,-0.8988,-0.8988,-0.9066,-0.9161,-0.9198,-0.9351,-0.951,-0.9547,-0.952,-0.9466,-0.9398,-0.9208,-0.9062,-0.9137,-0.9127,-0.9113,-0.9147,-0.9344,-0.9523,-0.9598,-0.9669,-0.9741,-0.9812,-0.9791,-0.9744,-0.9669,-0.9557,-0.9503,-0.9551,-0.9347,-0.9273,-0.9439,-0.9303,-0.913,-0.895,-0.894,-0.894,-0.894,-0.894,-0.894,-0.894,-0.8974,-0.8974,-0.894,-0.8974,-0.8971,-0.894,-0.894,-0.894,-1.5832,-1.4949,-1.407,-1.407,-1.407,-1.4039,-1.4184,-1.3342,-1.2504,-1.2613,-1.2674,-1.3162,-1.4855,-1.6649,-1.825,-1.8885,-1.9199,-1.9559,-2.0127,-1.9933,-1.9746,-1.9766,-1.9512,-1.9345,-1.9366,-1.8046,-1.7095,-1.6821,-1.5533,-1.4625,-1.4272,-1.2927,-1.2025,-1.1782,-1.0269,-0.9435,-0.9605,-0.9327,-0.9514,-0.994,-0.9796,-0.9652,-0.9391,-0.9239,-0.9089,-0.8954,-0.8977,-0.8974,-0.8957,-0.8977,-0.8974,-0.8954,-0.8954,-0.8947,-0.894,-0.894,-0.894,-0.894,-0.894,-0.894,-0.894,-0.894,-0.9028,-0.9137,-0.9137,-0.9144,-0.9184,-0.9323,-0.9276,-0.9218,-0.9361,-0.9591,-0.972,-0.9445,-0.9364,-0.9313,-0.9181,-0.9049,-0.8994,-0.9127,-0.9171,-0.9276,-0.9561,-0.95,-0.9507,-0.9781,-0.9707,-0.9669,-0.9791,-0.9795,-0.969,-0.9425,-0.9378,-0.9262,-0.9008,-0.9218,-0.9242,-0.8957,-0.894,-0.894,-0.894,-0.894,-0.894,-0.894,-0.9069,-0.9072,-0.894,-0.9072,-0.9069,-0.894,-0.894,-0.894,-1.4657,-1.3686,-1.2619,-1.2619,-1.2037,0.0,0.0,-1.2568,-1.2189,-1.2274,-1.2521,-1.3342,-1.535,-1.6495,-1.7673,-1.901,-1.9446,-1.9773,-2.0174,-1.9826,-1.9533,-1.9533,-1.9272,-1.8735,-1.7669,-1.7074,-1.6264,-1.5096,-1.4374,-1.3414,-1.2317,-1.1755,-1.0988,-0.9999,-0.9472,-0.9208,-0.9323,-0.9211,-0.9286,-0.9547,-0.9398,-0.9296,-0.9235,-0.9086,-0.8991,-0.8944,-0.9032,-0.9022,-0.8947,-0.9035,-0.9018,-0.894,-0.894,-0.894,-0.894,-0.894,-0.894,-0.894,-0.894,-0.8998,-0.9072,-0.9072,-0.9174,-0.9276,-0.9181,-0.9154,-0.9147,-0.9113,-0.9198,-0.933,-0.9483,-0.9537,-0.9544,-0.9527,-0.9378,-0.9222,-0.9164,-0.9042,-0.8981,-0.9123,-0.9228,-0.9361,-0.9571,-0.9635,-0.9693,-0.9802,-0.9774,-0.973,-0.9693,-0.969,-0.9646,-0.9537,-0.9602,-0.9574,-0.9374,-0.9459,-0.9395,-0.9089,-0.8988,-0.894,-0.894,-0.9025,-0.9028,-0.894,-0.9174,-0.9178,-0.894,-0.9083,-0.9079,-0.894,-0.894,-0.894,-1.3878,-1.2619,-1.1268,-1.1268,0.0,0.0,-1.1405,-1.136,-1.1078,-1.1044,-1.2164,-1.3578,-1.5,-1.6275,-1.7572,-1.8924,-1.9259,-1.9519,-1.9907,-1.9459,-1.9158,-1.9345,-1.9105,-1.8337,-1.6695,-1.6224,-1.5167,-1.3286,-1.2567,-1.174,-1.0468,-1.0453,-1.0024,-0.894,-0.9032,-0.9106,-0.9154,-0.911,-0.9161,-0.9306,-0.9157,-0.911,-0.9147,-0.9005,-0.8913,-0.8876,-0.9022,-0.8974,-0.8804,-0.8954,-0.8957,-0.8866,-0.8866,-0.8896,-0.894,-0.894,-0.894,-0.8947,-0.8991,-0.9069,-0.9161,-0.9208,-0.9327,-0.9435,-0.9327,-0.9262,-0.9215,-0.9164,-0.9228,-0.9354,-0.9557,-0.9564,-0.9537,-0.9595,-0.9449,-0.9269,-0.9174,-0.9076,-0.9022,-0.9076,-0.9208,-0.9357,-0.951,-0.9618,-0.9713,-0.9805,-0.9781,-0.9734,-0.9683,-0.9639,-0.9571,-0.9476,-0.9595,-0.9625,-0.9479,-0.9554,-0.9479,-0.9171,-0.9059,-0.8984,-0.894,-0.9032,-0.9039,-0.894,-0.9184,-0.9211,-0.9008,-0.9103,-0.9103,-0.9005,-0.896,-0.894,-1.3878,-1.1935,-0.9998,-0.9998,0.0,0.0,-1.0252,-0.9611,-0.8523,-0.8679,-1.119,-1.3264,-1.3372,-1.5862,-1.8136,-1.8437,-1.8484,-1.8691,-1.9279,-1.8858,-1.8704,-1.9285,-1.9092,-1.8324,-1.6918,-1.5297,-1.3614,-1.163,-1.0044,-0.9089,-0.8947,-0.894,-0.894,-0.894,-0.894,-0.9008,-0.915,-0.9011,-0.9011,-0.915,-0.9005,-0.9011,-0.9147,-0.9001,-0.8855,-0.872,-0.8869,-0.8764,-0.8492,-0.8645,-0.871,-0.871,-0.871,-0.8801,-0.8937,-0.8937,-0.8937,-0.8957,-0.91,-0.9154,-0.9178,-0.933,-0.9486,-0.9612,-0.9608,-0.9503,-0.9415,-0.9564,-0.9391,-0.9225,-0.953,-0.9713,-0.9785,-0.9646,-0.9608,-0.9523,-0.9222,-0.9154,-0.911,-0.8967,-0.9055,-0.9205,-0.9357,-0.9384,-0.9486,-0.9778,-0.97,-0.9663,-0.9802,-0.9696,-0.9493,-0.9191,-0.9293,-0.932,-0.9171,-0.9435,-0.9479,-0.9174,-0.9157,-0.9089,-0.8944,-0.894,-0.894,-0.894,-0.9083,-0.9154,-0.915,-0.9154,-0.9154,-0.9147,-0.9005,-0.894,-1.2522,-1.0578,-0.8825,-0.9805,0.0,0.0,0.0,-1.0755,-1.0067,-1.1465,-1.2452,-1.3391,-1.4426,-1.5487,-1.6542,-1.7729,-1.8036,-1.831,-1.8698,-1.8417,-1.8243,-1.8417,-1.7448,-1.6151,-1.458,-1.3233,-1.1725,-1.0055,-0.9279,-0.8984,-0.894,-0.894,-0.894,-0.894,-0.894,-0.8957,-0.9001,-0.896,-0.896,-0.9001,-0.8849,-0.8855,-0.9001,-0.8957,-0.8855,-0.8713,-0.8757,-0.8665,-0.8486,-0.853,-0.8615,-0.8699,-0.8591,-0.8645,-0.8777,-0.8777,-0.8845,-0.8944,-0.8988,-0.914,-0.9303,-0.9242,-0.9462,-0.972,-0.951,-0.9493,-0.953,-0.9466,-0.9459,-0.9469,-0.9452,-0.9561,-0.9686,-0.9744,-0.9598,-0.9422,-0.9334,-0.915,-0.9018,-0.9079,-0.9211,-0.9361,-0.9513,-0.9625,-0.972,-0.9808,-0.9785,-0.9774,-0.9815,-0.9696,-0.9574,-0.9483,-0.9418,-0.9405,-0.9469,-0.9557,-0.9571,-0.9479,-0.9371,-0.9201,-0.895,-0.9035,-0.9042,-0.894,-0.9184,-0.9211,-0.9001,-0.9103,-0.91,-0.9001,-0.8957,-0.894,-1.2042,-1.0779,0.0,-0.9899,-1.0474,-1.135,-1.2734,-1.2074,-1.149,-1.2499,-1.3205,-1.3909,-1.4907,-1.5698,-1.651,-1.7603,-1.7816,-1.8009,-1.843,-1.8029,-1.7602,-1.7386,-1.6332,-1.4926,-1.2928,-1.1935,-1.0795,-0.9185,-0.8988,-0.8913,-0.8852,-0.8906,-0.891,-0.8849,-0.8849,-0.8849,-0.8849,-0.8788,-0.8757,-0.8757,-0.8662,-0.8669,-0.8757,-0.8757,-0.8676,-0.8533,-0.8469,-0.8428,-0.8394,-0.8333,-0.8397,-0.8526,-0.8435,-0.8526,-0.871,-0.871,-0.8808,-0.8947,-0.9005,-0.914,-0.9286,-0.9252,-0.9466,-0.9703,-0.9527,-0.9537,-0.9602,-0.9564,-0.9581,-0.9602,-0.9564,-0.9625,-0.97,-0.973,-0.9602,-0.9456,-0.9395,-0.9289,-0.9195,-0.9161,-0.9323,-0.95,-0.9595,-0.9727,-0.9822,-0.9822,-0.9822,-0.9798,-0.9744,-0.9608,-0.9496,-0.9435,-0.9347,-0.9354,-0.9507,-0.9574,-0.9608,-0.9608,-0.9523,-0.9364,-0.9123,-0.9086,-0.9055,-0.9025,-0.9144,-0.9147,-0.9025,-0.911,-0.911,-0.9025,-0.9025,-0.8994,-1.2431,-1.1945,-1.1653,-1.0583,-1.1375,-1.2657,-1.3817,-1.3375,-1.2771,-1.2572,-1.3609,-1.4616,-1.4746,-1.595,-1.7171,-1.7589,-1.7563,-1.7702,-1.829,-1.753,-1.6781,-1.6249,-1.5458,-1.4078,-1.1668,-1.1355,-1.062,-0.9037,-0.8916,-0.8852,-0.8699,-0.8821,-0.8832,-0.8696,-0.8689,-0.8689,-0.8689,-0.8554,-0.8482,-0.8482,-0.8469,-0.8462,-0.8462,-0.8476,-0.8404,-0.8262,-0.8106,-0.8126,-0.8258,-0.8102,-0.813,-0.8269,-0.8255,-0.8431,-0.8689,-0.8689,-0.8794,-0.8957,-0.9089,-0.9144,-0.9174,-0.93,-0.9462,-0.9608,-0.9595,-0.9608,-0.9656,-0.9785,-0.9727,-0.9656,-0.9889,-1.0041,-1.0006,-0.9989,-0.9842,-0.9571,-0.9432,-0.9617,-0.9738,-0.9453,-0.9637,-0.9842,-0.9842,-0.9844,-0.9822,-0.9822,-0.9822,-0.9774,-0.9646,-0.9483,-0.9334,-0.9208,-0.9167,-0.9222,-0.9388,-0.953,-0.9615,-0.9629,-0.9615,-0.9547,-0.9408,-0.9117,-0.9018,-0.915,-0.9011,-0.9001,-0.9133,-0.9147,-0.9147,-0.9133,-0.9147,-0.9076,-1.359,-1.2716,0.0,-1.2909,-1.4231,-1.5382,-1.568,-1.4863,-1.3939,-1.3939,-1.43,-1.4456,-1.3491,-1.4424,-1.5383,-1.5499,-1.6304,-1.7021,-1.7388,-1.6228,-1.536,-1.5624,-1.3378,-1.1706,-1.1257,-1.0185,-0.9247,-0.8771,-0.876,-0.8693,-0.854,-0.8564,-0.8564,-0.8533,-0.853,-0.853,-0.853,-0.8499,-0.8482,-0.8479,-0.837,-0.8316,-0.8319,-0.8431,-0.8404,-0.8262,-0.8106,-0.8126,-0.8258,-0.8102,-0.813,-0.8258,-0.8136,-0.8269,-0.853,-0.853,-0.8703,-0.8944,-0.8974,-0.9059,-0.914,-0.9059,-0.9296,-0.9588,-0.9466,-0.9591,-0.9781,-0.9812,-0.9798,-0.9992,-1.1197,-1.1524,-1.1867,-1.3114,-1.1476,-0.9602,-0.9568,-1.0533,-1.1364,-1.1282,-1.1321,-1.1468,-1.1468,-1.055,-0.9822,-0.9822,-0.9822,-0.9812,-0.9778,-0.9544,-0.9415,-0.9503,-0.9296,-0.9262,-0.9537,-0.9591,-0.9656,-0.9768,-0.9673,-0.9595,-0.9561,-0.9269,-0.912,-0.9154,-0.9011,-0.8954,-0.8984,-0.9096,-0.9096,-0.8988,-0.91,-0.9076,-1.407,0.0,0.0,-1.4657,0.0,-1.6239,-1.6092,-1.5557,-1.4867,-1.4267,-1.3785,-1.3219,-1.2734,-1.3153,-1.3696,-1.3812,-1.4445,-1.4904,-1.5047,-1.4225,-1.3485,-1.3215,-1.1691,-1.0449,-0.9992,-0.9258,-0.8798,-0.8716,-0.8642,-0.8537,-0.8387,-0.8445,-0.8452,-0.8384,-0.8381,-0.8381,-0.8381,-0.8306,-0.8269,-0.8269,-0.8194,-0.816,-0.8163,-0.8235,-0.8228,-0.8153,-0.8075,-0.8085,-0.8153,-0.8072,-0.8089,-0.815,-0.8072,-0.8221,-0.8482,-0.8482,-0.8676,-0.894,-0.894,-0.8988,-0.9039,-0.8964,-0.9144,-0.9374,-0.9296,-0.9483,-0.9703,-0.9632,-0.9713,-1.0144,-1.163,-1.1997,-1.2302,-1.3131,-1.2591,-1.1707,-1.089,-1.135,-1.1787,-1.0895,-1.0832,-1.0913,-1.099,-1.0364,-0.9822,-0.9822,-0.9822,-0.9822,-0.9822,-0.9629,-0.9493,-0.95,-0.9357,-0.9327,-0.9486,-0.9568,-0.9669,-0.9812,-0.9751,-0.971,-0.971,-0.9493,-0.9337,-0.9262,-0.9117,-0.9042,-0.9042,-0.9188,-0.9184,-0.9045,-0.9191,-0.9181,-1.4555,0.0,-1.5838,-1.5892,-1.6052,-1.6146,-1.5952,-1.5668,-1.514,-1.4166,-1.3006,-1.2294,-1.2287,-1.2323,-1.2384,-1.2567,-1.2598,-1.271,-1.2751,-1.2259,-1.1711,-1.0824,-1.0335,-0.9684,-0.88,-0.8733,-0.8726,-0.8676,-0.8554,-0.8411,-0.8245,-0.8343,-0.8353,-0.8241,-0.8235,-0.8231,-0.8231,-0.8102,-0.8038,-0.8038,-0.8038,-0.8038,-0.8038,-0.8038,-0.8038,-0.8038,-0.8038,-0.8038,-0.8038,-0.8038,-0.8038,-0.8038,-0.8038,-0.8221,-0.8482,-0.8482,-0.8676,-0.894,-0.894,-0.894,-0.894,-0.894,-0.9035,-0.9154,-0.9154,-0.9347,-0.9551,-0.9449,-0.9595,-1.0236,-1.2014,-1.257,-1.2693,-1.2928,-1.3981,-1.4316,-1.2098,-1.1984,-1.1807,-1.0339,-0.9958,-1.0007,-0.9795,-0.9822,-0.9822,-0.9822,-0.9822,-0.9822,-0.9822,-0.9696,-0.9571,-0.9466,-0.9435,-0.9418,-0.9418,-0.9557,-0.9686,-0.9778,-0.9805,-0.9812,-0.9785,-0.9696,-0.9574,-0.9422,-0.9269,-0.9191,-0.9195,-0.9347,-0.9344,-0.9198,-0.9351,-0.934,-1.5629,0.0,-1.5892,0.0,-1.6052,-1.5945,-1.6166,-1.5126,-1.407,-1.3974,-1.3776,-1.3307,-1.2181,-1.1991,-1.2001,-1.2031,-1.2036,-1.2102,-1.2394,-1.1241,-1.0458,-1.0707,-0.9514,-0.8751,-0.8696,-0.8828,-0.8798,-0.8533,-0.8492,-0.837,-0.8012,-0.8099,-0.8099,-0.7999,-0.8079,-0.8069,-0.8069,-0.8052,-0.8038,-0.8038,-0.8038,-0.8038,-0.8038,-0.8038,-0.8038,-0.8038,-0.8038,-0.8038,-0.8038,-0.8038,-0.8038,-0.8038,-0.8038,-0.8221,-0.8482,-0.8482,-0.8676,-0.894,-0.894,-0.894,-0.894,-0.894,-0.9035,-0.9154,-0.9154,-0.9273,-0.9435,-0.9547,-0.9608,-1.0368,-1.3452,-1.4222,-1.4599,-1.6015,-1.6463,-1.5494,-1.0981,-1.1242,-1.2158,-1.1736,-1.1699,-1.1292,-1.0034,-0.9822,-0.9822,-0.9822,-0.9822,-0.9822,-0.9822,-0.9696,-0.9649,-0.9751,-0.9652,-0.9581,-0.9581,-0.971,-0.9747,-0.9646,-0.9751,-0.9768,-0.9642,-0.9737,-0.9727,-0.9581,-0.9429,-0.9351,-0.9351,-0.9503,-0.95,-0.9354,-0.9507,-0.9496,-1.5832,-1.5952,-1.6112,0.0,-1.6172,-1.6112,-1.6246,-1.5647,-1.4949,-1.4949,-1.4949,-1.437,-1.2237,-1.1361,-1.0877,-1.0877,-1.019,-0.9731,-0.9909,-0.9363,-0.8973,-0.9116,-0.8713,-0.8391,-0.8459,-0.8526,-0.8509,-0.8374,-0.8282,-0.818,-0.7962,-0.8045,-0.8045,-0.7955,-0.8045,-0.8038,-0.8038,-0.8038,-0.8038,-0.8038,-0.8038,-0.8038,-0.8038,-0.8038,-0.8038,-0.8038,-0.8038,-0.8038,-0.8038,-0.8038,-0.8038,-0.8038,-0.8038,-0.8174,-0.8364,-0.8364,-0.8554,-0.8811,-0.8811,-0.8866,-0.894,-0.894,-0.8981,-0.9032,-0.9032,-0.9137,-0.9266,-0.9337,-0.9479,-1.0091,-1.2508,-1.3205,-1.3407,-1.4118,-1.4351,-1.3517,-1.0418,-1.1016,-1.1923,-1.0806,-1.0729,-1.0546,-0.9823,-0.9768,-0.9822,-0.9822,-0.9822,-0.9822,-0.9822,-0.9768,-0.9724,-0.9703,-0.9717,-0.9696,-0.9615,-0.9741,-0.9795,-0.973,-0.9785,-0.9791,-0.973,-0.971,-0.9673,-0.9612,-0.9544,-0.951,-0.951,-0.9578,-0.9574,-0.951,-0.9578,-0.9571,-1.5832,0.0,-1.6179,-1.6253,-1.6219,-1.6179,-1.6253,-1.6046,-1.5832,-1.5832,-1.5832,-1.5242,-1.321,-1.1843,-1.097,-1.097,-0.9899,-0.8924,-0.8528,-0.8825,-0.8726,-0.8038,-0.8772,-0.9075,-0.8371,-0.8607,-0.8717,-0.8374,-0.8163,-0.8082,-0.8048,-0.8041,-0.8041,-0.8048,-0.8041,-0.8038,-0.8038,-0.8038,-0.8038,-0.8038,-0.8038,-0.8038,-0.8038,-0.8038,-0.8038,-0.8038,-0.8038,-0.8038,-0.8038,-0.8038,-0.8038,-0.8038,-0.8038,-0.8133,-0.8272,-0.8272,-0.8431,-0.8659,-0.8696,-0.8784,-0.8889,-0.8927,-0.894,-0.894,-0.894,-0.9015,-0.9106,-0.9144,-0.9317,-0.9856,-1.1561,-1.2035,-1.2158,-1.2204,-1.2213,-1.1736,-1.0179,-1.0748,-1.1172,-0.9912,-0.972,-0.9744,-0.9676,-0.9751,-0.9822,-0.9822,-0.9822,-0.9822,-0.9822,-0.9822,-0.9781,-0.9676,-0.9758,-0.9764,-0.9622,-0.9741,-0.9805,-0.9771,-0.9802,-0.9822,-0.9822,-0.972,-0.9663,-0.9663,-0.9663,-0.9646,-0.9608,-0.9646,-0.9663,-0.9663,-0.9663,-0.9663,-1.5832,-1.5838,0.0,-1.6206,-1.6059,-1.5925,-1.6213,-1.6046,-1.5832,-1.5832,-1.5832,-1.573,-1.5635,-1.4561,-1.368,-1.368,-1.2522,-1.1263,-1.0096,-1.0974,-1.0779,-0.8333,-1.0354,-1.097,-0.8572,-0.9515,-0.9749,-0.8381,-0.8262,-0.8204,-0.7979,-0.7952,-0.8048,-0.7972,-0.7952,-0.8038,-0.8038,-0.8038,-0.8038,-0.8038,-0.8038,-0.8038,-0.8038,-0.8038,-0.8038,-0.8038,-0.8038,-0.8038,-0.8038,-0.8038,-0.8038,-0.8038,-0.8038,-0.8133,-0.8272,-0.8272,-0.8367,-0.8516,-0.8659,-0.8716,-0.8747,-0.8893,-0.894,-0.894,-0.894,-0.8944,-0.8977,-0.9117,-0.9164,-0.9692,-1.1491,-1.2055,-1.1993,-1.217,-1.2213,-1.1736,-1.0179,-0.9713,-0.9775,-0.9785,-0.9707,-0.9659,-0.9788,-0.9815,-0.9822,-0.9822,-0.9822,-0.9822,-0.9822,-0.9822,-0.9819,-0.9812,-0.9819,-0.9764,-0.9622,-0.9741,-0.9764,-0.9629,-0.9747,-0.9822,-0.9822,-0.9815,-0.9812,-0.9812,-0.9812,-0.9744,-0.9608,-0.9744,-0.9812,-0.9812,-0.9812,-0.9812,-1.5832,0.0,0.0,-1.6199,-1.6052,-1.5905,-1.6206,-1.6046,-1.5832,-1.5832,-1.5832,-1.5832,-1.5832,-1.4752,-1.3878,-1.3878,-1.2813,-1.175,-1.1263,-1.1658,-1.1263,-0.9509,-1.0151,-1.0095,-0.832,-0.8567,-0.8675,-0.8126,-0.8123,-0.8102,-0.7955,-0.8045,-0.8041,-0.7952,-0.8045,-0.8038,-0.8038,-0.8038,-0.8038,-0.8038,-0.7955,-0.7952,-0.8038,-0.7955,-0.7952,-0.8038,-0.8038,-0.8038,-0.8038,-0.8038,-0.8038,-0.8038,-0.8038,-0.8072,-0.8123,-0.8123,-0.8218,-0.8353,-0.8411,-0.8486,-0.8574,-0.8628,-0.8645,-0.8665,-0.8764,-0.8794,-0.8842,-0.9086,-0.9222,-0.9439,-1.012,-1.0417,-1.0587,-1.0646,-1.0583,-1.0423,-0.9923,-0.9781,-0.9761,-0.9812,-0.9781,-0.9761,-0.9812,-0.9822,-0.9822,-0.9822,-0.9822,-0.9822,-0.9822,-0.9822,-0.9822,-0.9822,-0.9822,-0.9798,-0.9747,-0.9791,-0.9798,-0.9747,-0.9791,-0.9822,-0.9822,-0.9734,-0.9686,-0.9686,-0.9686,-0.9703,-0.9744,-0.9795,-0.9822,-0.9822,-0.9822,-0.9822,-1.5832,-1.5832,-1.5879,-1.6072,-1.5979,-1.5879,-1.6079,-1.5972,-1.5832,-1.5832,-1.5832,-1.5832,-1.5832,-1.514,-1.4555,-1.4555,-1.3788,-1.3011,-1.2619,-1.2528,-1.194,-1.019,-1.0391,-0.9899,-0.8137,-0.8432,-0.8531,-0.8038,-0.8038,-0.8237,-0.8627,-0.8237,-0.8038,-0.8038,-0.8038,-0.8038,-0.8038,-0.8038,-0.8041,-0.7952,-0.7965,-0.7556,-0.6728,-0.7556,-0.7965,-0.8048,-0.8041,-0.8038,-0.8038,-0.8038,-0.8038,-0.8038,-0.8038,-0.8038,-0.8038,-0.8038,-0.8106,-0.8201,-0.8252,-0.8333,-0.8418,-0.8465,-0.8482,-0.8509,-0.8665,-0.871,-0.876,-0.9011,-0.9188,-0.9317,-0.9367,-0.9564,-0.9751,-0.9751,-0.968,-0.9635,-0.973,-0.9788,-0.9822,-0.9822,-0.9822,-0.9822,-0.9822,-0.9822,-0.9822,-0.9822,-0.9822,-0.9822,-0.9822,-0.9822,-0.9822,-0.9822,-0.9822,-0.9822,-0.9822,-0.9822,-0.9822,-0.9822,-0.9822,-0.9822,-0.9822,-0.973,-0.968,-0.968,-0.968,-0.9727,-0.9822,-0.9822,-0.9822,-0.9822,-0.9822,-0.9822,0.0,0.0,0.0,-1.5832,-1.5832,-1.5832,-1.5832,-1.5832,-1.5832,-1.5832,-1.5832,-1.5832,-1.5832,-1.5832,-1.5832,-1.5832,-1.5832,-1.5337,-1.4166,-1.3974,-1.3,-1.0386,-1.1165,-1.097,-0.8333,-0.9316,-0.9509,-0.8237,-0.8137,-0.8726,-0.9998,-0.8825,-0.8038,-0.8038,-0.8038,-0.8038,-0.8038,-0.8038,-0.7952,-0.7972,-0.7872,-0.6545,-0.4116,-0.6645,-0.7872,-0.7972,-0.8048,-0.8038,-0.8038,-0.8038,-0.8038,-0.8038,-0.8038,-0.8038,-0.8038,-0.8038,-0.8038,-0.8062,-0.8211,-0.8262,-0.8286,-0.8425,-0.8469,-0.8499,-0.8655,-0.8703,-0.8737,-0.8896,-0.9042,-0.9191,-0.9347,-0.949,-0.9595,-0.9612,-0.9608,-0.9605,-0.9612,-0.9724,-0.9819,-0.9819,-0.994,-0.994,-0.9819,-0.9819,-0.9822,-0.9822,-0.9822,-0.9822,-0.9822,-0.9822,-0.9822,-0.9822,-0.9822,-0.9822,-0.9822,-0.9822,-0.9822,-0.9822,-0.9822,-0.9822,-0.9822,-0.9822,-0.9822,-0.9822,-0.9822,-0.9822,-0.9822,-0.9822,-0.9822,-0.9822,-0.9822,-0.9822,-1.5832,0.0,0.0,0.0,0.0,0.0,-1.5832,-1.5832,-1.5832,-1.5832,-1.5832,-1.5832,-1.5832,-1.5832,-1.5832,-1.5832,-1.5832,-1.5635,-1.5343,-1.5242,-1.4657,-1.3006,-1.3102,-1.2716,-1.097,-1.1165,-1.1268,0.0,-1.0779,-1.0974,-1.1361,-1.0194,-0.9019,-0.8038,-0.8038,-0.8038,-0.8038,-0.8038,-0.7952,-0.7972,-0.6037,-0.472,-0.3915,-0.2711,-0.4323,-0.7972,-0.7965,-0.7955,-0.8038,-0.8038,-0.8038,-0.8038,-0.8038,-0.8038,-0.8038,-0.8038,-0.8038,-0.8045,-0.8089,-0.8102,-0.8109,-0.815,-0.816,-0.8208,-0.8469,-0.8547,-0.8601,-0.8866,-0.9042,-0.9215,-0.9479,-0.9337,-0.9232,-0.9659,-0.9598,-0.9503,-0.9717,-1.0748,-1.1499,-1.1499,-1.2453,-1.2928,-1.1736,-1.1499,-1.1137,-0.994,-0.9822,-0.9822,-0.9822,-0.9822,-0.9822,-0.9822,-0.9822,-0.9822,-0.9822,-0.9822,-0.9822,-0.9822,-0.9822,-0.9822,-0.9822,-0.9822,-0.9822,-0.9822,-0.9822,-0.9822,-0.9822,-0.9822,-0.9822,-0.9822,-0.9822,-0.9822,-1.5832,-1.5832,-1.5832,-1.5832,0.0,0.0,-1.5832,-1.5832,-1.5832,-1.5832,-1.5832,-1.5832,-1.5832,-1.5832,-1.5832,-1.5832,-1.5832,-1.5832,-1.5832,-1.5337,-1.4752,-1.3974,-1.3392,-1.2716,-1.1945,-1.1945,-1.1945,-1.1945,-1.1945,-1.1653,-1.117,-1.0386,-0.941,-0.8038,-0.8038,-0.8011,-0.7943,-0.8018,-0.8035,-0.7997,-0.6434,-0.4531,-0.2313,-0.0698,-0.2293,-0.6439,-0.7502,-0.8004,-0.8038,-0.8038,-0.8038,-0.8038,-0.8038,-0.8038,-0.8038,-0.8038,-0.8038,-0.8038,-0.8038,-0.8038,-0.8038,-0.8038,-0.8038,-0.8082,-0.8319,-0.8435,-0.8533,-0.8774,-0.8994,-0.9222,-0.953,-0.9367,-0.9211,-0.9554,-0.9554,-0.9507,-0.9612,-1.104,-1.2213,-1.2213,-1.2933,-1.3287,-1.2333,-1.1615,-1.0899,-0.994,-0.9822,-0.9822,-0.9822,-0.9822,-0.9822,-0.9822,-0.9822,-0.9822,-0.9822,-0.9822,-0.9822,-0.9822,-0.9822,-0.9822,-0.9822,-0.9822,-0.9822,-0.9822,-0.9822,-0.9822,-0.9822,-0.9822,-0.9822,-0.9822,-0.9822,-0.9822,-1.5832,-1.5832,-1.5832,-1.5832,-1.5832,0.0,-1.5832,-1.592,-1.6015,-1.6015,-1.6103,-1.6197,-1.6015,-1.6103,-1.6197,-1.6015,-1.6103,-1.6103,-1.5825,-1.4854,-1.407,-1.407,-1.3108,-1.2334,-1.2334,-1.2237,-1.2139,-1.2139,-1.1945,-1.1365,-1.0096,-0.9998,-0.941,-0.8038,-0.8038,-0.7977,-0.7841,-0.7895,-0.8018,-0.801,-0.8038,-0.5448,-0.0805,-0.0787,-0.2064,-0.4487,-0.6884,-0.7983,-0.7991,-0.8007,-0.8024,-0.8038,-0.8038,-0.8038,-0.8041,-0.8137,-0.8233,-0.8237,-0.8432,-0.8432,-0.8432,-0.8432,-0.8432,-0.846,-0.8624,-0.888,-0.8934,-0.9004,-0.9034,-0.9201,-0.9507,-0.9459,-0.9344,-0.9395,-0.9496,-0.9551,-0.9432,-1.0917,-1.2213,-1.2213,-1.2333,-1.2453,-1.2213,-1.102,-1.0061,-0.9819,-0.9822,-0.9822,-0.9822,-0.9822,-0.9822,-0.9822,-0.9822,-0.9822,-0.9822,-0.9822,-0.9822,-0.9822,-0.9822,-0.9822,-0.9822,-0.9805,-0.9805,-0.9822,-0.9822,-0.9822,-0.9822,-0.9822,-0.9822,-0.9822,-0.9822,-0.9822,-1.5832,-1.5832,-1.5832,-1.5832,-1.5832,0.0,-1.5832,-1.6574,-1.7318,-1.7318,-1.8133,-1.8488,-1.7498,-1.8133,-1.8495,-1.7498,-1.8133,-1.8118,-1.6103,-1.5635,-1.5439,-1.5439,-1.5242,-1.5051,-1.5051,-1.4076,-1.3488,-1.3488,-1.2528,-1.1365,-1.0096,-0.9998,-0.941,-0.8038,-0.8038,-0.8035,-0.7922,-0.7955,-0.7975,-0.7975,-0.7987,-0.7242,-0.5743,-0.5726,-0.6059,-0.673,-0.7285,-0.7573,-0.7695,-0.7811,-0.7929,-0.8038,-0.8038,-0.8038,-0.8137,-0.9217,-0.9608,-0.9805,-1.0779,-1.117,-1.117,-1.117,-1.117,-1.1208,-1.1411,-1.1614,-1.1648,-1.0849,-0.9805,-0.9049,-0.9351,-0.9228,-0.9117,-0.9479,-0.9493,-0.9452,-0.9544,-1.1002,-1.2213,-1.2213,-1.3292,-1.3765,-1.2453,-1.1976,-1.1257,-0.994,-0.9822,-0.9822,-0.9822,-0.9822,-0.9822,-0.9822,-0.9822,-0.9822,-0.9822,-0.9822,-0.9822,-0.9822,-0.9822,-0.9822,-0.9822,-0.971,-0.9703,-0.9819,-0.9822,-0.9822,-0.9822,-0.9822,-0.9822,-0.9822,-0.9822,-0.9822,-1.5832,-1.5832,-1.5832,-1.5832,-1.5832,0.0,0.0,-1.7225,-1.787,-1.8503,-1.9039,-1.9314,-1.868,-1.9131,-1.9314,-1.868,-1.9139,-1.8856,-1.7037,-1.6763,-1.648,-1.5927,-1.5832,-1.554,-1.4949,-1.4262,-1.3584,-1.2909,-1.1653,-1.0681,-0.9998,-0.941,-0.8726,-0.8038,-0.8048,-0.7987,-0.7848,-0.794,-0.7821,-0.7594,-0.7594,-0.7398,-0.7102,-0.8287,-0.88,-0.8644,-0.9393,-0.9569,-0.9359,-0.9539,-0.9669,-0.9664,-0.9182,-0.941,-0.9998,-1.0681,-1.0974,-1.1072,-1.1653,-1.1945,-1.1945,-1.1945,-1.1945,-1.197,-1.1978,-1.2334,-1.2378,-1.1432,-1.0626,-0.9962,-0.9453,-0.9215,-0.9198,-0.9347,-0.9439,-0.9496,-0.9496,-1.0256,-1.102,-1.102,-1.1619,-1.2213,-1.2213,-1.1499,-1.0781,-0.994,-0.9822,-0.9822,-0.9822,-0.9822,-0.9822,-0.9822,-0.9822,-0.9822,-0.9822,-0.9822,-0.9822,-0.9822,-0.9754,-0.9747,-0.9819,-0.9686,-0.9676,-0.9819,-0.9822,-0.9822,-0.9822,-0.9822,-0.9822,-0.9822,-0.9822,-0.9822,-1.573,-1.5635,-1.5534,-1.573,-1.6015,-1.648,0.0,0.0,0.0,-1.9679,-2.0034,-2.0124,-1.9852,-2.0034,-2.0133,-1.9852,-2.0034,-1.9679,-1.8234,-1.8056,-1.7498,-1.6015,-1.554,-1.5045,-1.3974,-1.3488,-1.2614,-1.1263,-1.019,-0.9608,-0.9608,-0.8627,-0.8038,-0.8038,-0.7959,-0.7638,-0.6988,-0.7318,-0.7363,-0.7121,-0.7101,-0.7234,-0.7611,-0.9866,-1.0481,-1.0021,-1.1361,-1.1642,-1.1136,-1.1397,-1.1691,-1.1811,-1.0794,-1.0974,-1.1945,-1.2237,-1.2334,-1.2334,-1.2528,-1.2624,-1.2624,-1.2624,-1.2528,-1.2349,-1.234,-1.2314,-1.2067,-1.1324,-1.099,-1.0551,-0.9479,-0.9225,-0.9273,-0.9174,-0.9344,-0.9496,-0.9401,-0.9591,-0.9788,-0.9815,-0.9822,-1.0179,-1.1499,-1.066,-0.9822,-0.9822,-0.9822,-0.9822,-0.9822,-0.9822,-0.9822,-0.9822,-0.9822,-0.9822,-0.9822,-0.9822,-0.9822,-0.9822,-0.9713,-0.97,-0.9815,-0.971,-0.969,-0.9778,-0.9805,-0.9822,-0.9822,-0.9822,-0.9822,-0.9822,-0.9822,-0.9822,-1.5534,-1.4949,-1.4364,-1.5534,-1.6669,-1.7498,-1.7692,0.0,-2.0935,-2.1025,0.0,-2.2403,-2.1293,0.0,0.0,-2.1293,-2.2031,-2.1863,-1.9588,-1.9314,-1.8395,-1.6103,-1.4752,-1.407,-1.3878,-1.1843,-0.9899,-0.8528,-0.8333,-0.8233,-0.8233,-0.8038,-0.8038,-0.8038,-0.8041,-0.6866,-0.4485,-0.5074,-0.601,-0.7076,-0.7003,-0.7759,-0.9245,-1.0957,-1.1276,-1.0532,-1.0967,-1.1143,-1.1105,-1.1528,-1.2366,-1.3344,-1.2149,-1.175,-1.2042,-1.3199,-1.368,-1.3878,-1.4956,-1.5343,-1.5343,-1.5343,-1.4561,-1.3767,-1.4119,-1.2557,-1.0728,-1.1,-1.0143,-0.921,-0.9233,-0.9069,-0.9018,-0.9127,-0.9178,-0.9239,-0.9354,-0.9513,-0.9673,-0.9795,-0.9822,-0.9822,-1.0061,-0.994,-0.9822,-0.9822,-0.9822,-0.9822,-0.9822,-0.9822,-0.9822,-0.9822,-0.9822,-0.9822,-0.9822,-0.9822,-0.9822,-0.9822,-0.9805,-0.9802,-0.9822,-0.9805,-0.9744,-0.9635,-0.9758,-0.9822,-0.9822,-0.9822,-0.9822,-0.9822,-0.9822,-0.9822,-1.5635,-1.5439,-1.5146,-1.5635,-1.6763,-1.787,-1.8596,-2.0034,-2.148,-2.2217,0.0,0.0,0.0,0.0,0.0,0.0,-2.1756,-2.1221,-1.8772,-1.8503,-1.777,-1.6015,-1.5337,-1.4752,-1.3974,-1.2231,-1.0877,-1.0288,-0.9608,-0.9118,-0.9118,-0.8432,-0.8038,-0.8038,-0.7952,-0.7448,-0.6162,-0.4899,-0.5873,-0.9158,-0.8649,-0.9305,-1.0848,-1.0983,-1.1413,-1.1849,-1.181,-1.2405,-1.3338,-1.3556,-1.4025,-1.467,-1.4266,-1.4178,-1.4274,-1.4758,-1.5045,-1.5045,-1.5635,-1.5832,-1.5635,-1.4949,-1.4364,-1.3876,-1.3472,-1.2597,-1.1553,-1.1216,-1.0745,-1.0043,-0.9255,-0.9045,-0.9055,-0.9032,-0.9093,-0.9171,-0.9235,-0.9439,-0.9629,-0.9686,-0.9764,-0.9822,-0.9822,-0.9822,-0.9822,-0.9822,-0.9822,-0.9822,-0.9822,-0.9822,-0.9822,-0.9822,-0.9822,-0.9822,-0.9822,-0.9822,-0.9822,-0.9822,-0.9822,-0.9785,-0.97,-0.9778,-0.9791,-0.9734,-0.9791,-0.9822,-0.9822,-0.9822,-0.9822,-0.9822,-0.9822,-0.9822,-1.573,-1.554,-1.5432,-1.6103,-1.7217,-1.8503,-1.9761,-2.0935,-2.2031,-2.295,-2.3135,0.0,0.0,0.0,-2.2677,-2.148,0.0,-2.0486,-1.8048,-1.7692,-1.7225,-1.592,-1.5534,-1.4758,-1.3494,-1.2431,-1.1823,-1.1758,-1.1035,-1.0462,-1.0405,-0.9575,-0.9118,-0.9118,-0.9034,-0.8901,-0.8509,-0.667,-0.7578,-1.1061,-1.0622,-1.0912,-1.1922,-1.1677,-1.2181,-1.3138,-1.3016,-1.3635,-1.4856,-1.5017,-1.5204,-1.5424,-1.5718,-1.5832,-1.5832,-1.5832,-1.5832,-1.5832,-1.5832,-1.5832,-1.5635,-1.4752,-1.3974,-1.3288,-1.2669,-1.2084,-1.1345,-1.0679,-1.0544,-1.0389,-0.9182,-0.9015,-0.9066,-0.8964,-0.9049,-0.9164,-0.9205,-0.9422,-0.9622,-0.9659,-0.972,-0.9764,-0.9764,-0.9795,-0.9822,-0.9822,-0.9822,-0.9822,-0.9822,-0.9822,-0.9822,-0.9822,-0.9822,-0.9822,-0.9822,-0.9822,-0.9822,-0.9822,-0.9822,-0.9774,-0.9673,-0.9768,-0.9822,-0.9822,-0.9822,-0.9822,-0.9822,-0.9822,-0.9822,-0.9822,-0.9822,-0.9822,-1.5439,-1.4854,-1.4543,-1.7023,-1.8588,-1.9761,-2.0935,-2.2217,-2.3047,-2.3047,-2.3135,-2.3135,-2.3135,-2.3135,-2.2677,-2.148,-2.1293,0.0,0.0,-1.7692,-1.7225,-1.592,-1.4752,-1.3392,-1.2042,-1.1945,-1.1758,-1.1532,-1.1722,-1.1753,-1.1427,-1.1631,-1.175,-1.175,-1.1755,-1.1342,-1.0518,-1.1109,-1.1693,-1.2333,-1.258,-1.2574,-1.2328,-1.347,-1.4004,-1.403,-1.4303,-1.4429,-1.4576,-1.515,-1.5391,-1.5424,-1.5718,-1.5832,-1.5832,-1.5832,-1.5832,-1.5832,-1.5832,-1.5832,-1.5825,-1.573,-1.3986,-1.2031,-1.2268,-1.0651,-0.8649,-0.8961,-0.894,-0.8944,-0.894,-0.8944,-0.8944,-0.894,-0.9049,-0.9195,-0.9344,-0.95,-0.9649,-0.9788,-0.9707,-0.9615,-0.9615,-0.973,-0.9822,-0.9822,-0.9822,-0.9822,-0.9822,-0.9822,-0.9822,-0.9822,-0.9822,-0.9822,-0.9822,-0.9822,-0.9822,-0.9822,-0.9822,-0.9819,-0.9815,-0.9819,-0.9822,-0.9822,-0.9822,-0.9822,-0.9822,-0.9822,-0.9822,-0.9822,-0.9822,-0.9822,0.0,0.0,-1.5615,-1.7311,-1.8596,-1.9852,-2.1025,-2.2217,-2.3135,-2.3135,-2.3135,-2.3135,-2.3135,-2.2492,-2.148,-2.0305,-1.9405,-1.8311,0.0,-1.648,-1.6292,-1.5825,-1.5439,-1.4949,-1.4561,-1.4306,-1.4239,-1.4319,-1.3478,-1.2987,-1.3065,-1.2287,-1.1945,-1.1945,-1.1945,-1.1737,-1.1313,-1.1601,-1.2128,-1.2948,-1.2821,-1.3118,-1.3739,-1.3199,-1.3582,-1.4656,-1.4596,-1.5203,-1.6238,-1.7356,-1.7266,-1.6485,-1.6908,-1.6574,-1.5832,-1.5832,-1.5832,-1.5832,-1.5832,-1.5832,-1.5662,-1.5061,-1.411,-1.3127,-1.2843,-1.2091,-1.1136,-1.0574,-1.0347,-1.0131,-0.9154,-0.894,-0.894,-0.894,-0.9049,-0.9167,-0.9218,-0.9432,-0.9625,-0.9673,-0.9642,-0.9608,-0.9608,-0.9649,-0.9683,-0.9683,-0.9761,-0.9822,-0.9822,-0.9822,-0.9822,-0.9822,-0.9822,-0.9822,-0.9822,-0.9822,-0.9822,-0.9822,-0.9822,-0.9822,-0.9822,-0.9822,-0.9822,-0.9822,-0.9822,-0.9822,-0.9822,-0.9822,-0.9822,-0.9822,-0.9822,-0.9822,-1.5832,-1.6109,0.0,-1.8048,-1.9222,-2.0486,-2.1667,-2.258,-2.296,-2.2589,-2.2775,-2.2862,-2.1952,-2.1569,-2.0755,-1.9131,-1.8234,-1.7225,0.0,-1.6204,-1.648,-1.648,-1.648,-1.625,-1.5685,-1.5964,-1.5996,-1.5524,-1.4765,-1.4333,-1.4413,-1.3736,-1.3307,-1.3307,-1.3307,-1.3228,-1.3159,-1.3159,-1.3368,-1.3857,-1.3764,-1.3938,-1.4362,-1.3578,-1.4067,-1.5476,-1.5423,-1.6213,-1.7621,-1.8637,-1.8329,-1.7108,-1.755,-1.6943,-1.5832,-1.5832,-1.5832,-1.5832,-1.5832,-1.5832,-1.5681,-1.5174,-1.4479,-1.3922,-1.3756,-1.3184,-1.2393,-1.1398,-1.1156,-1.0798,-0.9328,-0.8977,-0.895,-0.9001,-0.9086,-0.9184,-0.9293,-0.9469,-0.9608,-0.9608,-0.9564,-0.951,-0.9456,-0.9493,-0.9547,-0.9602,-0.973,-0.9822,-0.9822,-0.9822,-0.9822,-0.9822,-0.9822,-0.9822,-0.9822,-0.9822,-0.9822,-0.9822,-0.9822,-0.9822,-0.9822,-0.9822,-0.9846,-0.99,-0.9849,-0.9846,-0.99,-0.9846,-0.9822,-0.9822,-0.9822,-0.9822]},{"header":{"parameterUnit":"m.s-1","parameterCategory":1,"la1":30.6,"la2":29.2853,"lo1":-89.7004,"lo2":-87.6739,"dy":0.0162,"dx":0.0183,"nx":112,"ny":82,"refTime":"2023-08-10T06:00:00:Z","depth":0,"parameterNumber":3,"parameterNumberName":"V-component_of_WINDS"},"data":[0.0,0.0,0.0,0.0,0.0,0.0,0.0,0.0,0.0,0.0,0.0,0.0,0.0,0.0,0.0,0.0,0.0,0.0,0.0,0.0,0.0,0.0,0.0,0.0,0.0,0.0,0.0,0.0,0.0,0.0,0.0,0.0,0.0,0.0,0.0,0.0,0.0,0.0,0.0,0.0,0.0,0.0,0.0,0.0,0.0,0.0,0.0,0.0,0.0,0.0,0.0,0.0,0.0,0.0,0.0,0.0,0.0,0.0,0.0,0.0,0.0,0.0,0.0,0.0,0.0,0.0,0.0,0.0,0.0,0.0,0.0,0.0,0.0,0.0,0.0,0.0,0.0,0.0,0.0,0.0,0.0,0.0,0.0,0.0,0.0,0.0,0.0,0.0,0.0,0.0,-4.1001,-4.0727,-4.15,-4.2062,-4.2062,-4.265,-4.2923,-4.2824,0.0,0.0,0.0,0.0,0.0,0.0,0.0,0.0,0.0,0.0,0.0,0.0,0.0,0.0,0.0,0.0,0.0,0.0,0.0,0.0,0.0,0.0,0.0,0.0,0.0,0.0,0.0,0.0,0.0,0.0,0.0,0.0,0.0,0.0,0.0,0.0,0.0,0.0,0.0,0.0,0.0,0.0,0.0,0.0,0.0,0.0,0.0,0.0,0.0,0.0,0.0,0.0,0.0,0.0,0.0,0.0,0.0,0.0,0.0,0.0,0.0,0.0,0.0,0.0,0.0,0.0,0.0,0.0,0.0,0.0,0.0,0.0,0.0,0.0,0.0,0.0,0.0,0.0,0.0,0.0,0.0,0.0,0.0,0.0,0.0,0.0,0.0,0.0,0.0,0.0,0.0,0.0,0.0,0.0,0.0,0.0,0.0,0.0,0.0,0.0,0.0,0.0,0.0,0.0,-4.1592,-4.2844,-4.3121,-4.3232,-4.3232,-4.3341,-4.3414,-4.3375,0.0,0.0,0.0,0.0,0.0,0.0,0.0,0.0,0.0,0.0,0.0,0.0,0.0,0.0,0.0,0.0,0.0,0.0,0.0,0.0,0.0,0.0,0.0,0.0,0.0,0.0,0.0,0.0,0.0,0.0,0.0,0.0,0.0,0.0,0.0,0.0,0.0,0.0,0.0,0.0,0.0,0.0,0.0,0.0,0.0,0.0,0.0,0.0,0.0,0.0,0.0,0.0,0.0,0.0,0.0,0.0,0.0,0.0,0.0,0.0,0.0,0.0,0.0,0.0,0.0,0.0,0.0,0.0,0.0,0.0,0.0,0.0,0.0,0.0,0.0,0.0,0.0,0.0,0.0,0.0,0.0,0.0,0.0,0.0,0.0,0.0,0.0,0.0,0.0,0.0,0.0,0.0,0.0,0.0,0.0,0.0,0.0,0.0,0.0,0.0,0.0,0.0,0.0,-4.1515,-4.2194,-4.3369,-4.3497,-4.3497,-4.3497,-4.3497,-4.3497,-4.3497,-4.3597,0.0,0.0,0.0,0.0,0.0,0.0,0.0,0.0,0.0,0.0,0.0,0.0,0.0,0.0,0.0,0.0,0.0,0.0,0.0,0.0,0.0,0.0,0.0,0.0,0.0,0.0,0.0,0.0,0.0,0.0,0.0,0.0,0.0,0.0,0.0,0.0,0.0,0.0,0.0,0.0,0.0,0.0,0.0,0.0,0.0,0.0,0.0,0.0,0.0,0.0,0.0,0.0,0.0,0.0,0.0,0.0,0.0,0.0,0.0,0.0,0.0,0.0,0.0,0.0,0.0,0.0,0.0,0.0,0.0,0.0,0.0,0.0,0.0,0.0,0.0,0.0,0.0,0.0,0.0,0.0,0.0,0.0,0.0,0.0,0.0,0.0,0.0,0.0,0.0,0.0,0.0,0.0,0.0,0.0,0.0,0.0,0.0,0.0,0.0,0.0,0.0,0.0,-4.247,-4.2784,-4.3266,-4.3286,-4.325,-4.3105,-4.2941,-4.2977,-4.3286,-4.3138,0.0,0.0,0.0,0.0,0.0,0.0,0.0,0.0,0.0,0.0,0.0,0.0,0.0,0.0,0.0,0.0,0.0,0.0,0.0,0.0,0.0,0.0,0.0,0.0,0.0,0.0,0.0,0.0,0.0,0.0,0.0,0.0,0.0,0.0,0.0,0.0,0.0,0.0,0.0,0.0,0.0,0.0,0.0,0.0,0.0,0.0,0.0,0.0,0.0,0.0,0.0,0.0,0.0,0.0,0.0,0.0,0.0,0.0,0.0,0.0,0.0,0.0,0.0,0.0,0.0,0.0,0.0,0.0,0.0,0.0,0.0,0.0,0.0,0.0,0.0,0.0,0.0,0.0,0.0,0.0,0.0,0.0,0.0,0.0,0.0,0.0,0.0,0.0,0.0,0.0,0.0,0.0,0.0,0.0,0.0,0.0,0.0,0.0,0.0,0.0,0.0,0.0,-4.2947,-4.3231,-4.2808,-4.275,-4.2519,-4.1979,-4.1304,-4.1417,-4.2696,-4.2029,0.0,0.0,0.0,0.0,0.0,0.0,0.0,0.0,0.0,0.0,0.0,0.0,0.0,0.0,0.0,0.0,0.0,0.0,0.0,0.0,0.0,0.0,0.0,0.0,0.0,0.0,0.0,0.0,0.0,0.0,0.0,0.0,0.0,0.0,0.0,0.0,0.0,0.0,0.0,0.0,0.0,0.0,0.0,0.0,0.0,0.0,0.0,0.0,0.0,0.0,0.0,0.0,0.0,0.0,0.0,0.0,0.0,0.0,0.0,0.0,0.0,0.0,0.0,0.0,0.0,0.0,0.0,0.0,0.0,0.0,0.0,0.0,0.0,0.0,0.0,0.0,0.0,0.0,0.0,0.0,0.0,0.0,0.0,0.0,0.0,0.0,0.0,0.0,0.0,0.0,0.0,0.0,0.0,0.0,0.0,0.0,0.0,0.0,0.0,0.0,0.0,0.0,-4.2468,-4.277,-4.2203,-4.2121,-4.2038,-4.181,-4.1545,-4.1618,-4.2103,0.0,0.0,0.0,0.0,0.0,0.0,0.0,0.0,0.0,0.0,0.0,0.0,0.0,0.0,0.0,0.0,0.0,0.0,0.0,0.0,0.0,0.0,0.0,0.0,0.0,0.0,0.0,0.0,0.0,0.0,0.0,0.0,0.0,0.0,0.0,0.0,0.0,0.0,0.0,0.0,0.0,0.0,0.0,0.0,0.0,0.0,0.0,0.0,0.0,0.0,0.0,0.0,0.0,0.0,0.0,0.0,0.0,0.0,0.0,0.0,0.0,0.0,0.0,0.0,0.0,0.0,0.0,0.0,0.0,0.0,0.0,0.0,0.0,0.0,0.0,0.0,0.0,0.0,0.0,0.0,0.0,0.0,0.0,0.0,0.0,0.0,0.0,0.0,0.0,0.0,0.0,0.0,0.0,0.0,0.0,0.0,0.0,0.0,0.0,0.0,0.0,0.0,-4.16,-4.2042,-4.2269,-4.1947,-4.1648,-4.1552,-4.159,-4.1171,-4.1068,-4.1473,0.0,0.0,0.0,0.0,0.0,0.0,0.0,0.0,0.0,0.0,0.0,0.0,0.0,0.0,0.0,0.0,0.0,0.0,0.0,0.0,0.0,0.0,0.0,0.0,0.0,0.0,0.0,0.0,0.0,0.0,0.0,0.0,0.0,0.0,0.0,0.0,0.0,0.0,0.0,0.0,0.0,0.0,0.0,0.0,0.0,0.0,0.0,0.0,0.0,0.0,0.0,0.0,0.0,0.0,0.0,0.0,0.0,0.0,0.0,0.0,0.0,0.0,0.0,0.0,0.0,0.0,0.0,0.0,0.0,0.0,0.0,0.0,0.0,0.0,0.0,0.0,0.0,0.0,0.0,0.0,0.0,0.0,0.0,0.0,0.0,0.0,0.0,0.0,0.0,0.0,0.0,0.0,0.0,0.0,0.0,0.0,0.0,0.0,0.0,0.0,0.0,0.0,-4.1853,-4.181,-4.1868,-4.2064,-4.1375,-4.0982,-4.1188,-3.9851,-3.9569,0.0,0.0,0.0,0.0,0.0,0.0,0.0,0.0,0.0,0.0,0.0,0.0,0.0,0.0,0.0,0.0,0.0,0.0,0.0,0.0,0.0,0.0,0.0,0.0,0.0,0.0,0.0,0.0,0.0,0.0,0.0,0.0,0.0,0.0,0.0,0.0,0.0,0.0,0.0,0.0,0.0,0.0,0.0,0.0,0.0,0.0,0.0,0.0,0.0,0.0,0.0,0.0,0.0,0.0,0.0,0.0,0.0,0.0,0.0,0.0,0.0,0.0,0.0,0.0,0.0,0.0,0.0,0.0,0.0,0.0,0.0,0.0,0.0,0.0,0.0,0.0,0.0,0.0,0.0,0.0,0.0,0.0,0.0,0.0,0.0,0.0,0.0,0.0,0.0,0.0,0.0,0.0,0.0,0.0,0.0,0.0,0.0,0.0,0.0,0.0,0.0,0.0,0.0,-4.2026,-4.2004,-4.2064,-4.2211,-4.204,-4.1682,-4.1221,-4.0798,-4.051,-4.0353,0.0,0.0,0.0,0.0,0.0,0.0,0.0,0.0,0.0,0.0,0.0,0.0,0.0,0.0,0.0,0.0,0.0,0.0,0.0,0.0,0.0,0.0,0.0,0.0,0.0,0.0,0.0,0.0,0.0,0.0,0.0,0.0,0.0,0.0,0.0,0.0,0.0,0.0,0.0,0.0,0.0,0.0,0.0,0.0,0.0,0.0,0.0,0.0,0.0,0.0,0.0,0.0,0.0,0.0,0.0,0.0,0.0,0.0,0.0,0.0,0.0,0.0,0.0,0.0,0.0,0.0,0.0,0.0,0.0,0.0,0.0,0.0,0.0,0.0,0.0,0.0,0.0,0.0,0.0,0.0,0.0,0.0,0.0,0.0,0.0,0.0,0.0,0.0,0.0,0.0,0.0,0.0,0.0,0.0,0.0,0.0,0.0,0.0,0.0,0.0,0.0,0.0,-4.2077,-4.1908,-4.2022,-4.2678,-4.2472,-4.2117,-4.1677,-4.1614,-4.1237,-4.0468,0.0,0.0,0.0,0.0,0.0,0.0,0.0,0.0,0.0,0.0,0.0,0.0,0.0,0.0,0.0,0.0,0.0,0.0,0.0,0.0,0.0,0.0,0.0,0.0,0.0,0.0,0.0,0.0,0.0,0.0,0.0,0.0,0.0,0.0,0.0,0.0,0.0,0.0,0.0,0.0,0.0,0.0,0.0,0.0,0.0,0.0,0.0,0.0,0.0,0.0,0.0,0.0,0.0,0.0,0.0,0.0,0.0,0.0,0.0,0.0,0.0,0.0,0.0,0.0,0.0,0.0,0.0,0.0,0.0,0.0,0.0,0.0,0.0,0.0,0.0,0.0,0.0,0.0,0.0,0.0,0.0,0.0,0.0,0.0,0.0,0.0,0.0,0.0,0.0,0.0,0.0,0.0,0.0,0.0,0.0,0.0,0.0,0.0,0.0,0.0,0.0,0.0,-4.2163,-4.1681,-4.188,-4.3369,-4.2949,-4.2545,-4.2409,-4.2341,-4.1886,-4.1047,0.0,0.0,0.0,0.0,0.0,0.0,0.0,0.0,0.0,0.0,0.0,0.0,0.0,0.0,0.0,0.0,0.0,0.0,0.0,0.0,0.0,0.0,0.0,0.0,0.0,0.0,0.0,0.0,0.0,0.0,0.0,0.0,0.0,0.0,0.0,0.0,0.0,0.0,0.0,0.0,0.0,0.0,0.0,0.0,0.0,0.0,0.0,0.0,0.0,0.0,0.0,0.0,0.0,0.0,0.0,0.0,0.0,0.0,0.0,0.0,-4.158,-4.0747,0.0,0.0,0.0,0.0,0.0,0.0,0.0,0.0,0.0,0.0,0.0,0.0,0.0,0.0,0.0,0.0,0.0,0.0,0.0,0.0,0.0,0.0,0.0,0.0,0.0,0.0,0.0,0.0,0.0,0.0,0.0,0.0,0.0,0.0,0.0,0.0,0.0,0.0,0.0,0.0,-4.2777,-4.245,-4.2642,-4.4164,-4.4658,-4.4354,-4.3097,-4.3436,-4.3057,-4.1709,-4.2162,0.0,0.0,0.0,0.0,0.0,0.0,0.0,0.0,0.0,0.0,0.0,0.0,0.0,0.0,0.0,0.0,0.0,0.0,0.0,0.0,0.0,0.0,0.0,0.0,0.0,0.0,0.0,0.0,0.0,0.0,0.0,0.0,0.0,0.0,0.0,0.0,0.0,0.0,0.0,0.0,0.0,0.0,0.0,0.0,0.0,0.0,0.0,0.0,0.0,0.0,0.0,0.0,0.0,0.0,0.0,0.0,0.0,0.0,0.0,-4.3859,-4.2929,0.0,0.0,0.0,0.0,0.0,0.0,0.0,0.0,0.0,0.0,0.0,0.0,0.0,0.0,0.0,0.0,0.0,0.0,0.0,0.0,0.0,0.0,0.0,0.0,0.0,0.0,0.0,0.0,0.0,0.0,0.0,0.0,0.0,0.0,0.0,0.0,0.0,0.0,0.0,0.0,-4.4403,-4.3772,-4.3902,-4.5875,-4.6009,-4.5443,-4.4318,-4.4432,-4.4025,-4.2869,-4.3123,0.0,0.0,0.0,0.0,0.0,0.0,0.0,0.0,0.0,0.0,0.0,0.0,0.0,0.0,0.0,0.0,0.0,0.0,0.0,0.0,0.0,0.0,0.0,0.0,0.0,0.0,0.0,0.0,0.0,0.0,0.0,0.0,0.0,0.0,0.0,0.0,0.0,0.0,0.0,0.0,0.0,0.0,0.0,0.0,0.0,0.0,0.0,0.0,0.0,0.0,0.0,0.0,0.0,-4.7428,-4.7606,-4.7767,-4.7767,-4.7885,-4.795,-4.7472,-4.6476,-4.5154,-4.4463,0.0,0.0,0.0,0.0,0.0,0.0,0.0,0.0,0.0,0.0,0.0,0.0,0.0,0.0,0.0,0.0,0.0,0.0,0.0,0.0,0.0,0.0,-4.6929,-4.7609,-4.7791,-4.7306,-4.533,0.0,0.0,0.0,0.0,0.0,0.0,0.0,0.0,0.0,0.0,0.0,-4.5941,-4.5213,-4.5315,-4.747,-4.7128,-4.6394,-4.5516,-4.5414,-4.5001,-4.4175,-4.4192,-4.4061,0.0,0.0,0.0,0.0,0.0,0.0,0.0,0.0,0.0,0.0,0.0,0.0,0.0,0.0,0.0,0.0,0.0,0.0,0.0,0.0,0.0,0.0,0.0,0.0,0.0,0.0,0.0,0.0,0.0,0.0,0.0,0.0,-4.4233,-4.4294,0.0,0.0,0.0,0.0,0.0,0.0,0.0,0.0,0.0,0.0,0.0,0.0,0.0,-4.6969,-4.6598,-4.7971,-4.8657,-4.8731,-5.0016,-5.0969,-5.1689,-5.1689,-5.1986,-5.2676,-5.3168,0.0,-4.7471,-4.7307,0.0,0.0,0.0,0.0,0.0,0.0,0.0,0.0,0.0,0.0,0.0,0.0,0.0,0.0,0.0,0.0,0.0,0.0,0.0,0.0,0.0,0.0,-5.0178,-5.0288,-4.9808,-4.9237,-4.8925,-4.7157,-4.5525,-4.5026,-4.4485,-4.4201,0.0,0.0,0.0,0.0,0.0,0.0,-4.6104,-4.6204,-4.6566,-4.7576,-4.8064,-4.7687,-4.6212,-4.6524,-4.6323,-4.5111,-4.5053,-4.4864,-4.4484,-4.4406,0.0,0.0,0.0,0.0,0.0,0.0,0.0,0.0,0.0,0.0,0.0,0.0,0.0,0.0,0.0,0.0,0.0,0.0,0.0,0.0,0.0,0.0,0.0,0.0,0.0,0.0,0.0,0.0,0.0,-4.4893,-4.5461,-4.417,-4.4819,-4.5021,0.0,0.0,0.0,0.0,0.0,0.0,0.0,0.0,0.0,-4.8497,-4.924,-4.9954,-5.0557,-5.1606,-5.2374,-5.2752,-5.3421,-5.3894,-5.4261,-5.4261,-5.4433,-5.477,-5.558,-5.4776,-5.2837,-5.1081,-5.0321,-5.0049,0.0,0.0,0.0,0.0,-4.9554,-5.0016,-5.1212,-5.1621,-5.1677,-5.2209,0.0,0.0,0.0,0.0,0.0,0.0,0.0,-5.0445,-5.102,-5.2034,-5.3061,-5.351,-5.3288,-5.3026,-5.3026,-5.1323,-4.9249,-4.737,-4.7411,-4.7299,-4.5804,-4.522,0.0,0.0,0.0,-4.6397,-4.7901,-4.7959,-4.8309,-4.9588,-4.9324,-4.8804,-4.8116,-4.7448,-4.6819,-4.625,-4.5545,-4.499,-4.4624,-4.4781,-4.4781,0.0,0.0,0.0,0.0,0.0,0.0,0.0,0.0,0.0,0.0,0.0,0.0,0.0,0.0,0.0,0.0,0.0,0.0,0.0,0.0,0.0,0.0,0.0,0.0,0.0,0.0,0.0,0.0,-4.6563,-4.6979,-4.441,-4.6287,-4.6873,0.0,0.0,0.0,0.0,0.0,0.0,-4.8394,-4.9034,-4.9915,-5.1183,-5.1978,-5.3024,-5.4328,-5.4873,-5.5578,-5.6342,-5.6115,-5.6122,-5.6306,-5.6093,-5.6114,-5.6331,-5.6946,-5.7184,-5.6971,-5.4313,-5.323,-5.3152,-5.1559,-5.1307,-5.1962,-5.2469,-5.2786,-5.3197,-5.4727,-5.5283,-5.5282,-5.54,-5.5322,-5.4887,-5.3414,0.0,0.0,0.0,0.0,-5.2492,-5.3929,-5.478,-5.5372,-5.5945,-5.5875,-5.5648,-5.5441,-5.4421,-5.2742,-5.0062,-5.0232,-5.0102,-4.7844,-4.6983,0.0,-4.6301,-4.715,-4.8389,-4.9991,-4.9887,-5.0146,-5.1327,-5.0479,-4.973,-4.9522,-4.8372,-4.7494,-4.7186,-4.6254,-4.5468,-4.4872,-4.5096,-4.5118,-4.4853,0.0,0.0,0.0,0.0,0.0,0.0,0.0,0.0,0.0,0.0,0.0,0.0,0.0,0.0,0.0,0.0,0.0,0.0,0.0,0.0,0.0,0.0,0.0,0.0,0.0,0.0,0.0,0.0,0.0,-4.6139,-4.9958,0.0,0.0,0.0,0.0,-4.8355,-4.7822,-4.848,-5.07,-5.0969,-5.2063,-5.4296,-5.5091,-5.586,-5.6737,-5.6789,-5.7234,-5.8043,-5.7246,-5.7255,-5.7924,-5.7185,-5.7234,-5.7886,-5.7932,-5.7932,-5.7804,-5.6153,-5.5896,-5.6363,-5.4459,-5.4187,-5.4858,-5.4581,-5.495,-5.563,-5.5724,-5.5775,-5.6021,-5.7517,-5.7498,-5.6719,-5.5882,-5.5051,0.0,0.0,-5.4956,-5.5769,-5.6587,-5.6852,-5.687,-5.6842,-5.6257,-5.5497,-5.4729,-5.4484,-5.4145,-5.3132,-5.1786,-5.0975,-5.1598,0.0,-5.0495,-5.0514,-5.1194,-5.1779,-5.1862,-5.1881,-5.1869,-5.1944,-5.1171,-5.0323,-4.9579,-4.9428,-4.887,-4.7658,-4.7453,-4.6825,-4.5608,-4.5568,-4.5568,-4.555,-4.555,0.0,0.0,0.0,0.0,0.0,0.0,0.0,0.0,0.0,0.0,0.0,0.0,0.0,0.0,0.0,0.0,0.0,0.0,0.0,0.0,0.0,0.0,0.0,0.0,0.0,0.0,0.0,0.0,-4.9926,-5.1814,0.0,-5.0422,-5.0378,-5.0602,-5.0806,-5.1158,-5.2149,-5.3919,-5.4984,-5.6159,-5.7465,-5.8276,-5.8852,-5.9134,-5.9134,-5.9317,-5.9593,-5.8769,-5.8536,-5.8781,-5.7978,-5.7726,-5.8042,-5.8307,-5.8461,-5.8447,-5.818,-5.8045,-5.7965,-5.7585,-5.7616,-5.7841,-5.7714,-5.7857,-5.8155,-5.8463,-5.8555,-5.8633,-5.8929,-5.8494,-5.7767,-5.7506,-5.6818,-5.6359,-5.743,-5.7583,-5.7717,-5.9094,-5.9458,-5.9439,-5.9412,-5.8743,-5.8054,-5.7767,-5.6869,-5.6008,-5.5708,-5.385,-5.2251,-5.2035,-5.1518,-5.1068,-5.0828,-5.1726,-5.2475,-5.2734,-5.257,-5.2379,-5.2379,-5.137,-5.0344,-4.9503,-4.8911,-4.8171,-4.7222,-4.6589,-4.6071,-4.5624,-4.5586,-4.5586,-4.5586,-4.5586,-4.5586,0.0,0.0,0.0,0.0,0.0,0.0,0.0,0.0,0.0,0.0,0.0,0.0,0.0,0.0,0.0,0.0,0.0,0.0,0.0,0.0,0.0,0.0,0.0,0.0,0.0,-5.1202,-5.2696,-5.2055,-5.4383,-5.5305,-5.3369,-5.3797,-5.4163,-5.4164,-5.4724,-5.5606,-5.6862,-5.7855,-5.8788,-5.9556,-6.0086,-6.0537,-6.082,-6.082,-6.092,-6.1171,-6.01,-5.9675,-5.978,-5.8755,-5.8307,-5.8484,-5.8796,-5.8951,-5.8971,-5.9424,-5.9458,-5.9176,-5.9492,-5.9644,-5.9644,-5.9804,-5.9885,-5.9916,-6.0236,-6.0338,-6.0288,-6.0018,-5.9588,-5.9146,-5.9146,-5.8742,-5.8511,-5.9627,-5.955,-5.9396,-6.0512,-6.08,-6.0723,-6.0435,-5.9704,-5.9011,-5.8723,-5.778,-5.6896,-5.6607,-5.5186,-5.3859,-5.3335,-5.2984,-5.2714,-5.2494,-5.3137,-5.3735,-5.4001,-5.3321,-5.2796,-5.2796,-5.154,-5.0337,-4.9471,-4.9144,-4.8375,-4.699,-4.6605,-4.6182,-4.5605,-4.5586,-4.5586,-4.5586,-4.5586,-4.5586,-4.5586,0.0,0.0,0.0,0.0,0.0,0.0,0.0,0.0,0.0,0.0,0.0,0.0,0.0,0.0,0.0,0.0,0.0,0.0,0.0,0.0,0.0,0.0,0.0,-5.0505,-5.3701,-5.5229,-5.2624,-5.785,-6.0157,-5.6313,-5.8753,-5.9921,-5.8391,-5.8337,-5.8598,-5.9306,-5.9342,-5.9696,-6.0379,-6.0476,-6.082,-6.1659,-6.1659,-6.2023,-6.2787,-6.1172,-6.0656,-6.1037,-5.944,-5.8971,-5.9389,-5.9443,-5.9424,-5.9458,-5.9916,-6.0132,-6.0132,-6.0132,-6.0132,-6.0161,-6.0622,-6.08,-6.08,-6.08,-6.0781,-6.0762,-6.0762,-6.0742,-6.0723,-6.0723,-6.0704,-6.0685,-6.0742,-6.0723,-6.0704,-6.0781,-6.0762,-6.0512,-5.9685,-5.8896,-5.8069,-5.7223,-5.7011,-5.6742,-5.5895,-5.5722,-5.5703,-5.5703,-5.5703,-5.5703,-5.5703,-5.5703,0.0,-5.5665,-5.4222,-5.3203,-5.3203,-5.1702,-5.0337,-4.9471,-5.0144,-4.9529,-4.7028,-4.7586,-4.7298,-4.5663,-4.5586,-4.5586,-4.5586,-4.5586,-4.5586,-4.5586,0.0,0.0,0.0,0.0,0.0,0.0,0.0,0.0,0.0,0.0,0.0,0.0,0.0,0.0,0.0,0.0,0.0,0.0,0.0,0.0,0.0,-5.3302,-5.4964,-5.4518,-5.6718,-5.8722,-5.9703,-6.1379,-6.2259,-6.1786,-6.1991,-6.1732,-6.0724,-6.0671,-6.0511,-6.0114,-6.0675,-6.107,-6.1286,-6.186,-6.2271,-6.2446,-6.2446,-6.2567,-6.2787,-6.1505,-6.1001,-6.1037,-5.9797,-5.9284,-5.9424,-5.9741,-5.9916,-5.9946,-6.0411,-6.0622,-6.0622,-6.0622,-6.0622,-6.0622,-6.0757,-6.08,-6.08,-6.08,-6.0396,-5.9858,-5.9858,-5.9454,-5.8992,-5.8992,-5.855,-5.83,-5.9511,-5.8973,-5.8454,-6.0319,-5.9896,-5.9069,-5.9415,-5.8896,-5.8223,-5.7992,-5.7453,-5.6915,-5.6684,-5.6126,-5.5703,-5.5703,-5.5703,-5.5703,-5.5703,-5.5703,-5.5491,-5.4895,-5.3876,-5.3203,-5.3203,-5.1702,-5.0337,-4.9471,-4.9048,-4.799,-4.6086,-4.6163,-4.6067,-4.5605,-4.5586,-4.5586,-4.5586,-4.5586,-4.5586,0.0,0.0,0.0,0.0,0.0,0.0,0.0,0.0,0.0,0.0,0.0,0.0,0.0,0.0,0.0,0.0,0.0,0.0,0.0,0.0,0.0,0.0,-5.5882,-5.7771,-5.8744,-5.9642,-6.0731,-6.2126,-6.2923,-6.3348,-6.3457,-6.3396,-6.2965,-6.2173,-6.2101,-6.1903,-6.1454,-6.1842,-6.2076,-6.2076,-6.2763,-6.3139,-6.3139,-6.3363,-6.3479,-6.3461,-6.2402,-6.1861,-6.1676,-6.0694,-6.0165,-5.9996,-6.0264,-6.0411,-6.0411,-6.069,-6.08,0.0,0.0,0.0,0.0,0.0,-5.9742,-5.9742,-5.9742,-5.9646,-5.9435,-5.9108,-5.8915,-5.8742,-5.8396,-5.7953,-5.7742,-5.8723,-5.83,-5.7896,-5.9377,-5.9031,-5.8415,-5.8896,-5.8357,-5.7761,-5.7761,-5.7357,-5.6876,-5.653,-5.6338,0.0,-5.5761,-5.5703,-5.5703,-5.5703,-5.5703,-5.5415,-5.4607,-5.3741,-5.3068,-5.2702,-5.1471,-5.0202,-4.8952,-4.8721,0.0,0.0,0.0,-4.597,-4.5605,-4.5586,0.0,0.0,0.0,-4.5586,-4.5586,0.0,0.0,0.0,-4.5586,-4.5419,0.0,0.0,0.0,0.0,0.0,0.0,0.0,0.0,0.0,0.0,0.0,0.0,0.0,0.0,0.0,0.0,-5.8561,-6.0406,-6.2652,-6.2387,-6.1953,-6.1979,-6.3319,-6.3925,-6.3172,-6.3778,-6.387,-6.3025,-6.2983,-6.2941,-6.2757,-6.2861,0.0,0.0,0.0,-6.368,-6.368,-6.4157,-6.4389,-6.437,-6.3576,-6.2955,-6.2571,-6.1821,-6.1234,-6.08,-6.08,-6.08,-6.08,-6.08,-6.0742,-6.0569,-5.98,-5.9492,-5.9396,-5.8607,-5.83,-5.83,-5.83,0.0,0.0,-5.8396,-5.8569,-5.8934,-5.8223,-5.8011,-5.803,-5.8127,-5.8088,-5.805,-5.8261,-5.8146,-5.803,-5.8127,-5.7492,-5.6838,-5.6838,-5.6838,-5.6646,-5.5972,-5.6376,-5.6626,-5.5953,-5.5761,-5.5703,-5.5703,-5.5703,-5.5415,-5.4607,-5.3741,-5.2895,-5.2145,0.0,0.0,-4.8394,-4.8875,-4.8202,-4.574,-4.6336,-4.6413,-4.5624,-4.5586,-4.5586,-4.5586,-4.5586,-4.5586,-4.5586,-4.5586,-4.5586,-4.5586,-4.5586,-4.5419,0.0,0.0,0.0,0.0,0.0,0.0,0.0,0.0,0.0,0.0,0.0,0.0,0.0,0.0,0.0,-5.903,-6.1045,-6.2746,-6.3949,-6.3967,-6.4027,-6.4503,-6.4879,-6.5007,-6.4842,-6.4971,-6.4732,-6.3906,-6.4214,-6.3843,-6.2461,-6.3458,-6.3759,-6.3083,-6.3839,-6.4236,-6.4236,-6.4351,-6.4389,-6.437,-6.3911,0.0,-6.2601,-6.2149,-6.1541,-6.08,-6.08,-6.08,-6.08,-6.08,-6.0396,-5.9723,-5.9569,-5.9492,-5.9396,-5.8607,-5.83,-5.83,-5.83,-5.7934,-5.7453,-5.73,-5.6876,-5.6415,-5.6242,-5.6203,0.0,-5.7049,-5.6742,-5.653,-5.7934,-5.7261,-5.6376,-5.7069,-5.6588,-5.5953,-5.5953,-5.5953,-5.6107,-5.6626,-5.6319,-5.6107,-5.6646,-5.6165,-5.5703,-5.5703,-5.5703,-5.5415,-5.4607,-5.3741,-5.3145,-5.2972,-5.1606,-5.0279,-4.924,-4.8663,-4.7567,-4.572,-4.5759,-4.5778,-4.5605,-4.5586,-4.5586,-4.5586,-4.5586,-4.5586,-4.5586,-4.5586,-4.5586,-4.5586,-4.5586,-4.5419,0.0,0.0,0.0,0.0,0.0,0.0,0.0,0.0,0.0,0.0,0.0,-5.4432,-5.6069,0.0,-5.9007,-6.1503,-6.2591,-6.3558,-6.4823,-6.4653,-6.4498,-6.4793,-6.486,-6.486,-6.486,-6.486,-6.4692,-6.4283,-6.4468,-6.4241,-6.3416,-6.403,-6.42,-6.3766,-6.4417,-6.4731,-6.4731,-6.5022,-6.5137,-6.5118,-6.4508,-6.377,-6.2946,-6.2362,-6.1608,-6.08,-6.08,-6.08,-6.08,-6.08,-6.0281,-5.9454,-5.9069,-5.8627,-5.8146,-5.73,-5.6992,-5.6992,-5.6992,-5.6992,-5.6915,-5.6492,-5.6338,-5.6261,-5.5818,-5.5703,-5.578,-5.6222,-5.603,-5.5895,-5.6761,-5.6357,-5.5799,-5.6242,-5.6011,-5.5703,-5.5703,-5.5703,-5.5818,-5.6261,-5.5992,-5.5838,-5.6261,-5.5992,-5.5703,-5.5703,-5.5703,-5.5415,-5.4607,-5.3741,-5.3029,-5.2606,-5.1433,-5.0337,-4.9471,-4.824,-4.7144,-4.6297,-4.5836,-4.5586,-4.5586,-4.5586,-4.5586,-4.5586,-4.5586,-4.5586,-4.5586,-4.5586,-4.5586,-4.5586,-4.5586,-4.5513,0.0,0.0,0.0,0.0,0.0,0.0,0.0,-5.2947,-5.3282,-5.567,-5.6321,-5.7162,-5.9569,-5.9965,-6.0809,-6.3541,-6.3777,-6.4111,-6.5459,-6.5116,-6.4737,-6.4907,-6.4631,-6.4389,-6.4389,-6.4389,-6.4389,-6.4389,-6.4481,-6.4461,-6.4291,-6.455,-6.4547,-6.4206,-6.4864,-6.5089,-6.4745,-6.5364,-6.5551,-6.5397,-6.4686,-6.3897,-6.3051,-6.2397,-6.1608,-6.08,-6.08,-6.0704,-6.055,-6.055,-6.0031,-5.9184,-5.8377,-5.7607,-5.6876,-5.6011,-5.5703,-5.5703,-5.5703,-5.6145,-5.6626,-5.5934,-5.6165,-5.6607,-5.5915,-5.5703,-5.5703,-5.5703,-5.5703,-5.5703,-5.5703,-5.5703,-5.5703,-5.5703,-5.5703,-5.5703,-5.5703,-5.5703,-5.5742,-5.5915,-5.5818,-5.5742,-5.5915,-5.5799,-5.5703,-5.5703,-5.5703,-5.5472,-5.4818,-5.3837,-5.2933,-5.2241,-5.1279,-5.0279,-4.924,-4.7913,-4.699,-4.6682,-4.6144,-4.5778,-4.5605,-4.5586,-4.5586,-4.5586,-4.5586,-4.5586,-4.5586,-4.5586,-4.5586,-4.5586,-4.5586,-4.5586,-4.9471,-4.8711,-4.9645,-5.2611,-5.2799,-5.3846,0.0,-5.9569,-5.8612,-6.0961,-6.2062,-6.2454,-6.1897,-6.2988,-6.4078,-6.4462,-6.5128,-6.5659,-6.5851,-6.5793,-6.6005,-6.6715,-6.5375,-6.4389,-6.4389,-6.4389,-6.4389,-6.4389,-6.4784,-6.4692,-6.3899,-6.5044,-6.5025,-6.3463,-6.4975,-6.5077,-6.3514,-6.4334,-6.4359,-6.3589,-6.3493,-6.3012,-6.2224,-6.2127,-6.1608,-6.08,-6.08,-6.0358,-5.9646,-5.9646,-5.9165,-5.8357,-5.7473,-5.7088,-5.6876,-5.6011,-5.5703,-5.5703,-5.5703,-5.5761,-5.5818,-5.5722,-5.5761,-5.5818,-5.5722,-5.5703,-5.5703,-5.5703,-5.5703,-5.5703,-5.5703,-5.5703,-5.5703,-5.5703,-5.5703,-5.5703,-5.5703,-5.5703,-5.5934,-5.6684,-5.6222,-5.5953,-5.6703,-5.6203,-5.5703,-5.5703,-5.5703,-5.5665,-5.5568,-5.4184,-5.3164,-5.3068,-5.1645,-5.0029,-4.8394,-4.8067,-4.7336,-4.5836,-4.6374,-4.6413,-4.5624,-4.5586,-4.5586,-4.5586,-4.5586,-4.5586,-4.5586,-4.5586,-4.5586,-4.5586,-4.5586,-4.5586,-5.1872,-5.153,-5.2051,-5.4062,-5.5072,-5.6477,-5.9841,-6.0163,-6.0241,-6.2055,-6.3497,-6.4276,-6.3666,-6.4532,-6.5359,-6.5359,-6.5647,-6.5897,-6.5897,-6.5897,-6.584,-6.5667,-6.4977,-6.4886,-6.5891,-6.5566,-6.528,-6.528,-6.5466,-6.5416,-6.5052,-6.557,-6.532,-6.4109,-6.4762,-6.4551,-6.332,-6.3666,-6.3666,-6.3301,-6.2839,-6.2416,-6.207,-6.157,-6.1127,-6.0762,-6.0262,-6.0127,-6.0185,-5.9204,-5.8607,-5.8204,-5.7338,-5.6684,-5.6203,-5.5818,-5.5703,-5.5703,-5.5703,-5.5703,-5.5703,-5.5703,-5.5703,-5.5703,-5.5703,-5.5703,-5.5703,-5.5703,-5.5703,-5.5703,-5.5703,-5.5703,-5.5703,-5.5703,-5.5703,-5.5703,-5.5703,-5.5703,-5.5799,-5.6165,-5.5953,-5.5818,-5.6184,-5.5934,-5.5703,-5.5703,-5.5703,-5.5703,-5.5703,-5.4684,-5.3568,-5.2549,-5.1395,-5.0202,-4.8952,-4.8856,-4.8336,-4.7124,-4.7394,-4.7432,-4.7067,-4.6605,-4.6355,-4.6355,-4.5855,-4.5586,-4.5586,-4.5586,-4.5586,-4.5586,-4.5586,-4.5586,-5.2415,-5.3001,-5.3795,-5.5174,-5.7031,-5.8832,-5.9944,-6.0622,-6.1353,-6.2568,-6.3978,-6.4801,-6.4051,-6.4993,-6.5743,-6.5263,-6.5378,-6.5532,-6.5532,-6.532,-6.5032,-6.4647,-6.4397,-6.482,-6.6263,-6.5878,-6.5628,-6.5878,-6.5897,-6.5897,-6.5897,-6.5667,-6.5147,-6.4282,-6.4243,-6.3724,-6.2627,-6.2858,-6.2858,-6.2608,-6.2012,-6.1723,-6.1704,-6.1089,-6.0666,-6.0416,-5.9762,-5.9608,-5.9646,-5.8434,-5.78,-5.753,-5.6876,-5.6261,-5.5703,-5.5703,-5.5703,-5.5703,-5.5703,-5.5703,-5.5703,-5.5703,-5.5703,-5.5703,-5.5703,-5.5703,-5.5703,-5.5703,-5.5703,-5.5703,-5.5703,-5.5703,-5.5703,-5.5703,-5.5703,-5.5703,-5.5703,-5.5703,-5.5703,-5.5703,-5.5703,-5.5703,-5.5703,-5.5703,-5.5703,-5.5703,-5.5703,-5.5703,-5.5703,-5.4991,-5.3837,-5.2106,-5.1375,-5.0587,-4.949,-4.9394,-4.9029,-4.8202,-4.8125,-4.8125,-4.8163,-4.7567,-4.7144,-4.6913,-4.6278,-4.5836,-4.5586,-4.5586,-4.5586,-4.5586,-4.5586,-4.5586,-4.9412,-5.1256,-5.3272,-5.5902,-5.8359,-6.0577,-6.2298,-6.2616,-6.273,-6.3428,-6.4234,-6.4268,-6.2493,-6.4205,-6.534,-6.3647,-6.4089,-6.4647,-6.4647,-6.3916,-6.3685,-6.4493,-6.3858,-6.3685,-6.4589,-6.4647,-6.4993,-6.584,-6.5897,-6.5897,-6.5897,-6.5109,-6.4243,-6.3378,-6.3339,-6.2551,-6.0896,-6.1704,-6.1704,-6.0877,-6.0839,-6.0839,-6.0839,-6.08,-6.0339,-5.955,-5.9511,-5.8588,-5.7107,-5.7049,-5.653,-5.578,-5.5742,-5.5722,-5.5703,-5.5703,-5.5703,-5.5703,-5.5703,-5.5703,-5.5703,-5.5703,-5.5703,-5.5703,-5.5703,-5.5703,-5.5703,-5.5703,-5.5703,-5.5703,-5.5703,-5.5703,-5.5703,-5.5703,-5.5703,-5.5703,-5.5703,-5.5703,-5.5703,-5.5703,-5.5703,-5.5703,-5.5703,-5.5703,-5.5703,-5.5703,-5.5703,-5.5703,-5.5703,-5.4991,-5.3837,-5.2106,-5.1895,-5.1202,-4.9548,-4.9394,-4.9086,-4.8334,-4.8182,-4.8163,-4.8279,-4.8163,-4.7702,-4.6932,-4.6874,-4.6432,-4.5586,-4.5586,-4.5586,-4.5586,-4.5586,-4.5586,-4.9216,-5.1006,-5.3018,-5.5566,-5.7708,-5.9506,-6.068,-6.1788,-6.2451,-6.1986,-6.2074,-6.2078,-6.1358,-6.1935,-6.2512,-6.2512,-6.3205,-6.3743,-6.3743,-6.3493,-6.3205,-6.2974,-6.2685,-6.2608,-6.2897,-6.3416,-6.3858,-6.4147,-6.4166,-6.4166,-6.4166,-6.3897,-6.3358,-6.2531,-6.2493,-6.1954,-6.08,-6.1089,-6.1089,-6.0781,-6.0204,-5.9935,-5.9915,-5.9377,-5.8973,-5.8665,-5.8088,-5.7838,-5.7761,-5.6607,-5.6299,-5.6511,-5.5934,-5.5703,-5.5703,-5.5703,-5.5703,-5.5703,-5.5703,-5.5703,-5.5703,-5.5703,-5.5703,-5.5703,-5.5703,-5.5703,-5.5703,-5.5703,-5.5703,-5.5703,-5.5703,-5.5703,-5.5703,-5.5703,-5.5703,-5.5703,-5.5703,-5.5703,-5.5703,-5.5703,-5.5703,-5.5703,-5.5703,-5.5703,-5.5703,-5.5703,-5.5703,-5.5703,-5.5703,-5.4991,-5.4049,-5.2895,-5.226,-5.1221,-4.9548,-4.9933,-4.9952,-4.9201,-4.9663,-4.9971,-5.001,-4.9413,-4.8933,-4.8567,-4.7471,-4.7028,-4.7259,-4.6144,-4.5893,-4.6451,-4.5874,-4.5586,-4.9528,-5.1396,-5.331,-5.5517,-5.7364,-5.8848,-5.9736,-6.0746,-6.1381,-6.0993,-6.0689,-6.0342,-5.9973,-6.0146,-6.0319,-6.0281,-6.0973,-6.1647,-6.1993,-6.1743,-6.157,-6.1685,-6.1647,-6.1627,-6.1627,-6.2108,-6.2666,-6.3262,-6.3301,-6.3301,-6.3301,-6.3031,-6.2627,-6.2108,-6.18,-6.1358,-6.08,-6.08,-6.0646,-6.0319,-5.9762,-5.9358,-5.905,-5.855,-5.8127,-5.78,-5.7242,-5.7126,-5.728,-5.6165,-5.5857,-5.6049,-5.5491,-5.5068,-5.4799,-5.4799,-5.4799,-5.4857,-5.5164,-5.5453,-5.5645,-5.5357,-5.5472,-5.5703,-5.5703,-5.5703,-5.5703,-5.5703,-5.5703,-5.5703,-5.5703,-5.5703,-5.5703,-5.5703,-5.5703,-5.5703,-5.5703,-5.5703,-5.5703,-5.5703,-5.5703,-5.5703,-5.5703,-5.5703,-5.5703,-5.5703,-5.5703,-5.5703,-5.5703,-5.4991,-5.4164,-5.3299,-5.2433,-5.1356,-4.9971,-5.0087,-5.0183,-5.0067,-5.026,-5.0548,-5.0895,-5.0317,-4.9817,-4.9413,-4.8336,-4.7759,-4.7682,-4.6586,-4.6182,-4.6413,-4.5855,-4.5586,-5.0209,-5.2189,-5.3949,-5.5684,-5.7244,-5.8572,-5.9457,-5.9531,-5.9665,-6.0435,-5.9877,-5.9011,-5.8261,-5.8781,-5.8819,-5.7261,-5.7819,-5.8803,-5.9727,-5.9018,-5.9056,-6.0823,-6.0858,-6.0762,-6.08,-6.08,-6.1473,-6.3051,-6.3166,-6.3166,-6.3166,-6.2454,-6.2031,-6.2031,-6.1185,-6.0723,-6.0723,-6.0685,-6.0262,-5.9435,-5.9396,-5.8954,-5.8165,-5.8165,-5.7665,-5.6799,-5.6838,-5.6376,-5.5568,-5.5568,-5.5126,-5.4434,-5.4434,-5.3933,-5.3203,-5.3203,-5.3203,-5.3318,-5.4107,-5.4934,-5.5511,-5.4741,-5.503,-5.5703,-5.5703,-5.5703,-5.5703,-5.5703,-5.5703,-5.5684,-5.5645,-5.5665,-5.5684,-5.5645,-5.5665,-5.5703,-5.5703,-5.5703,-5.5703,-5.5703,-5.5665,-5.5645,-5.5645,-5.5588,-5.5588,-5.5626,-5.5645,-5.5645,-5.5645,-5.4972,-5.4145,-5.3241,-5.2395,-5.1568,-5.076,-4.9933,-4.9875,-5.0856,-4.999,-4.9894,-5.0875,-5.0779,-5.0317,-4.9471,-4.9413,-4.8625,-4.7028,-4.6914,-4.6453,-4.5663,-4.5605,-4.5586,-5.0337,-5.164,-5.2874,-5.4511,-5.5665,-5.6648,-5.7533,-5.8184,-5.8473,-5.805,-5.6799,-5.5742,-5.5643,-5.6321,-5.6977,-5.7247,-5.9119,-6.0627,-6.0877,-6.0147,-5.9985,-6.11,-6.0627,-6.0416,-6.0896,-6.0935,-6.1069,-6.1416,-6.1435,-6.1435,-6.1435,-6.1243,-6.1127,-6.1127,-6.0281,-5.9838,-5.9838,-5.9242,-5.8838,-5.8607,-5.7953,-5.7184,-5.6357,-5.6357,-5.5549,-5.4203,-5.4857,-5.4645,-5.3837,-5.3837,-5.3722,-5.353,-5.353,-5.3395,-5.3203,-5.3203,-5.3203,-5.3145,-5.2722,-5.3549,-5.4761,-5.4568,-5.503,-5.5703,-5.5703,-5.5703,-5.5703,-5.5703,-5.5703,-5.5549,-5.4953,-5.5241,-5.5549,-5.4953,-5.5261,-5.5703,-5.5703,-5.5703,-5.5703,-5.5703,-5.5222,-5.4799,-5.4799,-5.426,-5.4068,-5.4703,-5.4799,-5.4799,-5.4799,-5.4626,-5.3914,-5.2395,-5.2029,-5.1568,-5.076,-5.0491,-5.051,-5.0895,-5.0664,-5.0645,-5.0895,-5.0875,-5.0683,-5.0356,-4.9721,-4.9183,-4.8759,-4.72,-4.6472,-4.6547,-4.5649,-4.5362,-5.0433,-5.1355,-5.2337,-5.3685,-5.4647,-5.5395,-5.5953,-5.6472,-5.6662,-5.614,-5.4699,-5.3565,-5.362,-5.4361,-5.4978,-5.5136,-5.7357,-5.9355,-6.017,-5.9463,-5.9363,-6.0663,-5.9998,-5.9725,-6.0498,-6.0571,-6.0685,-6.0993,-6.0877,-6.0627,-6.0242,-6.0223,-6.0069,-5.9704,-5.9223,-5.8973,-5.8973,-5.8531,-5.8107,-5.7723,-5.6838,-5.6165,-5.5684,-5.4934,-5.4299,-5.378,-5.3876,-5.3645,-5.3203,-5.3203,-5.2972,-5.2645,-5.2645,-5.2414,-5.2106,-5.2106,-5.2106,-5.2029,-5.1548,-5.2241,-5.3414,-5.3818,-5.4491,-5.5241,-5.5588,-5.5703,-5.5703,-5.5703,-5.5703,-5.5511,-5.4703,-5.5088,-5.5491,-5.4684,-5.5107,-5.5703,-5.5703,-5.5703,-5.5588,-5.5241,-5.4799,-5.4376,-5.3991,-5.353,-5.3376,-5.3857,-5.426,-5.4357,-5.3972,-5.3933,-5.3414,-5.2049,-5.1587,-5.1183,-5.0741,-5.0702,-5.0721,-5.0818,-5.0818,-5.0818,-5.0818,-5.0818,-5.0779,-5.0702,-5.0043,-4.952,-4.9137,-4.7434,-4.6614,-4.6606,-4.5581,-4.5282,-5.0491,-5.1241,-5.2029,-5.3012,-5.3822,-5.442,-5.4535,-5.4554,-5.4476,-5.4184,-5.3028,-5.2046,-5.1832,-5.267,-5.3205,-5.26,-5.4595,-5.6881,-5.8761,-5.8142,-5.811,-5.9863,-5.9195,-5.8939,-5.9776,-5.986,-6.0169,-6.0894,-6.0682,-6.0236,-5.9569,-5.9435,-5.8992,-5.8146,-5.8127,-5.8069,-5.7953,-5.7857,-5.7415,-5.6646,-5.578,-5.5299,-5.5145,-5.3818,-5.3491,-5.3953,-5.3318,-5.2972,-5.2876,-5.2876,-5.2433,-5.1741,-5.1741,-5.1318,-5.0702,-5.0702,-5.0702,-5.0702,-5.0702,-5.1164,-5.1895,-5.276,-5.3626,-5.4453,-5.5164,-5.5376,-5.5376,-5.5376,-5.5376,-5.5184,-5.4376,-5.4838,-5.5338,-5.4511,-5.503,-5.5703,-5.5703,-5.5703,-5.5453,-5.4664,-5.4414,-5.4049,-5.3183,-5.3029,-5.3029,-5.3029,-5.3876,-5.4184,-5.3318,-5.3203,-5.2876,-5.1991,-5.1183,-5.0702,-5.0702,-5.0702,-5.0702,-5.0702,-5.0702,-5.0702,-5.0702,-5.0587,-5.0548,-5.0624,-5.0157,-4.9534,-4.8724,-4.7519,-4.6687,-4.6206,-4.5346,-4.5161,-5.0645,-5.1049,-5.1433,-5.2281,-5.2601,-5.2729,-5.2744,-5.2751,-5.2343,-5.0882,-5.0854,-5.0677,-4.9393,-5.0956,-5.268,-5.3422,-5.513,-5.7022,-5.8909,-5.8387,-5.82,-5.9258,-5.8572,-5.8313,-5.9016,-5.9095,-5.9106,-5.9158,-5.9094,-5.9249,-5.973,-5.9053,-5.8226,-5.7261,-5.7223,-5.6876,-5.6165,-5.5491,-5.5088,-5.4914,-5.4049,-5.326,-5.2568,-5.301,-5.2529,-5.1375,-5.1895,0.0,-5.1125,-5.1125,-5.1029,-5.0914,-5.0914,-5.0818,-5.0702,-5.0702,-5.0702,-5.0702,-5.0702,-5.0779,-5.1029,-5.1856,-5.2722,-5.3453,-5.3587,-5.3626,-5.3626,-5.3626,-5.3626,-5.3433,-5.2568,-5.353,-5.4491,-5.3626,-5.4587,-5.5703,-5.5703,-5.5703,-5.5453,-5.4664,-5.3914,-5.3145,-5.2279,-5.2145,-5.2145,-5.2145,-5.3491,-5.4184,-5.3318,-5.3203,-5.2876,-5.1991,-5.1183,-5.0702,-5.0702,-5.0702,-5.0702,-5.0702,-5.0702,-5.0702,-5.0702,-5.001,-4.9815,-5.0206,-4.943,-4.8802,-4.8304,-4.7151,-4.6363,-4.5859,-4.4721,-4.4542,-5.0999,-5.1349,-5.1842,-5.2299,-5.2406,-5.2188,-5.1395,-5.1216,-5.0686,-4.8884,-4.8778,-4.8781,-4.797,-4.9534,-5.112,-5.1619,-5.3229,-5.5195,-5.7422,-5.7051,-5.7031,-5.8379,-5.7754,-5.7503,-5.8208,-5.8275,-5.8375,-5.8678,-5.8293,-5.8156,-5.8431,-5.7562,-5.6821,-5.6338,-5.6319,-5.6107,-5.5703,-5.4895,-5.4491,-5.4472,-5.3164,-5.2549,-5.2568,-5.2106,-5.1683,-5.1318,-5.1298,-5.1048,-5.0702,-5.0702,-5.0702,-5.0702,-5.0702,-5.0702,-5.0702,-5.0702,-5.0702,-5.0702,-5.0702,-5.0702,-5.076,-5.1144,-5.1837,-5.2606,-5.3068,-5.3203,-5.3203,-5.3203,-5.3203,-5.3106,-5.2702,-5.353,-5.428,-5.3414,-5.4164,-5.5068,-5.5068,-5.5395,-5.5453,-5.4664,-5.4164,-5.3606,-5.2741,-5.2587,-5.2587,-5.2587,-5.3299,-5.3837,-5.3876,-5.3491,-5.3049,-5.2626,-5.1837,-5.1318,-5.1318,-5.0933,-5.0702,-5.0702,-5.0702,-5.0702,-5.0702,-5.0099,-4.9873,-5.0092,-4.9275,-4.8765,-4.8553,-4.7386,-4.6791,-4.6761,-4.594,-4.5851,-5.1229,-5.1551,-5.2083,-5.2182,-5.2215,-5.1775,-5.0196,-4.9836,-4.9313,-4.7461,-4.7207,-4.7237,-4.6952,-4.816,-4.9253,-4.9446,-5.0724,-5.266,-5.5449,-5.5332,-5.5623,-5.7371,-5.6972,-5.6764,-5.733,-5.7388,-5.7603,-5.8117,-5.7489,-5.7028,-5.6927,-5.6155,-5.5703,-5.5703,-5.553,-5.5434,-5.5434,-5.4453,-5.3933,-5.3914,-5.2375,-5.201,-5.2626,-5.1298,-5.1029,-5.1606,-5.0971,-5.0702,-5.0702,-5.0702,-5.0702,-5.0702,-5.0702,-5.0702,-5.0702,-5.0702,-5.0702,-5.0702,-5.0702,-5.0702,-5.0702,-5.0702,-5.1125,-5.1779,-5.2452,-5.2664,-5.2664,-5.2664,-5.2799,-5.2933,-5.2933,-5.3703,-5.4337,-5.3645,-5.4126,-5.4703,-5.453,-5.4991,-5.5261,-5.4626,-5.4357,-5.3933,-5.3068,-5.3087,-5.3087,-5.2722,-5.2972,-5.3453,-5.4126,-5.3799,-5.3549,-5.3722,-5.2645,-5.1914,-5.1914,-5.1164,-5.0702,-5.0702,-5.0702,-5.0702,-5.0702,-5.0122,-4.9877,-4.9974,-4.9096,-4.868,-4.8779,-4.7647,-4.7297,-4.769,-4.7151,-4.7121,-5.0946,-5.107,-5.1201,-5.1238,-5.1228,-5.0782,-4.9047,-4.8655,-4.8152,-4.6406,-4.6568,-4.6797,-4.6067,-4.6605,-4.745,-4.8293,-4.8571,-4.9943,-5.353,-5.3984,-5.4582,-5.6325,-5.6464,-5.6399,-5.6348,-5.6343,-5.6361,-5.6443,-5.6172,-5.6037,-5.6016,-5.5821,-5.5703,-5.5703,-5.4991,-5.4607,-5.4607,-5.2972,-5.2145,-5.2145,-5.1241,-5.0837,-5.0914,-5.076,-5.0741,-5.0798,-5.0721,-5.0702,0.0,-5.0702,-5.0702,-5.0702,-5.0702,-5.0702,-5.0702,-5.0702,-5.0702,-5.0702,-5.0702,-5.0702,-5.0702,-5.0702,-5.0741,-5.0818,-5.0894,-5.0933,-5.0933,-5.0933,-5.1452,-5.2029,-5.2029,-5.326,-5.4472,-5.4395,-5.4991,-5.5395,-5.4664,-5.4549,-5.4587,-5.4511,-5.3857,-5.3049,-5.2183,-5.2683,-5.2683,-5.1164,-5.2222,-5.3241,-5.3318,-5.3933,-5.4664,-5.5395,-5.3337,-5.1914,-5.1914,-5.1164,-5.0702,-5.0702,-5.0702,-5.0702,-5.0702,-4.9548,-4.9125,-4.9561,-4.8415,-4.7988,-4.8364,-4.7498,-4.7332,-4.7667,-4.6912,-4.693,-5.1018,-5.1415,-5.1715,-5.1215,-5.0709,-4.9993,-4.8774,-4.8092,-4.7356,-4.6104,-4.6066,-4.6144,-4.5757,-4.5913,-4.6238,-4.6602,0.0,0.0,-5.0864,-5.1331,-5.2403,-5.5162,-5.5499,-5.5633,-5.5995,-5.602,-5.5887,-5.5566,-5.4733,-5.4512,-5.5018,-5.4772,-5.4628,-5.4628,-5.355,-5.3236,-5.3704,-5.2068,-5.1478,-5.1954,-5.0621,-5.0241,-5.0672,-5.0203,-5.0664,-5.1786,-5.0776,-5.0751,0.0,-5.0894,-5.0702,-5.0702,-5.0702,-5.0702,-5.0702,-5.0702,-5.0702,-5.0702,-5.0702,-5.0702,-5.0702,-5.0702,-5.0702,-5.0702,-5.0702,-5.0702,-5.0798,-5.1298,-5.1664,-5.2145,-5.3203,-5.3972,-5.4491,-5.4491,-5.4741,-5.4741,-5.3895,-5.4511,-5.5068,-5.4587,-5.4607,-5.4434,-5.3606,-5.376,-5.3587,-5.2375,-5.2337,-5.2799,-5.3857,-5.3837,-5.4222,-5.5549,-5.4357,-5.3472,-5.3472,-5.2222,-5.1414,-5.1414,-5.0971,-5.0702,-5.0702,-4.9744,-4.9305,-4.9504,-4.8531,-4.8272,-4.8657,-4.8342,-4.8397,-4.8776,-4.8702,-4.8821,-5.0736,-5.149,-5.205,-5.1491,-5.0702,-4.9778,-4.8643,-4.772,-4.6852,-4.593,-4.5738,-4.5719,-4.5605,-4.5586,-4.5586,0.0,0.0,-4.6564,-4.889,-4.9524,-5.0823,-5.3728,-5.4188,-5.453,-5.5205,-5.5404,-5.5333,-5.4952,-5.4084,-5.3855,-5.4465,-5.3875,-5.3699,-5.4077,-5.2967,-5.2647,-5.3182,-5.1824,-5.1409,-5.1956,-5.0541,-5.0266,-5.1021,-4.9965,-5.0572,-5.2311,-5.0646,-5.0617,0.0,-5.0849,-5.0604,-5.0702,-5.0702,-5.0702,-5.0702,-5.0702,-5.0702,-5.0702,-5.0702,-5.0702,-5.0702,-5.0702,-5.0702,-5.0702,-5.0702,-5.0702,-5.0818,-5.1395,-5.1914,-5.2645,-5.4107,-5.4684,-5.478,-5.4549,-5.4684,-5.4626,-5.378,-5.4511,-5.5241,-5.4914,-5.4914,-5.478,-5.4203,-5.3895,-5.3433,-5.2587,-5.1933,-5.2164,-5.3895,-5.3587,-5.3837,-5.5511,-5.5184,-5.4645,-5.4164,-5.2549,-5.1548,-5.1548,-5.101,-5.0702,-5.0702,-5.0043,-4.9692,-4.9692,-4.8996,-4.8779,-4.9075,-4.9075,-4.9295,-4.9673,-4.9974,-5.0159,-4.9892,-5.0996,-5.1914,-5.1895,-5.1298,-5.024,-4.8509,-4.749,-4.6663,-4.5778,-4.5586,-4.5586,-4.5586,-4.5586,-4.5586,-4.5586,0.0,0.0,-4.8062,-4.9065,-5.0221,-5.1934,-5.2533,-5.3091,-5.3746,-5.4238,-5.4503,-5.4503,-5.4484,-5.4484,-5.4503,-5.3297,-5.3187,-5.4446,-5.3623,-5.3189,-5.3208,-5.234,-5.1876,-5.1876,-5.1077,-5.1115,-5.182,-5.0229,-5.038,-5.1831,-5.022,-5.0174,0.0,-5.0435,-5.0336,-5.0702,-5.0702,-5.0702,-5.0702,-5.0702,-5.0702,-5.0702,-5.0702,-5.0702,-5.0702,-5.0702,-5.0702,-5.0702,-5.0702,-5.0702,-5.0702,-5.0702,-5.1914,-5.3395,-5.426,-5.5088,-5.5491,-5.4684,-5.5107,-5.5472,-5.4664,-5.4491,-5.4741,-5.553,-5.4357,-5.3222,-5.3222,-5.251,-5.1664,-5.0837,-5.0721,-5.1318,-5.301,-5.3222,-5.3837,-5.5511,-5.5684,-5.5011,-5.3356,-5.1683,-5.0702,-5.0702,-5.0702,-5.0702,-5.0702,-5.0313,-5.0092,-5.0092,-4.9692,-4.9475,-4.9475,-4.9475,-4.9719,-5.0092,-5.0092,-5.0313,-4.7813,-4.85,-4.8955,-4.8955,-4.8528,-4.7971,-4.7413,-4.6624,-4.5932,-4.5663,-4.5586,-4.5531,-4.5302,-4.5243,-4.5182,-4.4966,-4.4919,0.0,-4.7186,-4.8112,-4.9499,-5.1741,-5.3158,-5.3848,-5.3541,-5.3837,-5.3813,-5.3345,-5.3011,-5.303,-5.3565,-5.2726,-5.2511,-5.3171,-5.2103,-5.1806,-5.2361,-5.1546,-5.1417,-5.1954,-5.0583,-5.0639,-5.1898,-5.0287,-5.0735,-5.2718,-5.1039,-5.084,-5.1653,-5.0849,-5.0584,-5.0702,-5.0702,-5.0702,-5.0702,-5.0702,-5.0702,-5.0702,-5.0702,-5.0702,-5.0702,-5.0702,-5.0702,-5.0702,-5.0702,-5.0702,-5.0798,-5.1375,-5.276,-5.4145,-5.4434,-5.5088,-5.5645,-5.5376,-5.5088,-5.4799,-5.4549,-5.4491,-5.4587,-5.4818,-5.4453,-5.3895,-5.3299,-5.2491,-5.1625,-5.0818,-5.0702,-5.1087,-5.2183,-5.2837,-5.3626,-5.4761,-5.4876,-5.4664,-5.4126,-5.3068,-5.2145,-5.1568,-5.0991,-5.0702,-5.0702,-5.0313,-5.0092,-5.0092,-4.9719,-4.9636,-4.9924,-4.9924,-5.0135,-5.0504,-5.0504,-5.0584,0.0,-4.7413,-4.7889,-4.7889,-4.7442,-4.6885,-4.656,0.0,-4.5222,-4.5222,-4.5222,-4.5161,-4.4943,-4.4919,-4.4943,-4.504,-4.5051,-4.5617,-4.7231,-4.8438,-4.992,-5.1962,-5.3144,-5.345,-5.2572,-5.3432,-5.3653,-5.2612,-5.2767,-5.2986,-5.3206,-5.2729,-5.2582,-5.2806,-5.2085,-5.1958,-5.2454,-5.1958,-5.1793,-5.1977,-5.0674,-5.0729,-5.194,-5.0325,-5.0824,-5.2836,-5.1166,-5.1121,0.0,-5.0922,-5.0757,-5.1125,-5.0818,-5.0702,-5.0702,-5.0702,-5.0702,-5.0702,-5.0702,-5.0702,-5.0702,-5.0702,-5.0702,-5.0702,-5.0702,-5.0914,-5.1183,-5.1395,-5.2914,-5.4414,-5.4087,-5.4857,-5.5703,-5.5703,-5.5318,-5.4953,-5.4953,-5.4703,-5.4491,-5.4491,-5.3972,-5.3356,-5.2799,-5.201,-5.1279,-5.0779,-5.0702,-5.1106,-5.2241,-5.2856,-5.3645,-5.4818,-5.4953,-5.4703,-5.4068,-5.3222,-5.2356,-5.151,-5.0971,-5.0702,-5.0702,-5.0749,-5.0642,-5.0336,-5.0373,-5.0373,-5.0336,-5.0336,-5.0462,-5.0702,-5.0702,-5.0702,0.0,-4.7237,-4.8088,-4.8088,-4.7502,-4.6709,-4.5908,0.0,0.0,0.0,0.0,-4.4599,-4.4629,-4.461,-4.4829,-4.5659,-4.5754,-4.6318,-4.7972,-4.9739,-5.1323,-5.2509,-5.2762,-5.2319,-5.1102,-5.3086,-5.3755,-5.2221,-5.3507,-5.3995,-5.3243,-5.3206,-5.3206,-5.3206,-5.3206,-5.3206,-5.3206,-5.3206,-5.2803,-5.1977,-5.1265,-5.1301,-5.2004,-5.0536,-5.0823,-5.2433,-5.094,-5.1148,-5.2419,-5.0803,-5.0837,-5.1818,-5.101,-5.0702,-5.0702,-5.0702,-5.0702,-5.0702,-5.0702,-5.0702,-5.0702,-5.0702,-5.0702,-5.0702,-5.0702,-5.1221,-5.1683,-5.0971,-5.2491,-5.4164,-5.3472,-5.4453,-5.5626,-5.5684,-5.5665,-5.5607,-5.5607,-5.503,-5.4472,-5.4414,-5.3106,-5.1972,-5.1914,-5.1221,-5.0702,-5.0702,-5.0702,-5.1279,-5.2895,-5.3164,-5.3818,-5.5434,-5.5607,-5.4953,-5.3337,-5.2472,-5.1625,-5.0741,-5.0702,-5.0702,-5.0702,-5.1471,-5.1548,-5.0798,-5.1529,-5.151,-5.0702,-5.0702,-5.0702,-5.0702,-5.0702,-5.0702,-4.4091,0.0,-4.5036,-4.5036,-4.5106,-4.5134,0.0,0.0,0.0,0.0,0.0,0.0,0.0,0.0,-4.4512,-4.5697,-4.5371,-4.5759,-4.7941,-5.0766,-5.2736,-5.3041,-5.3621,-5.3181,-5.1113,-5.249,-5.3126,-5.2196,-5.2951,-5.3408,-5.3225,-5.3206,-5.3206,-5.3206,-5.3206,-5.3206,-5.3206,-5.3206,-5.2803,-5.1977,-5.2119,-5.2289,-5.2457,-5.2401,-5.2441,-5.2542,-5.2191,-5.2031,-5.2003,-5.0966,-5.1084,-5.1818,-5.101,-5.0702,-5.0702,-5.0702,-5.0702,-5.0702,-5.0702,-5.0702,-5.0702,-5.0702,-5.0702,-5.0702,-5.0702,-5.0818,-5.1068,-5.151,-5.2049,-5.2779,-5.3895,-5.4491,-5.4934,-5.5549,-5.5222,-5.478,-5.478,-5.4626,-5.4299,-5.3626,-5.3164,-5.2683,-5.201,-5.1221,-5.0702,-5.0702,-5.0702,-5.1048,-5.2087,-5.2799,-5.3606,-5.4664,-5.478,-5.4357,-5.3299,-5.301,-5.2279,-5.0779,-5.0702,-5.0702,-5.0702,-5.1471,-5.1818,-5.1625,-5.1798,-5.151,-5.0702,-5.0702,-5.0702,-5.0702,-5.0702,-5.0702,-4.3497,-4.3612,-4.3772,-4.3772,-4.3912,-4.4095,-4.4095,0.0,0.0,0.0,0.0,0.0,0.0,-4.4383,-4.4672,-4.5718,-4.6159,-4.7223,-4.9646,-5.1213,-5.2389,-5.3117,-5.3277,-5.2882,-5.1643,-5.2875,-5.3308,-5.2167,-5.3115,-5.3592,-5.3225,-5.3206,-5.3295,-5.3484,-5.3484,-5.34,-5.3206,-5.3206,-5.289,-5.2284,-5.2494,-5.2709,-5.2878,-5.3088,-5.2977,-5.2622,-5.2984,-5.2896,-5.2472,-5.2029,-5.2106,-5.2414,-5.1587,-5.1029,-5.0702,-5.0702,-5.0702,-5.0702,-5.0702,-5.0702,-5.0702,-5.0702,-5.0702,-5.0702,-5.0702,-5.0952,-5.1337,-5.1779,-5.2741,-5.3683,-5.3857,-5.4203,-5.4607,-5.5049,-5.4511,-5.401,-5.4414,-5.4184,-5.376,-5.3299,-5.3203,-5.3049,-5.2587,-5.2145,-5.1856,-5.1856,-5.1856,-5.2145,-5.2991,-5.3164,-5.3683,-5.4914,-5.4357,-5.3703,-5.3241,-5.2837,-5.2068,-5.0779,-5.0702,-5.0702,-5.0702,-5.1471,-5.1914,-5.1914,-5.1548,-5.1144,-5.0702,-5.0702,-5.0702,-5.0702,-5.0702,-5.0702,-4.3497,-4.3497,-4.3497,-4.3497,-4.3497,-4.3497,-4.3497,0.0,0.0,0.0,0.0,0.0,0.0,-4.4323,-4.5057,-4.6104,-4.7737,-4.9738,-5.2197,-5.1962,-5.1979,-5.3237,-5.2824,-5.2376,-5.2197,-5.3437,-5.3725,-5.2379,-5.3496,-5.3922,-5.3243,-5.3272,-5.3444,-5.3777,-5.3757,-5.3609,-5.34,-5.34,-5.3176,-5.2709,-5.2891,-5.3034,-5.3116,-5.3327,-5.3062,-5.2526,-5.3194,0.0,-5.2991,-5.2876,-5.2895,-5.2933,-5.2049,-5.1298,-5.0702,-5.0702,-5.0702,-5.0702,-5.0702,-5.0702,-5.0702,-5.0702,-5.0702,-5.0702,-5.0702,-5.126,-5.1933,-5.2068,-5.3645,-5.5011,-5.3741,-5.3953,-5.4491,-5.4491,-5.3933,-5.3568,-5.4164,-5.3722,-5.3164,-5.3029,-5.3106,-5.3203,-5.3203,-5.3203,-5.3203,-5.3203,-5.3203,-5.351,-5.4395,-5.3857,-5.3933,-5.5376,-5.4126,-5.3203,-5.3203,-5.2299,-5.1491,-5.0914,-5.076,-5.076,-5.0875,-5.1548,-5.1914,-5.1914,-5.1221,-5.0818,-5.0702,-5.0702,-5.0702,-5.0702,-5.0702,-5.0702,-4.3497,-4.3497,-4.3497,-4.3497,-4.3497,-4.3497,-4.3497,0.0,0.0,0.0,0.0,0.0,0.0,-4.5076,-4.5424,-4.759,-4.9903,-5.227,-5.4693,-5.4917,-5.4708,-5.4287,-5.4125,-5.3533,-5.2181,-5.2846,-5.3316,-5.306,-5.3274,-5.3335,-5.3225,-5.3505,-5.3758,-5.3814,-5.3459,-5.3607,-5.4288,-5.4307,-5.3908,-5.3139,-5.421,-5.4028,-5.271,-5.3805,-5.3462,-5.2005,0.0,-5.2162,-5.2049,-5.1356,-5.1491,-5.2029,-5.1202,-5.0798,-5.0702,-5.0702,-5.0702,-5.0702,-5.0702,-5.0702,-5.0702,-5.0702,-5.0702,-5.0702,-5.0702,-5.126,-5.2049,-5.2799,-5.328,-5.3683,-5.4184,-5.4395,-5.4491,-5.4491,-5.4395,-5.4126,-5.353,-5.3299,-5.2991,-5.2241,-5.2702,-5.3203,-5.3203,-5.3203,-5.3203,-5.3203,-5.3203,-5.351,-5.4395,-5.4376,-5.4395,-5.4664,-5.3799,-5.3203,-5.3203,-5.1779,-5.1125,-5.1683,-5.1087,-5.101,-5.1702,-5.1837,-5.1914,-5.1914,-5.1779,-5.1375,-5.0702,-5.0702,-5.0702,-5.0702,-5.0702,-5.0702,-4.3497,-4.3497,-4.3497,-4.3497,-4.3497,-4.3497,-4.3497,-4.3497,0.0,0.0,0.0,0.0,0.0,-4.6691,-4.8269,-5.1132,-5.2197,-5.3188,-5.473,-5.4197,-5.3665,-5.3739,-5.3371,-5.2986,-5.2674,-5.2986,-5.3023,-5.2582,-5.2546,-5.2449,-5.2172,-5.281,-5.3134,-5.3145,-5.3394,-5.384,-5.4485,-5.4485,-5.4406,-5.423,-5.4341,-5.4142,-5.3625,-5.3736,-5.3106,-5.1952,0.0,-5.2779,-5.1952,-5.251,-5.2414,-5.1875,-5.1491,-5.1087,-5.0702,-5.0702,-5.0702,-5.0702,-5.0702,-5.0702,-5.0702,-5.0702,-5.0702,-5.0702,-5.0702,-5.126,-5.1991,-5.2395,-5.3183,-5.3991,-5.4395,-5.4145,-5.3799,-5.3799,-5.3106,-5.2452,-5.2491,-5.251,-5.2395,-5.1991,-5.2991,-5.3895,-5.3895,-5.426,-5.4549,-5.4549,-5.4549,-5.453,-5.4491,-5.4087,-5.3972,-5.4453,-5.3299,-5.2876,-5.3818,-5.2337,-5.1318,-5.126,-5.0894,-5.0856,-5.1241,-5.1241,-5.1241,-5.1241,-5.1241,-5.1068,-5.0702,-5.0702,-5.0702,-5.0702,-5.0702,-5.0702,-4.3497,-4.3582,-4.3631,-4.3631,0.0,-4.3667,-4.387,-4.3989,-4.4091,0.0,0.0,0.0,0.0,-4.8106,-5.0508,-5.3371,-5.3482,-5.3555,-5.4546,-5.3463,-5.2784,-5.3408,-5.2766,-5.2527,-5.3151,-5.3314,-5.2987,-5.2198,-5.2204,-5.2029,-5.1479,-5.2177,-5.2592,-5.2596,-5.308,-5.3709,-5.4491,-5.4107,-5.4345,-5.5237,-5.4352,-5.4058,-5.4164,-5.3299,-5.2433,-5.1702,-5.3029,-5.2856,-5.1722,-5.3068,-5.2818,-5.1625,-5.1625,-5.1241,-5.0702,-5.0702,-5.0702,-5.0702,-5.0702,-5.0702,-5.0702,-5.0702,-5.0818,-5.0971,-5.0971,-5.1414,-5.1952,-5.2164,-5.3029,-5.3933,-5.4145,-5.3991,-5.3683,-5.3299,-5.2222,-5.1395,-5.1818,-5.176,-5.1683,-5.1875,-5.2991,-5.401,-5.4434,-5.4838,-5.5241,-5.5645,-5.553,-5.5261,-5.4838,-5.4203,-5.3895,-5.4164,-5.301,-5.2587,-5.353,-5.276,-5.1779,-5.076,-5.0702,-5.0702,-5.0702,-5.0702,-5.0702,-5.0702,-5.0894,-5.0894,-5.0702,-5.0894,-5.0875,-5.0702,-5.0702,-5.0702,-4.3497,-4.3726,-4.3955,-4.3955,-4.3955,-4.4191,-4.4985,-4.5405,-4.5865,-4.6665,-4.6891,-4.7061,-4.7476,-4.8697,-5.0141,-5.1885,-5.2747,-5.3739,-5.5299,-5.4766,-5.4252,-5.4308,-5.361,-5.3151,-5.3206,-5.3545,-5.3405,-5.2549,-5.2863,-5.2736,-5.1902,-5.2333,-5.2608,-5.2603,-5.2222,-5.2836,-5.4472,-5.2895,-5.3278,-5.5662,-5.4855,-5.4047,-5.326,-5.2395,-5.1548,-5.0779,-5.0914,-5.0894,-5.0798,-5.0914,-5.0894,-5.0779,-5.0779,-5.0741,-5.0702,-5.0702,-5.0702,-5.0702,-5.0702,-5.0702,-5.0702,-5.0702,-5.1202,-5.1818,-5.1818,-5.1856,-5.2087,-5.2876,-5.2606,-5.2279,-5.3087,-5.4395,-5.5126,-5.3568,-5.3106,-5.2818,-5.2068,-5.1318,-5.101,-5.176,-5.201,-5.2606,-5.4222,-5.3876,-5.3914,-5.5472,-5.5049,-5.4838,-5.553,-5.5549,-5.4953,-5.3453,-5.3183,-5.2529,-5.1087,-5.2279,-5.2414,-5.0798,-5.0702,-5.0702,-5.0702,-5.0702,-5.0702,-5.0702,-5.1433,-5.1452,-5.0702,-5.1452,-5.1433,-5.0702,-5.0702,-5.0702,-4.3804,-4.4076,-4.4373,-4.4373,-4.4535,0.0,0.0,-4.5706,-4.5889,-4.621,-4.7559,-4.8936,-4.9818,-5.0766,-5.1691,-5.2587,-5.3427,-5.4326,-5.5427,-5.4473,-5.3665,-5.3665,-5.2949,-5.2541,-5.2806,-5.294,-5.2785,-5.2217,-5.1833,-5.1404,-5.0814,-5.1427,-5.1697,-5.1439,-5.1738,-5.2222,-5.2876,-5.2241,-5.2664,-5.4145,-5.3299,-5.2722,-5.2375,-5.1529,-5.0991,-5.0721,-5.1221,-5.1164,-5.0741,-5.1241,-5.1144,-5.0702,-5.0702,-5.0702,-5.0702,-5.0702,-5.0702,-5.0702,-5.0702,-5.1029,-5.1452,-5.1452,-5.2029,-5.2606,-5.2068,-5.1914,-5.1875,-5.1683,-5.2164,-5.2914,-5.378,-5.4087,-5.4126,-5.403,-5.3183,-5.2299,-5.1972,-5.1279,-5.0933,-5.1741,-5.2337,-5.3087,-5.428,-5.4645,-5.4972,-5.5588,-5.5434,-5.5184,-5.4972,-5.4953,-5.4703,-5.4087,-5.4453,-5.4299,-5.3164,-5.3645,-5.328,-5.1548,-5.0971,-5.0702,-5.0702,-5.1183,-5.1202,-5.0702,-5.2029,-5.2049,-5.0702,-5.151,-5.1491,-5.0702,-5.0702,-5.0702,-4.4016,-4.4373,-4.4776,-4.4776,0.0,0.0,-4.6171,-4.6423,-4.6592,-4.6901,-4.8337,-4.9803,-5.0638,-5.1227,-5.1767,-5.2348,-5.2913,-5.3628,-5.4693,-5.3463,-5.2637,-5.3151,-5.2491,-5.2143,-5.2548,-5.2655,-5.2461,-5.184,-5.1356,-5.085,-5.0329,-5.0811,-5.0977,-5.0702,-5.1221,-5.1645,-5.1914,-5.1664,-5.1952,-5.2779,-5.1933,-5.1664,-5.1875,-5.1068,-5.0548,-5.0337,-5.1164,-5.0894,-4.9933,-5.0779,-5.0798,-5.0279,-5.0279,-5.0452,-5.0702,-5.0702,-5.0702,-5.0741,-5.0991,-5.1433,-5.1952,-5.2222,-5.2895,-5.351,-5.2895,-5.2529,-5.226,-5.1972,-5.2337,-5.3049,-5.4203,-5.4241,-5.4087,-5.4414,-5.3587,-5.2568,-5.2029,-5.1471,-5.1164,-5.1471,-5.2222,-5.3068,-5.3933,-5.4549,-5.5088,-5.5607,-5.5472,-5.5203,-5.4914,-5.4664,-5.428,-5.3741,-5.4414,-5.4587,-5.376,-5.4184,-5.376,-5.201,-5.1375,-5.0952,-5.0702,-5.1221,-5.126,-5.0702,-5.2087,-5.2241,-5.1087,-5.1625,-5.1625,-5.1068,-5.0818,-5.0702,-4.4016,-4.4542,-4.5096,-4.5096,0.0,0.0,-4.722,-4.7773,-4.8336,-4.9221,-4.9453,-4.9504,-4.9475,-4.9554,-4.9829,-5.0655,-5.0784,-5.1353,-5.2968,-5.1811,-5.1389,-5.2986,-5.2454,-5.2106,-5.2456,-5.2911,-5.2643,-5.1396,-5.167,-5.1548,-5.0741,-5.0702,-5.0702,-5.0702,-5.0702,-5.1087,-5.1895,-5.1106,-5.1106,-5.1895,-5.1068,-5.1106,-5.1875,-5.1048,-5.0221,-4.9452,-5.0298,-4.9702,-4.8163,-4.9029,-4.9394,-4.9394,-4.9394,-4.9913,-5.0683,-5.0683,-5.0683,-5.0798,-5.1606,-5.1914,-5.2049,-5.2914,-5.3799,-5.4511,-5.4491,-5.3895,-5.3395,-5.4241,-5.326,-5.2318,-5.4049,-5.5088,-5.5491,-5.4703,-5.4491,-5.401,-5.2299,-5.1914,-5.1664,-5.0856,-5.1356,-5.2202,-5.3068,-5.3222,-5.3799,-5.5453,-5.5011,-5.4799,-5.5588,-5.4991,-5.3837,-5.2125,-5.2702,-5.2856,-5.201,-5.351,-5.376,-5.2029,-5.1933,-5.1548,-5.0721,-5.0702,-5.0702,-5.0702,-5.151,-5.1914,-5.1895,-5.1914,-5.1914,-5.1875,-5.1068,-5.0702,-4.4401,-4.4924,-4.54,-4.5159,0.0,0.0,0.0,-4.6587,-4.736,-4.9169,-4.9029,-4.87,-4.9096,-4.912,-4.9084,-4.9042,-4.9554,-5.0306,-5.1371,-5.06,-5.0123,-5.06,-5.0674,-5.0836,-5.1268,-5.1632,-5.1815,-5.1727,-5.1316,-5.0952,-5.0702,-5.0702,-5.0702,-5.0702,-5.0702,-5.0798,-5.1048,-5.0818,-5.0818,-5.1048,-5.0183,-5.0221,-5.1048,-5.0798,-5.0221,-4.9413,-4.9663,-4.9144,-4.8125,-4.8375,-4.8856,-4.9336,-4.8721,-4.9029,-4.9779,-4.9779,-5.0164,-5.0721,-5.0971,-5.1837,-5.276,-5.2414,-5.3664,-5.5126,-5.3933,-5.3837,-5.4049,-5.3683,-5.3645,-5.3703,-5.3606,-5.4222,-5.4934,-5.5261,-5.4434,-5.3433,-5.2933,-5.1895,-5.1144,-5.1491,-5.2241,-5.3087,-5.3953,-5.4587,-5.5126,-5.5626,-5.5491,-5.5434,-5.5665,-5.4991,-5.4299,-5.378,-5.3414,-5.3337,-5.3703,-5.4203,-5.428,-5.376,-5.3145,-5.2183,-5.076,-5.1241,-5.1279,-5.0702,-5.2087,-5.2241,-5.1048,-5.1625,-5.1606,-5.1048,-5.0798,-5.0702,-4.4553,-4.4896,0.0,-4.5118,-4.5369,-4.552,-4.5153,-4.5859,-4.6954,-4.8332,-4.8022,-4.7721,-4.838,-4.8314,-4.8291,-4.8693,-4.8948,-4.9481,-5.0637,-4.9536,-4.9026,-5.0137,-4.9895,-4.9987,-5.0903,-5.1185,-5.1338,-5.1432,-5.0971,-5.0548,-5.0202,-5.051,-5.0529,-5.0183,-5.0183,-5.0183,-5.0183,-4.9837,-4.9663,-4.9663,-4.9125,-4.9163,-4.9663,-4.9663,-4.9202,-4.8394,-4.8029,-4.7798,-4.7605,-4.7259,-4.7625,-4.8355,-4.7836,-4.8355,-4.9394,-4.9394,-4.9952,-5.0741,-5.1068,-5.1837,-5.2664,-5.2472,-5.3683,-5.503,-5.403,-5.4087,-5.4453,-5.4241,-5.4337,-5.4453,-5.4241,-5.4587,-5.5011,-5.5184,-5.4453,-5.3626,-5.328,-5.2683,-5.2145,-5.1952,-5.2876,-5.3876,-5.4414,-5.5164,-5.5703,-5.5703,-5.5703,-5.5568,-5.5261,-5.4491,-5.3857,-5.351,-5.301,-5.3049,-5.3914,-5.4299,-5.4491,-5.4491,-5.401,-5.3106,-5.1741,-5.1529,-5.1356,-5.1183,-5.1856,-5.1875,-5.1183,-5.1664,-5.1664,-5.1183,-5.1183,-5.101,-4.4447,-4.458,-4.4657,-4.4943,-4.4789,-4.4505,-4.4158,-4.5517,-4.6845,-4.6919,-4.669,-4.6712,-4.749,-4.7326,-4.7499,-4.8989,-4.8583,-4.8636,-5.0251,-4.8491,-4.8053,-5.0763,-4.9784,-4.9502,-5.1047,-5.1217,-5.1056,-5.0606,-5.0567,-5.0202,-4.9336,-5.0029,-5.0087,-4.9317,-4.9279,-4.9279,-4.9279,-4.8509,-4.8105,-4.8105,-4.8029,-4.799,-4.799,-4.8067,-4.7663,-4.6855,-4.597,-4.6086,-4.6836,-4.5951,-4.6105,-4.6894,-4.6817,-4.7817,-4.9279,-4.9279,-4.9875,-5.0798,-5.1548,-5.1856,-5.2029,-5.2741,-5.3664,-5.4491,-5.4414,-5.4491,-5.4761,-5.5491,-5.5164,-5.4761,-5.5374,-5.5525,-5.5333,-5.4562,-5.443,-5.428,-5.3491,-5.3855,-5.3853,-5.2277,-5.3296,-5.443,-5.443,-5.5124,-5.5703,-5.5703,-5.5703,-5.5434,-5.4703,-5.378,-5.2933,-5.2222,-5.1991,-5.2299,-5.3241,-5.4049,-5.453,-5.4607,-5.453,-5.4145,-5.3356,-5.1702,-5.1144,-5.1895,-5.1106,-5.1048,-5.1798,-5.1875,-5.1875,-5.1798,-5.1875,-5.1471,-4.4106,-4.4346,0.0,-4.429,-4.4457,-4.4672,-4.4589,-4.5074,-4.5592,-4.5592,-4.6053,-4.6557,-4.7049,-4.6813,-4.665,-4.7003,-4.6688,-4.6764,-4.7774,-4.7128,-4.7274,-4.9179,-4.9068,-4.9233,-5.0259,-5.0626,-5.0508,-4.974,-4.9683,-4.9298,-4.8432,-4.8567,-4.8567,-4.8394,-4.8375,-4.8375,-4.8375,-4.8202,-4.8105,-4.8086,-4.7471,-4.7163,-4.7182,-4.7817,-4.7663,-4.6855,-4.597,-4.6086,-4.6836,-4.5951,-4.6105,-4.6836,-4.6144,-4.6894,-4.8375,-4.8375,-4.9356,-5.0721,-5.0894,-5.1375,-5.1837,-5.1375,-5.2722,-5.4376,-5.3683,-5.4395,-5.5472,-5.5645,-5.5568,-5.5256,-5.4426,-5.4218,-5.4084,-5.3594,-5.3989,-5.4453,-5.426,-5.3564,-5.2895,-5.2513,-5.3263,-5.3951,-5.3951,-5.4914,-5.5703,-5.5703,-5.5703,-5.5645,-5.5453,-5.4126,-5.3395,-5.3895,-5.2722,-5.2529,-5.4087,-5.4395,-5.4761,-5.5395,-5.4857,-5.4414,-5.4222,-5.2568,-5.1722,-5.1914,-5.1106,-5.0779,-5.0952,-5.1587,-5.1587,-5.0971,-5.1606,-5.1471,-4.3955,0.0,0.0,-4.3804,0.0,-4.4617,-4.4213,-4.4239,-4.4434,-4.4569,-4.5088,-4.5725,-4.6308,-4.6252,-4.6237,-4.663,-4.652,-4.6559,-4.7006,-4.6526,-4.6644,-4.806,-4.8232,-4.8636,-4.9669,-4.995,-4.9894,-4.9433,-4.9009,-4.8413,-4.7567,-4.7894,-4.7932,-4.7548,-4.7528,-4.7528,-4.7528,-4.7105,-4.6894,-4.6894,-4.6471,-4.6278,-4.6297,-4.6701,-4.6663,-4.624,-4.5797,-4.5855,-4.624,-4.5778,-4.5874,-4.622,-4.5778,-4.6624,-4.8105,-4.8105,-4.9202,-5.0702,-5.0702,-5.0971,-5.126,-5.0837,-5.1856,-5.3164,-5.2722,-5.378,-5.503,-5.4626,-5.5088,-5.5407,-5.4136,-5.4116,-5.4368,-5.4173,-5.4001,-5.3919,-5.413,-5.3976,-5.3722,-5.3551,-5.3843,-5.4245,-5.4628,-5.5247,-5.5703,-5.5703,-5.5703,-5.5703,-5.5703,-5.4607,-5.3837,-5.3876,-5.3068,-5.2895,-5.3799,-5.426,-5.4838,-5.5645,-5.5299,-5.5068,-5.5068,-5.3837,-5.2953,-5.2529,-5.1702,-5.1279,-5.1279,-5.2106,-5.2087,-5.1298,-5.2125,-5.2068,-4.3818,0.0,-4.3516,-4.3663,-4.4103,-4.436,-4.3828,-4.364,-4.366,-4.3924,-4.4261,-4.4708,-4.5458,-4.559,-4.5817,-4.6495,-4.6609,-4.6619,-4.6769,-4.6153,-4.6114,-4.7353,-4.7602,-4.8137,-4.9279,-4.9529,-4.949,-4.9202,-4.8509,-4.7702,-4.6759,-4.7317,-4.7375,-4.674,-4.6701,-4.6682,-4.6682,-4.5951,-4.5586,-4.5586,-4.5586,-4.5586,-4.5586,-4.5586,-4.5586,-4.5586,-4.5586,-4.5586,-4.5586,-4.5586,-4.5586,-4.5586,-4.5586,-4.6624,-4.8105,-4.8105,-4.9202,-5.0702,-5.0702,-5.0702,-5.0702,-5.0702,-5.1241,-5.1914,-5.1914,-5.301,-5.4164,-5.3587,-5.4414,-5.5231,-5.4192,-5.4447,-5.4979,-5.4905,-5.4061,-5.3428,-5.4013,-5.4619,-5.4957,-5.4457,-5.4389,-5.4658,-5.5549,-5.5703,-5.5703,-5.5703,-5.5703,-5.5703,-5.5703,-5.4991,-5.428,-5.3683,-5.351,-5.3414,-5.3414,-5.4203,-5.4934,-5.5453,-5.5607,-5.5645,-5.5491,-5.4991,-5.4299,-5.3433,-5.2568,-5.2125,-5.2145,-5.301,-5.2991,-5.2164,-5.3029,-5.2972,-4.3529,0.0,-4.3663,0.0,-4.4103,-4.3809,-4.4415,-4.4243,-4.3955,-4.3986,-4.4028,-4.4213,-4.4678,-4.4749,-4.4787,-4.49,-4.4919,-4.5164,-4.5854,-4.5507,-4.5754,-4.7319,-4.7832,-4.8395,-4.9317,-5.0067,-4.9894,-4.8394,-4.8163,-4.7471,-4.6026,-4.5932,-4.5932,-4.595,-4.5817,-4.5759,-4.5759,-4.5663,-4.5586,-4.5586,-4.5586,-4.5586,-4.5586,-4.5586,-4.5586,-4.5586,-4.5586,-4.5586,-4.5586,-4.5586,-4.5586,-4.5586,-4.5586,-4.6624,-4.8105,-4.8105,-4.9202,-5.0702,-5.0702,-5.0702,-5.0702,-5.0702,-5.1241,-5.1914,-5.1914,-5.2587,-5.351,-5.4145,-5.4491,-5.461,-5.4457,-5.4503,-5.4484,-5.4065,-5.3848,-5.4033,-5.5207,-5.5255,-5.484,-5.4053,-5.3881,-5.4287,-5.5487,-5.5703,-5.5703,-5.5703,-5.5703,-5.5703,-5.5703,-5.4991,-5.4722,-5.5299,-5.4741,-5.4337,-5.4337,-5.5068,-5.528,-5.4703,-5.5299,-5.5395,-5.4684,-5.5222,-5.5164,-5.4337,-5.3472,-5.3029,-5.3029,-5.3895,-5.3876,-5.3049,-5.3914,-5.3857,-4.3497,-4.3828,-4.4268,0.0,-4.4433,-4.4268,-4.4635,-4.4186,-4.3726,-4.3726,-4.3726,-4.3899,-4.4501,-4.4732,-4.4872,-4.4872,-4.5033,-4.5295,-4.5636,-4.5512,-4.563,-4.6358,-4.7012,-4.7586,-4.7971,-4.8355,-4.8259,-4.749,-4.6971,-4.6394,-4.5738,-4.5624,-4.5624,-4.5699,-4.5624,-4.5586,-4.5586,-4.5586,-4.5586,-4.5586,-4.5586,-4.5586,-4.5586,-4.5586,-4.5586,-4.5586,-4.5586,-4.5586,-4.5586,-4.5586,-4.5586,-4.5586,-4.5586,-4.6355,-4.7432,-4.7432,-4.8509,-4.9971,-4.9971,-5.0279,-5.0702,-5.0702,-5.0933,-5.1221,-5.1221,-5.1818,-5.2549,-5.2953,-5.376,-5.4444,-5.418,-5.4477,-5.479,-5.4591,-5.451,-5.4722,-5.5535,-5.538,-5.4912,-5.4326,-5.456,-5.4894,-5.5009,-5.5395,-5.5703,-5.5703,-5.5703,-5.5703,-5.5703,-5.5395,-5.5145,-5.503,-5.5107,-5.4991,-5.453,-5.5241,-5.5549,-5.5184,-5.5491,-5.553,-5.5184,-5.5068,-5.4857,-5.4511,-5.4126,-5.3933,-5.3933,-5.4318,-5.4299,-5.3933,-5.4318,-5.428,-4.3497,0.0,-4.4452,-4.4654,-4.4562,-4.4452,-4.4654,-4.4085,-4.3497,-4.3497,-4.3497,-4.3646,-4.4242,-4.4587,-4.483,-4.483,-4.5118,-4.5381,-4.5457,-4.54,-4.5419,-4.5586,-4.6206,-4.6685,-4.6876,-4.7011,-4.7031,-4.6895,-4.6297,-4.5836,-4.5643,-4.5605,-4.5605,-4.5643,-4.5605,-4.5586,-4.5586,-4.5586,-4.5586,-4.5586,-4.5586,-4.5586,-4.5586,-4.5586,-4.5586,-4.5586,-4.5586,-4.5586,-4.5586,-4.5586,-4.5586,-4.5586,-4.5586,-4.6124,-4.6913,-4.6913,-4.7817,-4.9106,-4.9317,-4.9817,-5.0414,-5.0625,-5.0702,-5.0702,-5.0702,-5.1125,-5.1645,-5.1856,-5.2837,-5.3832,-5.3811,-5.4287,-5.484,-5.505,-5.5088,-5.5212,-5.5599,-5.5293,-5.491,-5.4814,-5.5126,-5.5261,-5.4876,-5.5299,-5.5703,-5.5703,-5.5703,-5.5703,-5.5703,-5.5703,-5.5472,-5.4876,-5.5338,-5.5376,-5.4568,-5.5241,-5.5607,-5.5415,-5.5588,-5.5703,-5.5703,-5.5126,-5.4799,-5.4799,-5.4799,-5.4703,-5.4491,-5.4703,-5.4799,-5.4799,-5.4799,-5.4799,-4.3497,-4.3516,0.0,-4.4525,-4.4121,-4.3754,-4.4544,-4.4085,-4.3497,-4.3497,-4.3497,-4.3513,-4.3548,-4.3836,-4.4058,-4.4058,-4.4401,-4.4757,-4.5074,-4.4849,-4.4896,-4.5513,-4.5757,-4.6136,-4.6819,-4.7294,-4.7386,-4.6933,-4.6855,-4.6528,-4.5834,-4.568,-4.5643,-4.5796,-4.568,-4.5586,-4.5586,-4.5586,-4.5586,-4.5586,-4.5586,-4.5586,-4.5586,-4.5586,-4.5586,-4.5586,-4.5586,-4.5586,-4.5586,-4.5586,-4.5586,-4.5586,-4.5586,-4.6124,-4.6913,-4.6913,-4.7451,-4.8298,-4.9106,-4.9433,-4.9606,-5.0433,-5.0702,-5.0702,-5.0702,-5.0721,-5.0914,-5.1702,-5.1972,-5.2293,-5.3486,-5.3823,-5.4097,-5.4897,-5.5088,-5.5212,-5.5599,-5.5088,-5.4739,-5.5491,-5.5049,-5.478,-5.5511,-5.5665,-5.5703,-5.5703,-5.5703,-5.5703,-5.5703,-5.5703,-5.5684,-5.5645,-5.5684,-5.5376,-5.4568,-5.5241,-5.5376,-5.4607,-5.528,-5.5703,-5.5703,-5.5665,-5.5645,-5.5645,-5.5645,-5.5261,-5.4491,-5.5261,-5.5645,-5.5645,-5.5645,-5.5645,-4.3497,0.0,0.0,-4.4507,-4.4103,-4.3699,-4.4525,-4.4085,-4.3497,-4.3497,-4.3497,-4.3497,-4.3497,-4.3772,-4.4016,-4.4016,-4.4318,-4.4631,-4.4757,-4.4676,-4.4757,-4.5222,-4.5322,-4.5535,-4.6011,-4.6224,-4.6244,-4.6086,-4.6067,-4.5951,-4.5699,-4.5624,-4.5605,-4.568,-4.5624,-4.5586,-4.5586,-4.5586,-4.5586,-4.5586,-4.5699,-4.568,-4.5586,-4.5699,-4.568,-4.5586,-4.5586,-4.5586,-4.5586,-4.5586,-4.5586,-4.5586,-4.5586,-4.5778,-4.6067,-4.6067,-4.6605,-4.7375,-4.7702,-4.8125,-4.8625,-4.8933,-4.9029,-4.9144,-4.9702,-4.9875,-5.0144,-5.1529,-5.2299,-5.2855,-5.3305,-5.4223,-5.5105,-5.5412,-5.5086,-5.4898,-5.5566,-5.5472,-5.5357,-5.5645,-5.5472,-5.5357,-5.5645,-5.5703,-5.5703,-5.5703,-5.5703,-5.5703,-5.5703,-5.5703,-5.5703,-5.5703,-5.5703,-5.5568,-5.528,-5.553,-5.5568,-5.528,-5.553,-5.5703,-5.5703,-5.5203,-5.4934,-5.4934,-5.4934,-5.503,-5.5261,-5.5549,-5.5703,-5.5703,-5.5703,-5.5703,-4.3497,-4.3497,-4.3626,-4.4158,-4.3901,-4.3626,-4.4176,-4.3883,-4.3497,-4.3497,-4.3497,-4.3497,-4.3497,-4.366,-4.3818,-4.3818,-4.4065,-4.428,-4.4373,-4.4419,-4.4561,-4.5033,-4.5007,-4.5118,-4.5568,-4.5495,-4.5476,-4.5586,-4.5586,-4.555,-4.5438,-4.555,-4.5586,-4.5586,-4.5586,-4.5586,-4.5586,-4.5586,-4.5605,-4.568,-4.5757,-4.5767,-4.5699,-4.5767,-4.5757,-4.5643,-4.5605,-4.5586,-4.5586,-4.5586,-4.5586,-4.5586,-4.5586,-4.5586,-4.5586,-4.5586,-4.597,-4.6509,-4.6797,-4.7259,-4.774,-4.8009,-4.8105,-4.8259,-4.9144,-4.9394,-4.9683,-5.1106,-5.2106,-5.2837,-5.3126,-5.4241,-5.5299,-5.5299,-5.4895,-5.4645,-5.5184,-5.5511,-5.5703,-5.5703,-5.5703,-5.5703,-5.5703,-5.5703,-5.5703,-5.5703,-5.5703,-5.5703,-5.5703,-5.5703,-5.5703,-5.5703,-5.5703,-5.5703,-5.5703,-5.5703,-5.5703,-5.5703,-5.5703,-5.5703,-5.5703,-5.5184,-5.4895,-5.4895,-5.4895,-5.5164,-5.5703,-5.5703,-5.5703,-5.5703,-5.5703,-5.5703,0.0,0.0,0.0,-4.3497,-4.3497,-4.3497,-4.3497,-4.3497,-4.3497,-4.3497,-4.3497,-4.3497,-4.3497,-4.3497,-4.3497,-4.3497,-4.3497,-4.3612,-4.3924,-4.3986,-4.4243,-4.4988,-4.4781,-4.483,-4.5513,-4.5282,-4.5222,-4.555,-4.5568,-4.5419,-4.5096,-4.54,-4.5586,-4.5586,-4.5586,-4.5586,-4.5586,-4.5586,-4.568,-4.5796,-4.5813,-4.5844,-4.589,-4.5829,-4.5813,-4.5796,-4.5643,-4.5586,-4.5586,-4.5586,-4.5586,-4.5586,-4.5586,-4.5586,-4.5586,-4.5586,-4.5586,-4.572,-4.6567,-4.6855,-4.699,-4.7778,-4.8029,-4.8202,-4.9086,-4.9356,-4.9548,-5.0452,-5.1279,-5.2125,-5.301,-5.3818,-5.4414,-5.4511,-5.4491,-5.4472,-5.4511,-5.5145,-5.5684,-5.5684,-5.5662,-5.5662,-5.5684,-5.5684,-5.5703,-5.5703,-5.5703,-5.5703,-5.5703,-5.5703,-5.5703,-5.5703,-5.5703,-5.5703,-5.5703,-5.5703,-5.5703,-5.5703,-5.5703,-5.5703,-5.5703,-5.5703,-5.5703,-5.5703,-5.5703,-5.5703,-5.5703,-5.5703,-5.5703,-5.5703,-5.5703,-5.5703,-4.3497,0.0,0.0,0.0,0.0,0.0,-4.3497,-4.3497,-4.3497,-4.3497,-4.3497,-4.3497,-4.3497,-4.3497,-4.3497,-4.3497,-4.3497,-4.3548,-4.3631,-4.3646,-4.3804,-4.4261,-4.4233,-4.4346,-4.483,-4.4781,-4.4776,0.0,-4.4896,-4.4849,-4.4732,-4.5052,-4.5342,-4.5586,-4.5586,-4.5586,-4.5586,-4.5586,-4.568,-4.5796,-4.5854,-4.5871,-4.5907,-4.5975,-4.5949,-4.5796,-4.5757,-4.5699,-4.5586,-4.5586,-4.5586,-4.5586,-4.5586,-4.5586,-4.5586,-4.5586,-4.5586,-4.5624,-4.5874,-4.5951,-4.599,-4.622,-4.6278,-4.6547,-4.8029,-4.8471,-4.8779,-5.0279,-5.1279,-5.226,-5.376,-5.2953,-5.2356,-5.478,-5.4434,-5.3895,-5.5107,-5.5293,-5.5282,-5.5282,-5.5034,-5.4905,-5.5212,-5.5282,-5.5356,-5.5662,-5.5703,-5.5703,-5.5703,-5.5703,-5.5703,-5.5703,-5.5703,-5.5703,-5.5703,-5.5703,-5.5703,-5.5703,-5.5703,-5.5703,-5.5703,-5.5703,-5.5703,-5.5703,-5.5703,-5.5703,-5.5703,-5.5703,-5.5703,-5.5703,-5.5703,-5.5703,-4.3497,-4.3497,-4.3497,-4.3497,0.0,0.0,-4.3497,-4.3497,-4.3497,-4.3497,-4.3497,-4.3497,-4.3497,-4.3497,-4.3497,-4.3497,-4.3497,-4.3497,-4.3497,-4.3612,-4.3772,-4.3986,-4.4146,-4.4346,-4.458,-4.458,-4.458,-4.458,-4.458,-4.4657,-4.48,-4.4988,-4.5243,-4.5586,-4.5586,-4.5432,-4.5047,-4.547,-4.5566,-4.5355,-4.578,-4.6008,-4.6055,-4.5717,-4.5665,-4.5819,-4.5439,-4.5393,-4.5586,-4.5586,-4.5586,-4.5586,-4.5586,-4.5586,-4.5586,-4.5586,-4.5586,-4.5586,-4.5586,-4.5586,-4.5586,-4.5586,-4.5586,-4.5836,-4.7182,-4.7836,-4.8394,-4.976,-5.101,-5.2299,-5.4049,-5.3126,-5.2241,-5.4184,-5.4184,-5.3914,-5.4511,-5.4877,-5.5088,-5.5088,-5.4924,-5.4819,-5.5061,-5.5237,-5.5423,-5.5662,-5.5703,-5.5703,-5.5703,-5.5703,-5.5703,-5.5703,-5.5703,-5.5703,-5.5703,-5.5703,-5.5703,-5.5703,-5.5703,-5.5703,-5.5703,-5.5703,-5.5703,-5.5703,-5.5703,-5.5703,-5.5703,-5.5703,-5.5703,-5.5703,-5.5703,-5.5703,-4.3497,-4.3497,-4.3497,-4.3497,-4.3497,0.0,-4.3497,-4.3444,-4.341,-4.341,-4.3356,-4.3321,-4.341,-4.3356,-4.3321,-4.341,-4.3356,-4.3356,-4.3479,-4.3758,-4.3955,-4.3955,-4.4252,-4.4474,-4.4474,-4.4501,-4.4527,-4.4527,-4.458,-4.4751,-4.5074,-4.5096,-4.5243,-4.5586,-4.5586,-4.524,-4.447,-4.5353,-4.547,-4.4857,-4.5586,-4.6026,-4.6106,-4.511,-4.5011,-4.5561,-4.4727,-4.4703,-4.5316,-4.5413,-4.5509,-4.5586,-4.5586,-4.5586,-4.5605,-4.5568,-4.5531,-4.555,-4.5495,-4.5495,-4.5495,-4.5495,-4.5495,-4.5648,-4.6532,-4.7338,-4.8202,-4.9182,-5.0586,-5.2183,-5.3914,-5.3645,-5.2991,-5.328,-5.3857,-5.4164,-5.3491,-5.4264,-5.5088,-5.5088,-5.5061,-5.5034,-5.5088,-5.5399,-5.564,-5.5684,-5.5703,-5.5703,-5.5703,-5.5703,-5.5703,-5.5703,-5.5703,-5.5703,-5.5703,-5.5703,-5.5703,-5.5703,-5.5703,-5.5703,-5.5703,-5.5607,-5.5607,-5.5703,-5.5703,-5.5703,-5.5703,-5.5703,-5.5703,-5.5703,-5.5703,-5.5703,-4.3497,-4.3497,-4.3497,-4.3497,-4.3497,0.0,-4.3497,-4.3178,-4.2864,-4.2864,-4.2462,-4.2266,-4.277,-4.2462,-4.2284,-4.277,-4.2462,-4.2426,-4.3356,-4.3548,-4.3597,-4.3597,-4.3646,-4.3712,-4.3712,-4.3974,-4.4117,-4.4117,-4.4419,-4.4751,-4.5074,-4.5096,-4.5243,-4.5586,-4.5586,-4.5566,-4.5507,-4.5699,-4.5815,-4.5815,-4.5297,-4.5086,-4.5144,-4.424,-4.3802,-4.3723,-4.3535,-4.3506,-4.3643,-4.4297,-4.497,-4.5586,-4.5586,-4.5586,-4.5568,-4.5302,-4.5201,-4.5159,-4.4896,-4.48,-4.48,-4.48,-4.48,-4.4952,-4.5767,-4.6582,-4.7599,-4.9449,-5.0442,-5.1318,-5.3029,-5.2337,-5.1702,-5.376,-5.3837,-5.3606,-5.4126,-5.4685,-5.5088,-5.5088,-5.4838,-5.4701,-5.5034,-5.516,-5.5331,-5.5662,-5.5703,-5.5703,-5.5703,-5.5703,-5.5703,-5.5703,-5.5703,-5.5703,-5.5703,-5.5703,-5.5703,-5.5703,-5.5703,-5.5703,-5.5703,-5.5068,-5.503,-5.5684,-5.5703,-5.5703,-5.5703,-5.5703,-5.5703,-5.5703,-5.5703,-5.5703,-4.3497,-4.3497,-4.3497,-4.3497,-4.3497,0.0,0.0,-4.2902,-4.2616,-4.2302,-4.2021,-4.1895,-4.2203,-4.1979,-4.1895,-4.2203,-4.1997,-4.2103,-4.2976,-4.3105,-4.3214,-4.3463,-4.3497,-4.3582,-4.3726,-4.3893,-4.4087,-4.429,-4.4657,-4.4919,-4.5096,-4.5243,-4.5419,-4.5586,-4.5643,-4.5297,-4.4509,-4.5028,-4.493,-4.4196,-4.4196,-4.4209,-4.4218,-4.3137,-4.2776,-4.2967,-4.237,-4.229,-4.2657,-4.3477,-4.4069,-4.451,-4.513,-4.5243,-4.5096,-4.4919,-4.4849,-4.4825,-4.4657,-4.458,-4.458,-4.458,-4.458,-4.4674,-4.5096,-4.6032,-4.7435,-4.9518,-5.0535,-5.1248,-5.2277,-5.226,-5.2164,-5.301,-5.353,-5.3857,-5.3857,-5.4671,-5.5399,-5.5399,-5.5256,-5.5088,-5.5088,-5.5282,-5.5466,-5.5662,-5.5703,-5.5703,-5.5703,-5.5703,-5.5703,-5.5703,-5.5703,-5.5703,-5.5703,-5.5703,-5.5703,-5.5703,-5.5318,-5.528,-5.5684,-5.4934,-5.4876,-5.5684,-5.5703,-5.5703,-5.5703,-5.5703,-5.5703,-5.5703,-5.5703,-5.5703,-4.3513,-4.3548,-4.3563,-4.3513,-4.341,-4.3214,0.0,0.0,0.0,-4.1725,-4.1534,-4.149,-4.1621,-4.1534,-4.1508,-4.1621,-4.1534,-4.1725,-4.244,-4.2537,-4.277,-4.341,-4.3582,-4.3693,-4.3986,-4.4117,-4.4354,-4.4757,-4.5033,-4.5201,-4.5201,-4.5438,-4.5586,-4.5586,-4.5719,-4.504,-4.3505,-4.4322,-4.3997,-4.2553,-4.3011,-4.3227,-4.3162,-4.1901,-4.1651,-4.2145,-4.1318,-4.128,-4.1925,-4.2907,-4.3253,-4.3321,-4.4531,-4.4849,-4.458,-4.4501,-4.4474,-4.4474,-4.4419,-4.4392,-4.4392,-4.4392,-4.4419,-4.453,-4.4877,-4.5957,-4.7515,-4.9542,-5.0617,-5.1289,-5.1776,-5.2318,-5.2587,-5.2029,-5.2991,-5.3857,-5.3318,-5.4395,-5.5511,-5.5665,-5.5703,-5.5599,-5.5282,-5.5489,-5.5703,-5.5703,-5.5703,-5.5703,-5.5703,-5.5703,-5.5703,-5.5703,-5.5703,-5.5703,-5.5703,-5.5703,-5.5703,-5.5703,-5.5088,-5.5011,-5.5665,-5.5068,-5.4953,-5.5453,-5.5607,-5.5703,-5.5703,-5.5703,-5.5703,-5.5703,-5.5703,-5.5703,-4.3563,-4.3726,-4.3881,-4.3563,-4.3142,-4.277,-4.2711,0.0,-4.1087,-4.1041,0.0,-4.0417,-4.0903,0.0,0.0,-4.0903,-4.0577,-4.0689,-4.1768,-4.1895,-4.2306,-4.3356,-4.3772,-4.3955,-4.4016,-4.4587,-4.5118,-4.5457,-4.5513,-4.5531,-4.5531,-4.5586,-4.5586,-4.5586,-4.5605,-4.5263,-4.454,-4.4536,-4.4163,-4.3451,-4.2414,-4.1865,-4.1702,-4.0537,-3.9983,-4.0004,-4.0575,-4.0871,-4.1084,-4.2649,-4.3125,-4.2976,-4.418,-4.4631,-4.4553,-4.4204,-4.4058,-4.4016,-4.3744,-4.3631,-4.3631,-4.3631,-4.3836,-4.4337,-4.5823,-4.6862,-4.7895,-4.9616,-5.0416,-5.0932,-5.1702,-5.1433,-5.1144,-5.176,-5.2049,-5.2395,-5.3049,-5.3953,-5.4857,-5.5549,-5.5703,-5.5703,-5.564,-5.5662,-5.5703,-5.5703,-5.5703,-5.5703,-5.5703,-5.5703,-5.5703,-5.5703,-5.5703,-5.5703,-5.5703,-5.5703,-5.5703,-5.5703,-5.5607,-5.5588,-5.5703,-5.5607,-5.5261,-5.4645,-5.5338,-5.5703,-5.5703,-5.5703,-5.5703,-5.5703,-5.5703,-5.5703,-4.3548,-4.3597,-4.3679,-4.3548,-4.3105,-4.2616,-4.2262,-4.1534,-4.0827,-4.0497,0.0,0.0,0.0,0.0,0.0,0.0,-4.0703,-4.0984,-4.2162,-4.2302,-4.2637,-4.341,-4.3612,-4.3772,-4.3986,-4.4482,-4.4872,-4.5011,-4.5201,-4.5322,-4.5322,-4.5495,-4.5586,-4.5586,-4.568,-4.5112,-4.3846,-4.3848,-4.3157,-4.1741,-4.1132,-4.0708,-4.0486,-3.9943,-3.9802,-4.0001,-3.987,-4.0261,-4.1051,-4.172,-4.2224,-4.2604,-4.3584,-4.3962,-4.3931,-4.3791,-4.3693,-4.3693,-4.3548,-4.3497,-4.3548,-4.3726,-4.3881,-4.4345,-4.6221,-4.7013,-4.7663,-4.9567,-5.055,-5.1073,-5.1182,-5.1298,-5.1356,-5.1221,-5.1568,-5.201,-5.2375,-5.353,-5.4607,-5.4934,-5.5376,-5.5703,-5.5703,-5.5703,-5.5703,-5.5703,-5.5703,-5.5703,-5.5703,-5.5703,-5.5703,-5.5703,-5.5703,-5.5703,-5.5703,-5.5703,-5.5703,-5.5703,-5.5703,-5.5491,-5.5011,-5.5453,-5.553,-5.5203,-5.553,-5.5703,-5.5703,-5.5703,-5.5703,-5.5703,-5.5703,-5.5703,-4.3513,-4.3582,-4.3579,-4.3356,-4.2884,-4.2302,-4.1664,-4.1087,-4.0577,-4.0154,-4.007,0.0,0.0,0.0,-4.0286,-4.0827,0.0,-4.1313,-4.2519,-4.2711,-4.2902,-4.3444,-4.3563,-4.3791,-4.4136,-4.4447,-4.4511,-4.4266,-4.4673,-4.4871,-4.4623,-4.5048,-4.5322,-4.5322,-4.5419,-4.4748,-4.3273,-4.3337,-4.2434,-4.057,-4.0344,-4.0024,-3.9612,-3.942,-3.9533,-3.9843,-3.9472,-3.9882,-4.0818,-4.1258,-4.1772,-4.2378,-4.3185,-4.3497,-4.3497,-4.3497,-4.3497,-4.3497,-4.3497,-4.3497,-4.3548,-4.3772,-4.3986,-4.4504,-4.6468,-4.7148,-4.7713,-4.9706,-5.0692,-5.1063,-5.0778,-5.1125,-5.1414,-5.0837,-5.1318,-5.1972,-5.2202,-5.3433,-5.4568,-5.478,-5.5126,-5.5376,-5.5376,-5.5549,-5.5703,-5.5703,-5.5703,-5.5703,-5.5703,-5.5703,-5.5703,-5.5703,-5.5703,-5.5703,-5.5703,-5.5703,-5.5703,-5.5703,-5.5703,-5.5434,-5.4857,-5.5395,-5.5703,-5.5703,-5.5703,-5.5703,-5.5703,-5.5703,-5.5703,-5.5703,-5.5703,-5.5703,-4.3597,-4.3758,-4.3781,-4.294,-4.2244,-4.1664,-4.1087,-4.0497,-4.0121,-4.0121,-4.007,-4.007,-4.007,-4.007,-4.0286,-4.0827,-4.0903,0.0,0.0,-4.2711,-4.2902,-4.3444,-4.3772,-4.4146,-4.4553,-4.458,-4.4266,-4.3416,-4.4134,-4.4247,-4.3404,-4.4178,-4.4631,-4.4631,-4.465,-4.4253,-4.3392,-4.3345,-4.2523,-4.0977,-4.0514,-3.9881,-3.9099,-3.8844,-3.8738,-3.8811,-3.9564,-3.9913,-4.0047,-4.1625,-4.2286,-4.2378,-4.3185,-4.3497,-4.3497,-4.3497,-4.3497,-4.3497,-4.3497,-4.3497,-4.3479,-4.3513,-4.4023,-4.49,-4.6596,-4.7552,-4.8433,-5.0183,-5.0702,-5.0721,-5.0702,-5.0721,-5.0721,-5.0702,-5.1318,-5.2145,-5.2991,-5.3876,-5.4722,-5.5511,-5.5049,-5.453,-5.453,-5.5184,-5.5703,-5.5703,-5.5703,-5.5703,-5.5703,-5.5703,-5.5703,-5.5703,-5.5703,-5.5703,-5.5703,-5.5703,-5.5703,-5.5703,-5.5703,-5.5684,-5.5665,-5.5684,-5.5703,-5.5703,-5.5703,-5.5703,-5.5703,-5.5703,-5.5703,-5.5703,-5.5703,-5.5703,0.0,0.0,-4.3493,-4.2846,-4.2262,-4.1621,-4.1041,-4.0497,-4.007,-4.007,-4.007,-4.007,-4.007,-4.0368,-4.0827,-4.1402,-4.1853,-4.2364,0.0,-4.3214,-4.3286,-4.3479,-4.3597,-4.3726,-4.3836,-4.3386,-4.3182,-4.3423,-4.3405,-4.3493,-4.3755,-4.4304,-4.458,-4.458,-4.458,-4.419,-4.3353,-4.3297,-4.2645,-4.1381,-4.0663,-4.0076,-3.9619,-3.9164,-3.9446,-4.0267,-3.9832,-4.0127,-4.0961,-4.1137,-4.1429,-4.1851,-4.265,-4.3178,-4.3497,-4.3497,-4.3497,-4.3497,-4.3497,-4.3497,-4.3621,-4.4369,-4.4414,-4.4674,-4.7109,-4.761,-4.7762,-4.9748,-5.0294,-5.0358,-5.0624,-5.0702,-5.0702,-5.0702,-5.1318,-5.1991,-5.2279,-5.3491,-5.4587,-5.4857,-5.4684,-5.4491,-5.4491,-5.4722,-5.4914,-5.4914,-5.5357,-5.5703,-5.5703,-5.5703,-5.5703,-5.5703,-5.5703,-5.5703,-5.5703,-5.5703,-5.5703,-5.5703,-5.5703,-5.5703,-5.5703,-5.5703,-5.5703,-5.5703,-5.5703,-5.5703,-5.5703,-5.5703,-5.5703,-5.5703,-5.5703,-5.5703,-4.3497,-4.3375,0.0,-4.2519,-4.1937,-4.1313,-4.075,-4.0319,-4.0171,-4.0336,-4.0254,-4.0204,-4.0642,-4.078,-4.1178,-4.1979,-4.244,-4.2902,0.0,-4.3339,-4.3214,-4.3214,-4.3214,-4.3176,-4.3094,-4.2699,-4.25,-4.2653,-4.2881,-4.315,-4.3391,-4.3897,-4.4213,-4.4213,-4.4213,-4.3951,-4.338,-4.338,-4.2723,-4.1415,-4.1137,-4.048,-3.946,-3.9716,-4.0001,-4.0315,-3.9917,-4.013,-4.0769,-4.0659,-4.0927,-4.1558,-4.2368,-4.3014,-4.3497,-4.3497,-4.3497,-4.3497,-4.3497,-4.3497,-4.3676,-4.4702,-4.4562,-4.4494,-4.7196,-4.7541,-4.7492,-4.9866,-5.0321,-5.0259,-5.095,-5.0914,-5.076,-5.1048,-5.1529,-5.2087,-5.2702,-5.3703,-5.4491,-5.4491,-5.4241,-5.3933,-5.3626,-5.3837,-5.4145,-5.4453,-5.5184,-5.5703,-5.5703,-5.5703,-5.5703,-5.5703,-5.5703,-5.5703,-5.5703,-5.5703,-5.5703,-5.5703,-5.5703,-5.5703,-5.5703,-5.5703,-5.5838,-5.6145,-5.5857,-5.5838,-5.6145,-5.5838,-5.5703,-5.5703,-5.5703,-5.5703]}]]